Date StartTime U_cm/s V_cm/s W_cm/s Ustd_cm/s Vstd_cm/s Wstd_cm/s Uvar_(cm/s)^2 Vvar_(cm/s)^2 Wvar_(cm/s)^2 KE_(m/s)^2 TurbulentKE_(m/s)^2 HorizWindSpeed_cm/s FrictionSpeec_cm/s DragCoef SpeedOfSound_m/s SonicTemperature_C Pressure_mb 
10/06/2013  00:00:00     -144.943      -39.898      -10.020       18.952       16.579       12.314      359.176      274.877      151.645        1.174        0.039      150.334        7.959        0.003      336.611        8.031      869.651
10/06/2013  00:01:00     -142.600      -39.572      -17.830       18.067       15.294       10.526      326.403      233.909      110.790        1.144        0.034      147.988        8.791        0.004      336.612        8.033      869.633
10/06/2013  00:02:00     -123.118      -60.034      -12.847       22.506       28.449       16.865      506.528      809.329      284.435        1.026        0.080      136.975       12.558        0.008      336.526        7.887      869.638
10/06/2013  00:03:00     -120.430      -67.287      -14.520       30.207       24.342       16.868      912.463      592.521      284.533        1.052        0.089      137.953        7.452        0.003      336.525        7.885      869.623
10/06/2013  00:04:00     -132.859      -70.447      -15.184       25.684       20.241       15.089      659.688      409.707      227.673        1.207        0.065      150.380       10.393        0.005      336.490        7.828      869.611
10/06/2013  00:05:00     -155.969      -45.804      -10.800       15.414       20.051       13.945      237.595      402.051      194.458        1.369        0.042      162.556        6.737        0.002      336.488        7.824      869.613
10/06/2013  00:06:00     -134.029      -50.523       -8.495       16.998       16.896       12.717      288.917      285.489      161.728        1.066        0.037      143.235        9.399        0.004      336.440        7.742      869.610
10/06/2013  00:07:00     -108.723      -56.800       -1.791       28.852       20.854       17.671      832.432      434.884      312.265        0.831        0.079      122.666       16.815        0.019      336.460        7.776      869.605
10/06/2013  00:08:00     -120.957      -73.362       -4.907       23.747       21.324       18.314      563.942      454.710      335.395        1.070        0.068      141.465       13.941        0.010      336.507        7.855      869.602
10/06/2013  00:09:00     -122.174      -69.533       -9.312       17.468       19.799       17.369      305.137      391.985      301.669        1.042        0.050      140.574       10.469        0.006      336.506        7.854      869.600
10/06/2013  00:10:00     -106.479      -81.245       -7.474       30.347       20.738       16.787      920.923      430.051      281.808        0.981        0.082      133.934        7.688        0.003      336.544        7.918      869.587
10/06/2013  00:11:00     -126.420      -73.667       -5.590       22.799       20.619       18.678      519.814      425.136      348.871        1.137        0.065      146.318       15.056        0.011      336.462        7.780      869.578
10/06/2013  00:12:00      -81.119      -65.933        2.048       42.735       31.866       20.406     1826.251     1015.425      416.400        0.709        0.163      104.535       17.942        0.029      336.415        7.701      869.576
10/06/2013  00:13:00      -81.106      -63.981        0.891       49.097       41.921       29.979     2410.537     1757.371      898.720        0.787        0.253      103.305       28.916        0.078      336.385        7.650      869.574
10/06/2013  00:14:00     -115.313      -78.666       -2.943       34.202       29.326       21.331     1169.763      860.018      455.004        1.099        0.124      139.591       13.591        0.009      336.366        7.619      869.570
10/06/2013  00:15:00      -84.870      -87.327       -3.426       39.170       32.920       22.656     1534.300     1083.701      513.303        0.899        0.157      121.774        9.837        0.007      336.393        7.663      869.578
10/06/2013  00:16:00      -86.382      -65.330        4.504       44.302       35.395       24.769     1962.666     1252.782      613.491        0.779        0.191      108.304       25.370        0.055      336.323        7.548      869.582
10/06/2013  00:17:00     -112.478      -79.229       -6.251       31.045       24.028       18.410      963.803      577.326      338.918        1.042        0.094      137.581       14.706        0.011      336.317        7.537      869.577
10/06/2013  00:18:00      -79.660      -63.087        3.535       44.119       27.110       20.491     1946.523      734.937      419.887        0.672        0.155      101.615       21.378        0.044      336.300        7.509      869.576
10/06/2013  00:19:00      -83.932      -64.309        4.905       36.223       22.761       22.499     1312.121      518.049      506.224        0.677        0.117      105.737       19.741        0.035      336.303        7.514      869.583
10/06/2013  00:20:00     -115.045      -81.748       -5.612       28.314       27.976       18.447      801.685      782.680      340.283        1.094        0.096      141.132       12.456        0.008      336.317        7.537      869.574
10/06/2013  00:21:00     -109.956      -71.111       -3.613       30.947       25.145       19.926      957.692      632.290      397.037        0.957        0.099      130.947       15.575        0.014      336.289        7.491      869.575
10/06/2013  00:22:00     -111.505      -79.163       -4.519       32.509       29.450       18.215     1056.809      867.321      331.786        1.049        0.113      136.749       16.705        0.015      336.260        7.442      869.582
10/06/2013  00:23:00     -101.200      -77.235       -3.611       36.878       33.722       22.298     1359.998     1137.165      497.190        0.961        0.150      127.305       21.751        0.029      336.223        7.380      869.570
10/06/2013  00:24:00     -103.096      -83.220       -2.795       31.968       30.473       18.860     1021.974      928.574      355.692        0.993        0.115      132.493       17.766        0.018      336.272        7.462      869.555
10/06/2013  00:25:00     -120.833      -67.284       -4.895       36.651       29.818       21.556     1343.317      889.134      464.665        1.092        0.135      138.303       16.297        0.014      336.264        7.447      869.551
10/06/2013  00:26:00      -79.677      -72.577       -1.653       42.557       30.928       24.563     1811.089      956.514      603.338        0.749        0.169      107.777       23.247        0.047      336.217        7.370      869.544
10/06/2013  00:27:00      -87.851      -60.798       -3.970       35.019       29.312       18.839     1226.348      859.200      354.893        0.693        0.122      106.837       14.278        0.018      336.250        7.425      869.536
10/06/2013  00:28:00     -101.794      -65.875       -3.956       25.553       21.831       17.800      652.968      476.596      316.824        0.808        0.072      121.250       13.391        0.012      336.219        7.374      869.537
10/06/2013  00:29:00      -77.371      -61.464       -4.790       23.805       19.537       18.316      566.687      381.681      335.494        0.554        0.064       98.814       12.191        0.015      336.285        7.483      869.541
10/06/2013  00:30:00      -98.411      -75.197       -6.382       21.592       26.409       16.374      466.211      697.428      268.117        0.841        0.072      123.852       12.086        0.010      336.313        7.530      869.538
10/06/2013  00:31:00      -85.997      -68.090       -6.431       33.107       21.622       15.150     1096.062      467.531      229.521        0.693        0.090      109.689       11.712        0.011      336.309        7.523      869.528
10/06/2013  00:32:00      -87.860      -63.884       -4.318       32.208       27.529       20.952     1037.366      757.849      438.966        0.703        0.112      108.630       19.454        0.032      336.290        7.494      869.529
10/06/2013  00:33:00      -57.632      -59.812        0.182       46.206       30.596       24.284     2134.995      936.105      589.692        0.528        0.183       83.060       18.813        0.051      336.203        7.346      869.532
10/06/2013  00:34:00      -94.065      -76.463        3.544       48.612       41.825       27.211     2363.117     1749.352      740.454        0.978        0.243      121.223       22.930        0.036      336.161        7.277      869.525
10/06/2013  00:35:00     -104.863      -60.678        3.743       39.716       39.431       21.274     1577.322     1554.832      452.567        0.914        0.179      121.153       17.852        0.022      336.142        7.245      869.521
10/06/2013  00:36:00      -71.952      -58.697        7.264       49.141       33.360       23.893     2414.877     1112.920      570.873        0.639        0.205       92.857       27.759        0.089      336.123        7.214      869.526
10/06/2013  00:37:00      -96.492      -75.128       -0.365       43.054       32.891       20.948     1853.634     1081.802      438.826        0.916        0.169      122.290       16.536        0.018      336.099        7.172      869.526
10/06/2013  00:38:00     -105.337      -63.101       -1.473       53.619       26.597       23.853     2874.971      707.375      568.977        0.961        0.208      122.791       25.205        0.042      336.018        7.037      869.538
10/06/2013  00:39:00     -122.541      -87.239       -4.201       45.299       36.164       23.652     2052.043     1307.859      559.406        1.328        0.196      150.423       17.440        0.013      336.009        7.022      869.549
10/06/2013  00:40:00     -116.134      -70.646        2.406       50.128       32.489       26.532     2512.842     1055.512      703.932        1.138        0.214      135.934       23.989        0.031      336.052        7.095      869.548
10/06/2013  00:41:00      -63.801      -55.401        8.637       60.256       38.935       27.000     3630.840     1515.949      728.993        0.654        0.294       84.497       33.589        0.158      336.029        7.057      869.541
10/06/2013  00:42:00      -87.834      -71.332        4.254       53.943       32.969       31.211     2909.854     1086.971      974.131        0.890        0.249      113.151       31.285        0.076      336.080        7.141      869.545
10/06/2013  00:43:00     -114.229      -69.220       -0.471       36.867       26.731       26.130     1359.172      714.570      682.788        1.030        0.138      133.565       18.819        0.020      336.104        7.183      869.549
10/06/2013  00:44:00     -102.060      -75.282        6.834       56.720       38.401       24.814     3217.211     1474.604      615.739        1.072        0.265      126.822       25.238        0.040      336.128        7.223      869.549
10/06/2013  00:45:00     -100.198      -74.014        2.200       41.204       32.064       23.485     1697.782     1028.068      551.561        0.940        0.164      124.570       19.931        0.026      336.090        7.159      869.554
10/06/2013  00:46:00      -94.215      -63.308        5.725       49.793       38.671       25.352     2479.365     1495.413      642.707        0.877        0.231      113.509       18.905        0.028      336.108        7.188      869.573
10/06/2013  00:47:00      -66.808      -65.796       -1.992       52.573       28.981       23.584     2763.926      839.894      556.182        0.648        0.208       93.768       23.761        0.064      336.106        7.185      869.573
10/06/2013  00:48:00      -61.736      -60.207        2.648       61.017       37.326       25.893     3723.102     1393.251      670.444        0.661        0.289       86.234       31.652        0.135      336.018        7.039      869.576
10/06/2013  00:49:00     -121.644      -75.600        0.342       51.252       43.398       24.982     2626.728     1883.380      624.082        1.282        0.257      143.223       24.102        0.028      336.072        7.128      869.580
10/06/2013  00:50:00      -85.123      -69.961        1.545       42.899       34.102       26.460     1840.333     1162.964      700.108        0.792        0.185      110.184       24.125        0.048      336.040        7.075      869.580
10/06/2013  00:51:00      -65.534      -34.857        7.028       38.522       31.188       23.086     1483.949      972.690      532.980        0.427        0.149       74.227       22.866        0.095      336.018        7.038      869.574
10/06/2013  00:52:00      -47.368      -42.246        8.463       49.272       39.315       27.022     2427.700     1545.670      730.165        0.440        0.235       63.470       24.858        0.153      336.012        7.028      869.581
10/06/2013  00:53:00     -128.430      -92.205       -7.640       35.597       37.458       19.362     1267.132     1403.079      374.897        1.405        0.152      158.101       17.787        0.013      336.036        7.068      869.589
10/06/2013  00:54:00     -101.783      -64.938        1.543       47.871       40.041       25.506     2291.635     1603.280      650.571        0.956        0.227      120.734       26.130        0.047      335.975        6.965      869.590
10/06/2013  00:55:00      -98.142      -72.738        1.257       35.460       29.508       21.887     1257.388      870.734      479.052        0.877        0.130      122.158       18.741        0.024      335.997        7.002      869.609
10/06/2013  00:56:00      -74.196      -50.312        9.129       45.837       49.319       27.229     2101.075     2432.364      741.431        0.670        0.264       89.645       25.857        0.083      335.962        6.945      869.619
10/06/2013  00:57:00      -86.392      -66.915        5.824       57.510       34.422       28.420     3307.447     1184.893      807.712        0.864        0.265      109.276       26.703        0.060      335.980        6.973      869.623
10/06/2013  00:58:00      -95.828      -60.518        0.389       57.297       35.057       25.295     3282.910     1229.020      639.859        0.900        0.258      113.338       14.430        0.016      335.967        6.954      869.633
10/06/2013  00:59:00      -93.815      -57.314        1.548       40.539       37.568       21.368     1643.404     1411.351      456.598        0.780        0.176      109.937       22.029        0.040      335.939        6.906      869.632
10/06/2013  01:00:00     -117.381      -69.060       -1.541       35.782       22.908       21.313     1280.360      524.787      454.259        1.040        0.113      136.190       19.381        0.020      335.940        6.908      869.625
10/06/2013  01:01:00      -74.929      -61.039        7.029       39.608       34.076       22.574     1568.772     1161.186      509.582        0.631        0.162       96.644       22.980        0.057      335.951        6.926      869.626
10/06/2013  01:02:00     -106.501      -61.848        0.251       28.029       33.722       19.165      785.623     1137.179      367.304        0.873        0.115      123.157       14.941        0.015      335.959        6.939      869.634
10/06/2013  01:03:00     -145.168      -43.597       -8.803       15.625       16.621       14.070      244.134      276.264      197.961        1.189        0.036      151.573       10.398        0.005      335.887        6.819      869.634
10/06/2013  01:04:00     -143.804      -59.182       -8.772       21.305       17.139       15.338      453.916      293.761      235.239        1.262        0.049      155.506       14.075        0.008      335.923        6.881      869.632
10/06/2013  01:05:00     -124.578      -63.979        0.192       30.275       21.311       16.879      916.598      454.165      284.912        1.063        0.083      140.046       12.635        0.008      335.941        6.909      869.640
10/06/2013  01:06:00     -120.224      -65.743      -10.118       16.129       18.073       11.892      260.130      326.644      141.424        0.980        0.036      137.025        7.767        0.003      335.930        6.891      869.641
10/06/2013  01:07:00     -135.126      -33.525      -10.151       16.139       15.381       12.073      260.459      236.567      145.756        1.006        0.032      139.223        6.703        0.002      335.912        6.862      869.634
10/06/2013  01:08:00     -133.527      -50.621       -9.602       23.510       18.132       16.537      552.717      328.785      273.479        1.082        0.058      142.800       14.110        0.010      335.942        6.912      869.648
10/06/2013  01:09:00     -123.533      -62.262       -0.218       21.733       16.878       16.833      472.320      284.868      283.355        1.009        0.052      138.337       13.952        0.010      335.907        6.854      869.645
10/06/2013  01:10:00     -143.620      -63.037      -13.529       18.945       12.673       11.729      358.897      160.608      137.571        1.272        0.033      156.845        8.649        0.003      335.891        6.828      869.632
10/06/2013  01:11:00      -95.705      -60.119       -4.866       21.947       25.012       18.324      481.666      625.583      335.786        0.712        0.072      113.021       14.178        0.016      335.880        6.808      869.632
10/06/2013  01:12:00      -47.051      -59.119        2.225       39.696       26.646       24.621     1575.778      709.996      606.172        0.430        0.145       75.557       22.487        0.089      335.955        6.933      869.641
10/06/2013  01:13:00     -104.499      -71.474       -1.956       26.352       23.468       18.129      694.446      550.740      328.655        0.880        0.079      126.604       12.226        0.009      335.910        6.857      869.645
10/06/2013  01:14:00     -143.944      -59.382      -10.048       24.524       26.534       15.284      601.429      704.040      233.595        1.294        0.077      155.711        6.014        0.001      335.904        6.848      869.640
10/06/2013  01:15:00     -120.710      -41.866       -2.536       27.573       26.222       19.700      760.274      687.602      388.109        0.908        0.092      127.764        8.184        0.004      335.916        6.869      869.645
10/06/2013  01:16:00      -69.242      -49.242       -5.968       43.897       34.611       23.734     1926.937     1197.925      563.285        0.547        0.184       84.966       13.349        0.025      335.941        6.908      869.658
10/06/2013  01:17:00     -102.019      -86.310       -1.781       39.500       21.336       21.471     1560.216      455.243      461.016        1.017        0.124      133.631       20.277        0.023      335.855        6.765      869.659
10/06/2013  01:18:00     -116.122      -83.037       -7.128       40.417       38.582       28.966     1633.544     1488.595      839.002        1.219        0.198      142.757       21.033        0.022      335.850        6.759      869.660
10/06/2013  01:19:00      -90.165      -79.495        6.194       41.115       37.434       30.152     1690.420     1401.297      909.168        0.924        0.200      120.204       22.089        0.034      335.788        6.654      869.669
10/06/2013  01:20:00     -103.020      -86.306       -1.068       46.367       33.371       21.754     2149.927     1113.594      473.232        1.090        0.187      134.395       18.220        0.018      335.848        6.754      869.676
10/06/2013  01:21:00     -114.180      -70.542       -2.634       38.574       25.521       21.566     1487.920      651.305      465.083        1.031        0.130      134.213       14.794        0.012      335.756        6.602      869.676
10/06/2013  01:22:00     -113.473      -90.065       -2.193       33.434       29.375       20.380     1117.837      862.903      415.332        1.169        0.120      144.872       13.423        0.009      335.798        6.671      869.665
10/06/2013  01:23:00     -105.554      -85.629       -3.165       36.526       24.580       21.368     1334.132      604.152      456.604        1.044        0.120      135.919       17.151        0.016      335.763        6.615      869.656
10/06/2013  01:24:00      -92.806      -78.744       -1.781       38.277       25.792       23.190     1465.111      665.217      537.755        0.874        0.133      121.712       18.178        0.022      335.764        6.615      869.657
10/06/2013  01:25:00     -104.935      -81.056       -4.806       27.342       20.146       16.105      747.558      405.843      259.381        0.951        0.071      132.595       10.489        0.006      335.770        6.623      869.648
10/06/2013  01:26:00     -115.790      -80.404       -3.962       33.378       28.448       20.609     1114.094      809.261      424.711        1.112        0.117      140.969       17.862        0.016      335.740        6.575      869.637
10/06/2013  01:27:00      -92.907      -71.899        5.315       53.484       35.004       24.587     2860.490     1225.246      604.515        0.926        0.235      117.478       24.377        0.043      335.754        6.598      869.630
10/06/2013  01:28:00     -119.797      -59.840       -3.167       38.270       26.778       20.818     1464.605      717.040      433.386        1.028        0.131      133.911       18.029        0.018      335.769        6.624      869.640
10/06/2013  01:29:00     -108.098      -74.658       -5.284       32.614       21.155       21.668     1063.683      447.546      469.493        0.963        0.099      131.373       14.958        0.013      335.746        6.585      869.640
10/06/2013  01:30:00     -122.152      -68.711       -9.993       46.304       31.912       19.257     2144.024     1018.356      370.814        1.164        0.177      140.151       11.565        0.007      335.731        6.561      869.638
10/06/2013  01:31:00     -119.337      -88.263        2.826       37.727       24.758       21.701     1423.319      612.941      470.952        1.227        0.125      148.431       21.657        0.021      335.754        6.599      869.638
10/06/2013  01:32:00     -130.973      -83.215       -3.128       30.994       23.380       19.562      960.606      546.633      382.668        1.299        0.094      155.173       16.276        0.011      335.730        6.560      869.649
10/06/2013  01:33:00      -80.777      -69.010        1.275       58.468       36.056       26.562     3418.489     1300.049      705.533        0.836        0.271      106.242       24.939        0.055      335.687        6.486      869.659
10/06/2013  01:34:00      -60.306      -53.229        2.438       54.067       33.964       31.776     2923.217     1153.562     1009.693        0.578        0.254       80.437       23.170        0.083      335.667        6.453      869.664
10/06/2013  01:35:00      -99.787      -79.848       -2.006       54.105       37.971       21.919     2927.305     1441.775      480.451        1.059        0.242      127.801       21.713        0.029      335.627        6.386      869.664
10/06/2013  01:36:00     -100.893      -83.841        0.294       46.674       39.116       24.035     2178.484     1530.055      577.683        1.075        0.214      131.183       23.806        0.033      335.588        6.322      869.668
10/06/2013  01:37:00     -138.271      -78.854       -7.291       33.682       30.463       20.958     1134.482      927.970      439.256        1.395        0.125      159.176       16.654        0.011      335.635        6.400      869.669
10/06/2013  01:38:00     -151.906      -77.880      -15.690       22.818       22.754       15.383      520.667      517.758      236.627        1.533        0.064      170.706       11.831        0.005      335.630        6.391      869.661
10/06/2013  01:39:00     -163.455      -86.341       -6.647       32.127       29.469       26.509     1032.163      868.447      702.738        1.841        0.130      184.858       21.298        0.013      335.658        6.439      869.662
10/06/2013  01:40:00     -153.246      -56.982       -8.454       39.761       34.612       24.697     1580.897     1197.998      609.941        1.510        0.169      163.498       22.965        0.020      335.708        6.522      869.660
10/06/2013  01:41:00     -129.897      -75.806      -11.026       34.081       24.208       17.594     1161.517      586.045      309.554        1.240        0.103      150.398        6.771        0.002      335.733        6.564      869.654
10/06/2013  01:42:00     -149.922      -69.958      -10.986       29.529       23.505       14.951      871.949      552.479      223.546        1.457        0.082      165.441        6.323        0.001      335.699        6.507      869.645
10/06/2013  01:43:00      -93.048      -74.825       -3.104       45.729       30.939       25.290     2091.156      957.223      639.600        0.898        0.184      119.401       25.099        0.044      335.689        6.490      869.629
10/06/2013  01:44:00     -107.167      -88.333       -7.821       39.155       30.750       24.581     1533.127      945.591      604.219        1.122        0.154      138.879       21.253        0.023      335.631        6.393      869.624
10/06/2013  01:45:00      -82.655      -76.810        6.769       50.124       40.705       24.343     2512.435     1656.916      592.558        0.877        0.238      112.835       19.440        0.030      335.573        6.298      869.605
10/06/2013  01:46:00      -74.875      -74.662        9.212       47.032       41.705       23.740     2212.024     1739.303      563.577        0.789        0.226      105.739       16.442        0.024      335.621        6.379      869.595
10/06/2013  01:47:00      -95.292      -89.618        1.861       54.732       42.966       21.862     2995.543     1846.119      477.967        1.122        0.266      130.813       23.961        0.034      335.539        6.240      869.590
10/06/2013  01:48:00      -94.415      -96.425        3.518       51.791       45.037       31.514     2682.289     2028.373      993.115        1.196        0.285      134.952       28.012        0.043      335.504        6.182      869.582
10/06/2013  01:49:00      -97.206      -72.454        8.958       64.205       44.785       35.068     4122.297     2005.679     1229.798        1.107        0.368      121.237       36.268        0.089      335.450        6.092      869.577
10/06/2013  01:50:00      -64.450      -64.747       10.904       56.953       49.161       30.853     3243.677     2416.757      951.925        0.754        0.331       91.357       27.573        0.091      335.443        6.079      869.585
10/06/2013  01:51:00      -69.302      -50.522        5.191       65.964       46.566       32.524     4351.221     2168.433     1057.817        0.748        0.379       85.763       32.999        0.148      335.475        6.133      869.587
10/06/2013  01:52:00     -137.704      -93.592        4.370       48.355       33.279       27.201     2338.180     1107.504      739.895        1.596        0.209      166.499       28.185        0.029      335.453        6.097      869.581
10/06/2013  01:53:00      -45.808      -50.951       14.524       57.132       35.319       26.810     3264.057     1247.413      718.789        0.507        0.262       68.515       27.177        0.157      335.399        6.006      869.578
10/06/2013  01:54:00      -84.352      -70.027       11.204       56.249       36.254       30.852     3164.000     1314.381      951.868        0.879        0.272      109.632       30.558        0.078      335.410        6.025      869.584
10/06/2013  01:55:00      -88.746      -64.102       10.555       65.897       44.763       28.849     4342.360     2003.721      832.268        0.964        0.359      109.476       32.184        0.086      335.401        6.009      869.587
10/06/2013  01:56:00     -114.256      -86.311        1.109       59.623       41.260       29.468     3554.926     1702.359      868.335        1.331        0.306      143.193       25.661        0.032      335.397        6.003      869.579
10/06/2013  01:57:00     -171.195      -96.235       -5.565       50.342       34.491       29.278     2534.286     1189.649      857.205        2.159        0.229      196.390       32.774        0.028      335.427        6.053      869.562
10/06/2013  01:58:00     -137.521     -101.282       -8.630       56.559       44.638       33.834     3198.948     1992.523     1144.749        1.779        0.317      170.793       29.370        0.030      335.494        6.166      869.554
10/06/2013  01:59:00     -145.508      -79.132        2.348       50.691       38.691       27.153     2569.627     1497.018      737.272        1.612        0.240      165.633       20.348        0.015      335.478        6.138      869.543
10/06/2013  02:00:00     -136.398      -61.575        7.967       60.506       42.154       30.089     3661.018     1776.979      905.371        1.440        0.317      149.653       32.816        0.048      335.511        6.194      869.531
10/06/2013  02:01:00      -77.655      -59.576        6.437       60.048       41.859       29.747     3605.777     1752.204      884.879        0.793        0.312       97.875       33.498        0.117      335.495        6.167      869.532
10/06/2013  02:02:00      -70.867      -48.169        3.159       43.373       28.294       22.544     1881.238      800.566      508.228        0.527        0.160       85.688       20.509        0.057      335.517        6.203      869.522
10/06/2013  02:03:00      -88.890      -71.925        2.643       39.031       27.933       24.063     1523.448      780.225      579.008        0.798        0.144      114.344       12.246        0.011      335.530        6.225      869.514
10/06/2013  02:04:00     -125.380      -69.709       -0.652       35.891       26.938       15.522     1288.175      725.673      240.927        1.142        0.113      143.456       12.327        0.007      335.518        6.205      869.509
10/06/2013  02:05:00      -84.730      -82.338        1.626       43.038       27.748       27.580     1852.274      769.962      760.684        0.867        0.169      118.147       22.961        0.038      335.417        6.035      869.521
10/06/2013  02:06:00     -102.941      -73.831        5.440       52.652       39.387       27.637     2772.209     1551.346      763.828        1.058        0.254      126.680       28.542        0.051      335.370        5.958      869.510
10/06/2013  02:07:00      -67.945      -59.429       12.756       64.471       52.459       30.320     4156.527     2751.920      919.309        0.807        0.391       90.268       37.982        0.177      335.355        5.932      869.509
10/06/2013  02:08:00     -117.898      -89.259        5.286       59.252       37.687       34.431     3510.844     1420.284     1185.525        1.400        0.306      147.875       31.324        0.045      335.312        5.860      869.504
10/06/2013  02:09:00     -115.114      -87.738       -0.238       59.866       36.615       27.413     3583.950     1340.641      751.447        1.331        0.284      144.739       27.239        0.035      335.368        5.956      869.498
10/06/2013  02:10:00     -128.875     -110.092        0.795       56.068       41.406       31.926     3143.596     1714.487     1019.257        1.730        0.294      169.496       32.229        0.036      335.270        5.792      869.490
10/06/2013  02:11:00     -116.402      -83.335       -6.304       55.112       43.480       28.910     3037.370     1890.534      835.794        1.315        0.288      143.158       27.377        0.037      335.275        5.800      869.477
10/06/2013  02:12:00     -120.836      -65.227        1.563       49.050       41.709       24.495     2405.887     1739.613      599.990        1.180        0.237      137.317       24.153        0.031      335.330        5.890      869.460
10/06/2013  02:13:00      -82.034      -57.103        1.577       48.516       44.536       23.713     2353.792     1983.432      562.303        0.745        0.245       99.951       25.497        0.065      335.339        5.907      869.456
10/06/2013  02:14:00      -94.671      -73.030        1.422       47.736       36.905       28.057     2278.692     1361.959      787.206        0.936        0.221      119.566       29.556        0.061      335.401        6.010      869.455
10/06/2013  02:15:00      -85.642      -65.370        2.829       35.826       31.676       20.115     1283.469     1003.372      404.614        0.715        0.135      107.740       17.969        0.028      335.355        5.932      869.454
10/06/2013  02:16:00      -53.301      -43.981        2.624       34.317       24.928       17.862     1177.656      621.423      319.041        0.345        0.106       69.104       15.177        0.048      335.371        5.959      869.448
10/06/2013  02:17:00      -38.613      -43.306        8.005       35.554       26.788       18.470     1264.091      717.575      341.124        0.288        0.116       58.020       14.611        0.063      335.352        5.928      869.447
10/06/2013  02:18:00      -60.859      -41.956        1.301       40.200       24.521       18.160     1616.078      601.281      329.803        0.401        0.127       73.920       21.061        0.081      335.265        5.783      869.443
10/06/2013  02:19:00      -97.756      -65.340        4.367       34.139       26.623       21.286     1165.440      708.801      453.109        0.809        0.116      117.582       19.214        0.027      335.241        5.744      869.436
10/06/2013  02:20:00      -70.133      -52.238        1.620       34.026       20.182       15.008     1157.747      407.306      225.245        0.472        0.090       87.450       13.819        0.025      335.219        5.706      869.423
10/06/2013  02:21:00      -54.051      -38.815       10.066       36.327       27.045       21.615     1319.651      731.447      467.195        0.352        0.126       66.545       19.610        0.087      335.217        5.703      869.421
10/06/2013  02:22:00      -54.756      -48.455        4.076       37.446       37.257       26.742     1402.166     1388.092      715.134        0.443        0.175       73.117       24.781        0.115      335.153        5.598      869.430
10/06/2013  02:23:00      -76.631      -63.193        3.229       43.427       33.275       24.057     1885.869     1107.257      578.716        0.672        0.179       99.326       20.096        0.041      335.186        5.652      869.413
10/06/2013  02:24:00      -90.968      -54.907       -0.945       49.378       23.751       18.098     2438.196      564.129      327.532        0.731        0.166      106.254       19.109        0.032      335.205        5.684      869.401
10/06/2013  02:25:00     -107.923      -74.409       -4.048       33.021       24.503       20.602     1090.403      600.394      424.440        0.966        0.106      131.089       19.164        0.021      335.185        5.651      869.398
10/06/2013  02:26:00      -82.915      -68.697        1.800       33.602       26.674       20.752     1129.085      711.521      430.651        0.693        0.114      107.676       18.821        0.031      335.177        5.636      869.384
10/06/2013  02:27:00      -86.202      -64.539       -0.940       37.749       25.832       18.698     1425.005      667.303      349.632        0.702        0.122      107.685       16.636        0.024      335.167        5.621      869.374
10/06/2013  02:28:00      -91.564      -72.025        5.323       38.910       35.933       24.540     1513.973     1291.212      602.230        0.850        0.170      116.497       24.295        0.043      335.194        5.667      869.361
10/06/2013  02:29:00      -84.043      -62.913        5.404       44.070       34.879       25.352     1942.128     1216.562      642.741        0.743        0.190      104.982       28.562        0.074      335.138        5.573      869.342
10/06/2013  02:30:00      -68.311      -60.097        4.210       41.613       33.063       26.369     1731.651     1093.165      695.312        0.591        0.176       90.984       18.998        0.044      335.082        5.482      869.323
10/06/2013  02:31:00      -64.449      -56.903        3.870       52.044       41.570       30.932     2708.605     1728.035      956.788        0.640        0.270       85.975       30.032        0.122      335.065        5.452      869.323
10/06/2013  02:32:00     -103.203      -87.298        1.019       66.264       57.995       34.530     4390.947     3363.468     1192.327        1.361        0.447      135.173       32.849        0.059      334.984        5.317      869.308
10/06/2013  02:33:00      -96.693      -92.595        0.672       50.529       45.507       28.862     2553.146     2070.848      832.989        1.169        0.273      133.879       23.854        0.032      335.038        5.409      869.292
10/06/2013  02:34:00     -130.427      -97.662       -3.590       42.069       36.299       26.218     1769.817     1317.644      687.405        1.517        0.189      162.939       21.496        0.017      335.007        5.356      869.278
10/06/2013  02:35:00     -117.160      -81.463        4.831       44.162       40.653       30.776     1950.285     1652.631      947.174        1.247        0.228      142.698       27.797        0.038      334.950        5.263      869.275
10/06/2013  02:36:00     -120.660      -85.256        2.969       43.807       33.101       24.912     1919.061     1095.679      620.590        1.274        0.182      147.741       24.334        0.027      334.989        5.326      869.259
10/06/2013  02:37:00     -123.202      -78.200       -7.045       35.360       22.628       18.130     1250.340      512.047      328.684        1.172        0.105      145.925       13.131        0.008      335.035        5.403      869.239
10/06/2013  02:38:00      -64.504      -45.446        8.742       56.237       31.320       24.527     3162.654      980.946      601.550        0.552        0.237       78.906       25.505        0.104      335.008        5.357      869.226
10/06/2013  02:39:00     -104.785      -75.333        9.578       54.071       47.496       29.959     2923.641     2255.875      897.557        1.141        0.304      129.054       28.875        0.050      335.009        5.358      869.211
10/06/2013  02:40:00      -60.374      -62.901       12.080       58.054       41.781       25.462     3370.215     1745.671      648.320        0.675        0.288       87.187       20.575        0.056      335.005        5.353      869.197
10/06/2013  02:41:00      -68.655      -40.521        7.295       56.651       43.339       31.531     3209.382     1878.271      994.196        0.624        0.304       79.722       30.188        0.143      335.029        5.392      869.189
10/06/2013  02:42:00      -97.693      -76.870        7.179       41.136       45.484       27.558     1692.183     2068.829      759.464        1.001        0.226      124.310       24.145        0.038      335.028        5.392      869.163
10/06/2013  02:43:00      -71.948      -56.332        6.138       48.061       38.322       29.415     2309.844     1468.598      865.268        0.651        0.232       91.378       25.807        0.080      334.988        5.324      869.151
10/06/2013  02:44:00      -58.014      -40.159        6.449       50.499       41.952       29.540     2550.172     1760.003      872.611        0.510        0.259       70.558       28.300        0.161      334.991        5.330      869.149
10/06/2013  02:45:00     -108.080      -81.522        0.786       47.286       33.663       23.151     2235.926     1133.191      535.967        1.112        0.195      135.378       21.382        0.025      335.008        5.359      869.145
10/06/2013  02:46:00      -74.138      -51.329       11.637       57.506       41.488       25.638     3306.950     1721.292      657.328        0.697        0.284       90.173       22.868        0.064      334.969        5.293      869.128
10/06/2013  02:47:00      -60.779      -63.443        1.408       59.150       59.620       29.721     3498.678     3554.526      883.353        0.783        0.397       87.858       26.120        0.088      334.988        5.325      869.128
10/06/2013  02:48:00      -61.591      -55.307       14.736       58.738       53.035       35.129     3450.194     2812.705     1234.036        0.728        0.375       82.779       35.244        0.181      334.913        5.199      869.122
10/06/2013  02:49:00      -84.475      -84.594        7.248       66.245       44.027       35.044     4388.368     1938.361     1228.107        1.095        0.378      119.550       34.487        0.083      334.848        5.092      869.110
10/06/2013  02:50:00     -130.691     -107.379       -0.870       64.203       46.229       31.104     4121.998     2137.153      967.440        1.792        0.361      169.146       33.478        0.039      334.928        5.221      869.100
10/06/2013  02:51:00      -88.928      -79.345       14.158       68.437       49.566       31.754     4683.666     2456.832     1008.311        1.127        0.407      119.179       36.770        0.095      334.877        5.139      869.093
10/06/2013  02:52:00     -121.497      -96.087        4.995       52.744       37.685       31.955     2781.949     1420.181     1021.114        1.462        0.261      154.901       27.853        0.032      334.908        5.191      869.089
10/06/2013  02:53:00      -85.638      -67.118        0.512       55.409       37.741       27.517     3070.155     1424.380      757.187        0.854        0.263      108.806       28.676        0.069      334.910        5.195      869.076
10/06/2013  02:54:00      -96.126      -75.102       -9.122       45.615       37.869       28.306     2080.761     1434.063      801.236        0.964        0.216      121.986       23.340        0.037      334.908        5.192      869.069
10/06/2013  02:55:00      -80.437      -66.465        5.962       68.789       55.433       32.498     4731.945     3072.786     1056.097        0.989        0.443      104.344       37.043        0.126      334.853        5.099      869.072
10/06/2013  02:56:00      -95.361      -73.898        6.525       65.684       46.900       34.417     4314.452     2199.584     1184.535        1.115        0.385      120.642       35.750        0.088      334.899        5.176      869.068
10/06/2013  02:57:00      -97.902      -81.049       -0.345       62.110       41.098       28.288     3857.622     1689.073      800.184        1.125        0.317      127.097       31.557        0.062      334.899        5.176      869.039
10/06/2013  02:58:00      -52.788      -45.348       13.299       52.055       42.584       30.739     2709.762     1813.377      944.910        0.524        0.273       69.592       31.681        0.207      334.852        5.096      869.033
10/06/2013  02:59:00      -51.520      -45.566        8.589       61.357       53.587       33.119     3764.714     2871.609     1096.860        0.627        0.387       68.779       32.757        0.227      334.897        5.174      869.011
10/06/2013  03:00:00      -47.608      -37.022        8.665       49.030       43.938       25.245     2403.969     1930.523      637.301        0.434        0.249       60.309       24.810        0.169      334.870        5.127      868.996
10/06/2013  03:01:00      -49.304      -38.569       12.369       44.526       24.802       20.664     1982.559      615.152      426.983        0.355        0.151       62.597       19.387        0.096      334.908        5.192      868.993
10/06/2013  03:02:00      -33.735      -22.590       11.489       34.979       26.837       22.133     1223.534      720.204      489.872        0.211        0.122       40.600       17.478        0.185      334.922        5.214      868.983
10/06/2013  03:03:00      -28.184      -36.849        8.712       35.552       31.002       19.932     1263.952      961.141      397.294        0.242        0.131       46.391       21.741        0.220      334.931        5.229      868.971
10/06/2013  03:04:00      -49.002      -51.812        6.826       47.139       34.796       24.087     2222.097     1210.776      580.199        0.457        0.201       71.314       23.876        0.112      334.908        5.191      868.970
10/06/2013  03:05:00      -86.112      -78.950       -1.052       52.395       30.437       29.457     2745.242      926.417      867.699        0.909        0.227      116.826       30.745        0.069      334.876        5.137      868.965
10/06/2013  03:06:00      -73.262      -51.330       10.452       64.788       40.752       28.111     4197.483     1660.688      790.229        0.738        0.332       89.455       35.324        0.156      334.821        5.047      868.950
10/06/2013  03:07:00     -102.924     -100.312        0.199       52.189       50.669       24.659     2723.726     2567.333      608.047        1.328        0.295      143.721       26.762        0.035      334.781        4.979      868.945
10/06/2013  03:08:00     -124.897     -124.726       -4.127       43.536       40.856       31.155     1895.371     1669.174      970.617        1.785        0.227      176.510       28.607        0.026      334.734        4.900      868.941
10/06/2013  03:09:00     -124.756      -84.773        1.160       49.520       39.040       25.726     2452.240     1524.127      661.802        1.369        0.232      150.832       26.811        0.032      334.744        4.917      868.934
10/06/2013  03:10:00     -126.016      -90.374        0.307       59.254       43.583       28.490     3511.003     1899.518      811.679        1.513        0.311      155.073       19.634        0.016      334.725        4.886      868.942
10/06/2013  03:11:00     -120.617     -102.097        1.619       45.963       44.222       29.731     2112.631     1955.564      883.905        1.496        0.248      158.026       25.771        0.027      334.712        4.864      868.946
10/06/2013  03:12:00     -142.993      -91.408      -11.416       40.002       50.523       33.070     1600.159     2552.596     1093.603        1.709        0.262      169.713       22.569        0.018      334.697        4.840      868.938
10/06/2013  03:13:00     -103.090      -83.829        3.287       62.840       56.224       35.911     3948.852     3161.113     1289.609        1.303        0.420      132.871       35.380        0.071      334.672        4.798      868.931
10/06/2013  03:14:00     -154.511     -100.403       -7.854       61.109       54.700       33.332     3734.252     2992.055     1111.045        2.093        0.392      184.268       30.785        0.028      334.641        4.745      868.918
10/06/2013  03:15:00     -152.774      -84.015      -11.224       45.917       34.983       25.742     2108.336     1223.826      662.671        1.726        0.200      174.352       25.749        0.022      334.649        4.760      868.918
10/06/2013  03:16:00     -131.397      -69.150       -3.336       40.051       38.681       25.140     1604.058     1496.201      632.011        1.289        0.187      148.482       24.402        0.027      334.666        4.788      868.911
10/06/2013  03:17:00     -103.891      -67.789       -1.462       45.490       34.564       29.957     2069.336     1194.686      897.437        0.978        0.208      124.051       29.719        0.057      334.678        4.809      868.903
10/06/2013  03:18:00      -80.527      -64.256        2.455       35.791       33.109       21.432     1281.001     1096.194      459.339        0.673        0.142      103.022       18.727        0.033      334.709        4.860      868.898
10/06/2013  03:19:00      -57.321      -57.565        4.771       38.046       27.972       18.496     1447.469      782.453      342.105        0.460        0.129       81.237       17.279        0.045      334.798        5.007      868.906
10/06/2013  03:20:00      -56.746      -48.754        3.821       50.182       36.882       24.636     2518.241     1360.269      606.954        0.505        0.224       74.814       26.506        0.126      334.736        4.904      868.911
10/06/2013  03:21:00      -48.556      -44.442        6.998       45.855       32.603       22.878     2102.702     1062.958      523.386        0.403        0.184       65.824       24.016        0.133      334.700        4.846      868.905
10/06/2013  03:22:00      -67.378      -50.782        5.199       38.046       35.701       20.643     1447.532     1274.563      426.124        0.515        0.157       84.372       20.871        0.061      334.724        4.886      868.896
10/06/2013  03:23:00      -34.410      -34.270        8.995       37.069       33.460       23.774     1374.116     1119.602      565.194        0.275        0.153       48.564       23.661        0.237      334.633        4.734      868.894
10/06/2013  03:24:00      -25.503      -35.678       12.677       49.952       39.046       27.196     2495.202     1524.591      739.624        0.342        0.238       43.855       27.699        0.399      334.669        4.793      868.894
10/06/2013  03:25:00      -86.599      -99.292        0.091       47.383       46.371       29.696     2245.118     2150.224      881.850        1.132        0.264      131.750       30.100        0.052      334.636        4.740      868.891
10/06/2013  03:26:00     -132.104     -131.489      -11.498       44.205       48.833       30.904     1954.124     2384.624      955.084        2.008        0.265      186.389       24.764        0.018      334.649        4.758      868.883
10/06/2013  03:27:00     -161.494     -154.755      -13.494       41.651       49.078       33.283     1734.786     2408.609     1107.732        2.773        0.263      223.673       27.982        0.016      334.570        4.625      868.879
10/06/2013  03:28:00     -169.303     -150.203      -16.438       58.664       51.759       32.398     3441.488     2679.035     1049.599        2.933        0.359      226.328       24.556        0.012      334.586        4.652      868.872
10/06/2013  03:29:00     -155.140     -114.430      -11.339       51.328       42.247       28.412     2634.597     1784.782      807.235        2.126        0.261      192.776       26.388        0.019      334.565        4.618      868.867
10/06/2013  03:30:00     -148.409     -126.268       -2.678       62.081       34.977       29.567     3854.000     1223.359      874.225        2.196        0.298      194.856       29.620        0.023      334.592        4.663      868.871
10/06/2013  03:31:00     -117.897      -98.906       -8.133       56.754       32.603       26.439     3221.070     1062.974      699.015        1.436        0.249      153.890       31.625        0.042      334.602        4.681      868.880
10/06/2013  03:32:00     -119.651      -86.084        0.083       53.553       32.948       29.801     2867.918     1085.573      888.111        1.328        0.242      147.400       27.667        0.035      334.625        4.719      868.893
10/06/2013  03:33:00     -145.070     -109.524       -5.865       41.395       36.394       24.874     1713.512     1324.501      618.695        1.837        0.183      181.771       23.273        0.016      334.629        4.726      868.889
10/06/2013  03:34:00     -131.128     -117.137       -1.107       52.110       37.951       26.287     2715.402     1440.276      691.011        1.788        0.242      175.829       19.791        0.013      334.569        4.626      868.877
10/06/2013  03:35:00     -171.336     -123.508      -14.160       43.612       46.450       29.657     1901.989     2157.586      879.512        2.487        0.247      211.212       23.249        0.012      334.536        4.569      868.864
10/06/2013  03:36:00     -154.022     -150.715       -7.590       46.167       37.108       27.335     2131.415     1377.003      747.224        2.537        0.213      215.494       28.066        0.017      334.555        4.601      868.854
10/06/2013  03:37:00     -137.117     -104.953        0.354       73.386       53.963       35.221     5385.481     2911.977     1240.539        1.968        0.477      172.674       39.791        0.053      334.539        4.575      868.845
10/06/2013  03:38:00     -167.479     -119.635       -0.561       44.412       70.809       32.918     1972.405     5013.969     1083.614        2.521        0.403      205.819       24.231        0.014      334.532        4.563      868.836
10/06/2013  03:39:00     -181.794     -123.260      -13.201       68.052       51.900       37.900     4631.082     2693.606     1436.388        2.859        0.438      219.641       32.660        0.022      334.485        4.484      868.832
10/06/2013  03:40:00     -192.567     -147.243       -7.314       84.028       62.574       45.448     7060.653     3915.563     2065.497        3.593        0.652      242.410       48.724        0.040      334.482        4.479      868.839
10/06/2013  03:41:00     -154.426     -115.892        2.851       70.551       56.348       33.391     4977.401     3175.104     1114.980        2.328        0.463      193.076       30.644        0.025      334.478        4.474      868.835
10/06/2013  03:42:00     -163.714     -117.857       -2.443       72.226       58.907       35.596     5216.560     3469.996     1267.075        2.532        0.498      201.724       38.283        0.036      334.497        4.505      868.827
10/06/2013  03:43:00     -186.727     -151.260       -0.477       69.901       51.789       42.412     4886.176     2682.113     1798.793        3.355        0.468      240.305       38.944        0.026      334.489        4.490      868.821
10/06/2013  03:44:00     -165.470     -127.574      -14.340       60.685       54.665       32.029     3682.680     2988.268     1025.842        2.578        0.385      208.939       33.415        0.026      334.516        4.536      868.822
10/06/2013  03:45:00     -140.399     -106.013        2.110       52.977       53.632       35.373     2806.591     2876.351     1251.234        1.894        0.347      175.928       30.893        0.031      334.505        4.518      868.816
10/06/2013  03:46:00     -173.075     -116.432       -6.077       60.463       51.903       36.901     3655.767     2693.896     1361.690        2.563        0.386      208.594       35.762        0.029      334.496        4.503      868.810
10/06/2013  03:47:00     -174.459     -105.116       -5.700       47.638       46.844       32.939     2269.348     2194.379     1084.984        2.353        0.277      203.679       27.717        0.019      334.501        4.511      868.815
10/06/2013  03:48:00     -133.679      -92.889        4.824       58.735       59.616       34.213     3449.764     3554.107     1170.537        1.735        0.409      162.784       35.047        0.046      334.484        4.485      868.809
10/06/2013  03:49:00     -165.857     -139.916       -5.727       65.618       50.313       34.262     4305.706     2531.375     1173.898        2.756        0.401      216.991       33.463        0.024      334.470        4.459      868.806
10/06/2013  03:50:00     -154.196     -102.668      -11.328       77.401       43.508       38.230     5990.972     1892.928     1461.518        2.189        0.467      185.249       38.734        0.044      334.481        4.479      868.823
10/06/2013  03:51:00     -169.575     -111.761       -3.881       79.961       62.920       39.650     6393.728     3958.868     1572.124        2.659        0.596      203.091       41.896        0.043      334.440        4.411      868.813
10/06/2013  03:52:00     -126.176      -89.395        1.570       60.885       50.465       33.215     3706.976     2546.753     1103.268        1.563        0.368      154.634       33.227        0.046      334.441        4.415      868.802
10/06/2013  03:53:00      -98.905      -94.399       -6.002       46.107       34.520       25.660     2125.846     1191.648      658.416        1.135        0.199      136.723       17.864        0.017      334.484        4.488      868.816
10/06/2013  03:54:00      -79.184      -80.677        9.690       50.536       41.544       30.743     2553.890     1725.883      945.155        0.905        0.261      113.043       30.691        0.074      334.465        4.456      868.812
10/06/2013  03:55:00      -92.853      -77.765       10.137       51.993       66.448       34.172     2703.303     4415.347     1167.724        1.153        0.414      121.116       30.832        0.065      334.460        4.447      868.808
10/06/2013  03:56:00     -180.601     -141.524      -13.397       58.757       41.789       38.791     3452.416     1746.322     1504.708        2.976        0.335      229.447       34.862        0.023      334.447        4.422      868.803
10/06/2013  03:57:00     -147.209     -108.849       -1.499       67.577       54.316       36.579     4566.687     2950.280     1338.032        2.119        0.443      183.081       37.372        0.042      334.405        4.354      868.814
10/06/2013  03:58:00     -126.965      -78.561       12.859       79.460       45.539       34.441     6313.971     2073.822     1186.201        1.601        0.479      149.304       36.642        0.060      334.428        4.393      868.811
10/06/2013  03:59:00     -162.564     -109.518      -12.073       63.798       48.139       30.243     4070.160     2317.330      914.647        2.293        0.365      196.013       20.039        0.010      334.473        4.466      868.812
10/06/2013  04:00:00     -131.911      -99.156       -0.793       76.103       47.208       39.057     5791.719     2228.556     1525.446        1.839        0.477      165.022       30.850        0.035      334.449        4.429      868.823
10/06/2013  04:01:00     -130.128     -131.330      -10.773       66.567       43.037       33.310     4431.129     1852.189     1109.583        2.084        0.370      184.880       25.696        0.019      334.453        4.432      868.822
10/06/2013  04:02:00     -144.873     -101.012       -9.924       35.741       39.635       27.105     1277.435     1570.905      734.698        1.744        0.179      176.612       21.442        0.015      334.444        4.420      868.813
10/06/2013  04:03:00     -116.452     -109.104       -3.956       52.884       48.512       27.329     2796.717     2353.374      746.861        1.569        0.295      159.577       19.590        0.015      334.399        4.345      868.811
10/06/2013  04:04:00     -136.578      -93.119       -7.678       45.162       46.464       28.599     2039.595     2158.945      817.896        1.620        0.251      165.302       23.155        0.020      334.385        4.322      868.805
10/06/2013  04:05:00     -126.387     -107.626        0.623       46.447       42.493       28.973     2157.308     1805.688      839.421        1.618        0.240      166.003       27.853        0.028      334.366        4.291      868.799
10/06/2013  04:06:00     -121.456      -81.365       -4.643       51.048       54.736       26.221     2605.862     2996.079      687.550        1.384        0.314      146.190       23.551        0.026      334.382        4.317      868.784
10/06/2013  04:07:00      -97.485      -56.782        4.818       42.601       35.951       20.730     1814.804     1292.482      429.717        0.814        0.177      112.816       14.202        0.016      334.429        4.397      868.765
10/06/2013  04:08:00      -98.718      -67.051       -6.006       26.833       20.608       15.827      719.990      424.669      250.498        0.784        0.070      119.335        8.289        0.005      334.390        4.332      868.753
10/06/2013  04:09:00      -82.457      -23.580        0.414       24.198       20.490       14.525      585.533      419.848      210.988        0.429        0.061       85.763       12.872        0.023      334.354        4.271      868.763
10/06/2013  04:10:00      -96.232      -36.176        1.353       34.327       24.677       15.282     1178.355      608.975      233.526        0.630        0.101      102.807       12.682        0.015      334.336        4.241      868.766
10/06/2013  04:11:00      -97.417      -27.290      -11.827       16.295       26.579       11.471      265.522      706.417      131.579        0.574        0.055      101.168        8.846        0.008      334.311        4.200      868.772
10/06/2013  04:12:00      -81.127      -45.801       -5.058       16.150       19.595       12.073      260.833      383.957      145.750        0.475        0.040       93.162        8.625        0.009      334.336        4.244      868.769
10/06/2013  04:13:00      -54.852      -44.659        0.446       32.747       24.567       18.702     1072.367      603.545      349.768        0.351        0.101       70.733       18.901        0.071      334.385        4.323      868.777
10/06/2013  04:14:00      -15.740      -16.348        5.042       37.728       21.779       19.139     1423.386      474.304      366.285        0.140        0.113       22.693       20.916        0.850      334.273        4.137      868.777
10/06/2013  04:15:00      -37.774      -20.191        6.897       28.929       21.644       16.292      836.902      468.471      265.429        0.173        0.079       42.832       13.850        0.105      334.252        4.102      868.763
10/06/2013  04:16:00      -72.771      -47.864        2.142       51.045       25.084       19.284     2605.613      629.201      371.869        0.560        0.180       87.101       17.604        0.041      334.282        4.153      868.754
10/06/2013  04:17:00      -39.209      -40.699       12.599       43.640       29.634       24.802     1904.411      878.152      615.160        0.337        0.170       56.513       26.410        0.218      334.273        4.138      868.756
10/06/2013  04:18:00      -60.569      -61.319        6.522       46.858       34.864       26.299     2195.645     1215.521      691.662        0.579        0.205       86.190       27.587        0.102      334.315        4.207      868.764
10/06/2013  04:19:00     -100.745      -96.277        0.913       41.482       39.391       28.040     1720.775     1551.631      786.240        1.174        0.203      139.352       21.207        0.023      334.285        4.156      868.769
10/06/2013  04:20:00     -157.674     -106.471       -5.959       52.252       66.610       29.489     2730.240     4436.927      869.593        2.213        0.402      190.255       30.314        0.025      334.271        4.132      868.764
10/06/2013  04:21:00     -113.370     -116.881       -0.319       45.685       51.165       29.442     2087.100     2617.853      866.830        1.604        0.279      162.831       26.047        0.026      334.289        4.163      868.753
10/06/2013  04:22:00      -58.967      -60.335        8.633       49.412       40.837       25.639     2441.535     1667.638      657.334        0.598        0.238       84.365       29.022        0.118      334.261        4.117      868.753
10/06/2013  04:23:00     -101.330     -102.638       -6.007       28.434       25.630       23.839      808.469      656.875      568.312        1.144        0.102      144.230       18.210        0.016      334.278        4.146      868.755
10/06/2013  04:24:00      -86.246      -88.409       -7.487       37.097       28.474       21.673     1376.224      810.758      469.724        0.898        0.133      123.509       19.499        0.025      334.281        4.150      868.770
10/06/2013  04:25:00      -79.093      -71.842        3.108       55.433       50.295       29.803     3072.859     2529.593      888.240        0.896        0.325      106.850       36.229        0.115      334.266        4.125      868.771
10/06/2013  04:26:00     -145.241     -126.911      -13.443       32.370       39.822       30.489     1047.798     1585.767      929.560        2.047        0.178      192.876       21.683        0.013      334.279        4.146      868.769
10/06/2013  04:27:00     -133.972     -118.149       -0.388       45.448       48.371       28.627     2065.544     2339.710      819.505        1.857        0.261      178.627       31.051        0.030      334.223        4.052      868.756
10/06/2013  04:28:00     -142.420     -123.886      -10.421       35.033       53.182       27.663     1227.341     2828.319      765.247        2.028        0.241      188.763       21.566        0.013      334.182        3.985      868.747
10/06/2013  04:29:00     -138.431      -96.087      -13.456       44.026       39.342       28.353     1938.267     1547.803      803.871        1.643        0.214      168.511       19.011        0.013      334.183        3.988      868.750
10/06/2013  04:30:00     -112.726      -74.047       -3.145       49.203       32.887       26.632     2420.950     1081.561      709.251        1.121        0.211      134.871       30.080        0.050      334.197        4.010      868.753
10/06/2013  04:31:00      -92.811      -63.798       -3.425       33.567       29.600       21.582     1126.776      876.165      465.794        0.758        0.123      112.623       17.992        0.026      334.236        4.075      868.746
10/06/2013  04:32:00     -128.784      -43.573      -14.145       23.054       34.550       17.490      531.506     1193.696      305.890        1.036        0.102      135.956        9.453        0.005      334.249        4.096      868.741
10/06/2013  04:33:00     -126.207      -53.685       -9.241       24.159       16.096       15.633      583.639      259.084      244.403        0.999        0.054      137.150       12.575        0.008      334.183        3.989      868.752
10/06/2013  04:34:00     -137.762      -60.892       -7.726       21.561       28.800       16.324      464.894      829.437      266.464        1.215        0.078      150.620        8.041        0.003      334.208        4.030      868.768
10/06/2013  04:35:00     -110.500      -26.377       -0.987       56.202       27.403       23.983     3158.677      750.945      575.171        0.869        0.224      113.605       28.154        0.061      334.170        3.966      868.765
10/06/2013  04:36:00     -111.642      -44.351       -1.140       33.968       32.847       22.172     1153.850     1078.910      491.620        0.858        0.136      120.129       17.308        0.021      334.168        3.962      868.760
10/06/2013  04:37:00      -84.389      -30.097       -4.403       39.496       23.887       16.563     1559.915      570.597      274.342        0.523        0.120       89.595       15.306        0.029      334.083        3.821      868.766
10/06/2013  04:38:00      -88.997      -24.958       -4.660       32.788       24.257       15.088     1075.051      588.421      227.634        0.523        0.095       92.431       11.430        0.015      334.027        3.729      868.776
10/06/2013  04:39:00      -75.932      -22.061       -1.871       34.701       26.275       18.706     1204.158      690.359      349.928        0.425        0.112       79.072       19.008        0.058      334.045        3.758      868.771
10/06/2013  04:40:00      -86.266      -22.650       -0.198       31.907       26.794       15.193     1018.053      717.892      230.815        0.496        0.098       89.190       12.740        0.020      334.031        3.735      868.764
10/06/2013  04:41:00      -79.836      -32.533        1.613       39.016       24.446       17.009     1522.228      597.590      289.312        0.492        0.120       86.210       18.243        0.045      334.032        3.738      868.763
10/06/2013  04:42:00      -75.971      -25.167        3.094       25.786       21.482       13.975      664.929      461.457      195.309        0.387        0.066       80.031        9.655        0.015      334.062        3.788      868.758
10/06/2013  04:43:00      -99.565      -56.941        0.964       25.792       27.819       15.889      665.212      773.902      252.476        0.742        0.085      114.697       10.200        0.008      334.131        3.902      868.763
10/06/2013  04:44:00      -79.883      -28.313        4.344       43.024       31.057       20.098     1851.040      964.555      403.924        0.521        0.161       84.752       22.612        0.071      334.045        3.759      868.762
10/06/2013  04:45:00      -99.819      -33.646        3.569       38.884       27.510       20.175     1511.992      756.826      407.046        0.689        0.134      105.337       19.627        0.035      334.059        3.784      868.749
10/06/2013  04:46:00     -112.174      -31.264       -6.162       25.022       20.842       15.799      626.104      434.377      249.617        0.745        0.066      116.450       13.095        0.013      334.053        3.772      868.739
10/06/2013  04:47:00      -93.403      -29.973        0.409       32.804       26.485       17.638     1076.071      701.440      311.099        0.586        0.104       98.094       15.843        0.026      333.978        3.647      868.722
10/06/2013  04:48:00     -103.254      -41.545        0.608       34.572       33.118       16.105     1195.225     1096.782      259.373        0.747        0.128      111.298       16.060        0.021      333.990        3.668      868.710
10/06/2013  04:49:00     -105.301      -31.636       -1.489       27.478       23.945       17.252      755.066      573.379      297.615        0.686        0.081      109.951       15.187        0.019      333.999        3.684      868.699
10/06/2013  04:50:00      -97.865      -37.627       -2.950       41.431       20.966       17.859     1716.535      439.566      318.956        0.674        0.124      104.850       19.677        0.035      334.042        3.753      868.681
10/06/2013  04:51:00      -82.489      -43.991        2.303       32.925       25.250       17.110     1084.071      637.580      292.749        0.538        0.101       93.486       17.822        0.036      334.023        3.723      868.657
10/06/2013  04:52:00      -59.249      -30.449        2.844       19.892       20.814       14.980      395.710      433.212      224.407        0.275        0.053       66.615        8.351        0.016      334.003        3.689      868.649
10/06/2013  04:53:00      -56.108       -0.918        0.741       26.852       15.854       10.264      721.052      251.339      105.353        0.211        0.054       56.115       10.694        0.036      333.979        3.650      868.639
10/06/2013  04:54:00      -56.534      -12.978       -3.768       17.602       12.028       12.393      309.834      144.684      153.586        0.199        0.030       58.005        9.964        0.030      333.986        3.660      868.641
10/06/2013  04:55:00      -25.909      -17.911       -2.992       18.389       10.127        8.087      338.148      102.556       65.392        0.075        0.025       31.497        3.523        0.013      334.049        3.766      868.635
10/06/2013  04:56:00      -49.222       -9.244       -0.268       20.358       11.256       10.085      414.430      126.701      101.702        0.158        0.032       50.083        3.144        0.004      334.077        3.812      868.637
10/06/2013  04:57:00      -66.384      -18.146       -5.448       12.691       11.573        7.801      161.058      133.943       60.860        0.256        0.018       68.819        6.075        0.008      334.129        3.898      868.618
10/06/2013  04:58:00      -79.684      -32.931       -3.613       17.177       12.859       12.175      295.060      165.365      148.220        0.403        0.030       86.220        8.549        0.010      334.079        3.815      868.605
10/06/2013  04:59:00      -60.398      -47.381       -1.541       30.931       23.292       17.638      956.708      542.534      311.114        0.385        0.091       76.765       14.174        0.034      334.016        3.711      868.596
10/06/2013  05:00:00      -56.933      -43.648       -0.020       30.497       16.189       14.098      930.095      262.092      198.749        0.327        0.070       71.739       12.344        0.030      334.045        3.758      868.596
10/06/2013  05:01:00      -22.715      -25.404        4.828       26.431       23.850       16.491      698.614      568.799      271.960        0.136        0.077       34.078       16.007        0.221      334.021        3.719      868.609
10/06/2013  05:02:00      -18.544      -42.619        4.875       21.721       30.098       15.567      471.786      905.874      242.327        0.190        0.081       46.478       16.613        0.128      334.070        3.802      868.618
10/06/2013  05:03:00      -57.679      -52.843        0.308       24.098       23.516       15.185      580.710      552.986      230.574        0.374        0.068       78.226       11.286        0.021      334.184        3.989      868.611
10/06/2013  05:04:00      -77.473      -87.054       -6.177       39.454       35.151       22.079     1556.594     1235.580      487.500        0.845        0.164      116.535       21.064        0.033      334.203        4.022      868.617
10/06/2013  05:05:00      -42.922      -61.271        2.343       51.444       56.937       33.059     2646.497     3241.840     1092.928        0.629        0.349       74.810       30.820        0.170      334.149        3.930      868.617
10/06/2013  05:06:00      -45.945      -37.514       16.695       55.848       50.668       34.556     3118.955     2567.233     1194.128        0.534        0.344       59.315       24.882        0.176      334.059        3.780      868.617
10/06/2013  05:07:00      -94.827      -59.403       -1.165       74.492       41.624       28.892     5549.043     1732.567      834.735        1.032        0.406      111.897       27.487        0.060      334.034        3.738      868.621
10/06/2013  05:08:00     -134.850      -85.811       -1.687       61.594       47.124       31.100     3793.803     2220.669      967.191        1.626        0.349      159.838       28.366        0.031      334.004        3.690      868.623
10/06/2013  05:09:00     -150.507     -121.440       -5.647       53.773       56.474       30.774     2891.514     3189.314      947.031        2.223        0.351      193.391       22.442        0.013      334.040        3.747      868.623
10/06/2013  05:10:00     -120.202     -129.658       -7.602       38.439       39.164       25.617     1477.570     1533.797      656.212        1.749        0.183      176.805       17.922        0.010      334.063        3.788      868.629
10/06/2013  05:11:00     -102.529      -84.263        3.320       56.941       70.508       29.239     3242.225     4971.356      854.898        1.334        0.453      132.712       28.252        0.045      334.042        3.753      868.626
10/06/2013  05:12:00      -89.427      -99.022        4.834       55.232       59.460       28.720     3050.627     3535.541      824.823        1.262        0.371      133.426       34.430        0.067      334.078        3.813      868.623
10/06/2013  05:13:00     -114.502      -81.653       -8.188       58.679       41.670       22.863     3443.275     1736.364      522.726        1.277        0.285      140.634       24.420        0.030      334.069        3.798      868.627
10/06/2013  05:14:00     -114.278     -100.760       -3.441       50.699       39.794       25.139     2570.365     1583.531      631.985        1.400        0.239      152.355       26.498        0.030      334.090        3.834      868.622
10/06/2013  05:15:00      -85.174      -70.286       -0.679       28.279       40.546       18.470      799.710     1643.991      341.133        0.749        0.139      110.429       13.251        0.014      334.074        3.807      868.624
10/06/2013  05:16:00      -81.693      -79.948       -5.876       39.491       26.831       20.570     1559.569      719.908      423.133        0.790        0.135      114.305       20.938        0.034      334.088        3.831      868.610
10/06/2013  05:17:00      -75.597      -85.776       -3.411       33.983       34.360       19.201     1154.830     1180.595      368.692        0.789        0.135      114.335       21.003        0.034      334.045        3.759      868.604
10/06/2013  05:18:00      -71.439      -57.689        2.923       49.973       37.227       19.426     2497.344     1385.824      377.357        0.635        0.213       91.824       20.068        0.048      334.030        3.733      868.601
10/06/2013  05:19:00      -89.009      -70.354       -1.116       41.081       43.746       25.498     1687.608     1913.721      650.129        0.856        0.213      113.456       27.818        0.060      333.997        3.679      868.604
10/06/2013  05:20:00      -86.049      -80.580       -8.595       55.669       38.489       23.861     3099.032     1481.408      569.331        0.956        0.257      117.888       26.453        0.050      333.971        3.637      868.610
10/06/2013  05:21:00      -82.888      -79.367       -7.762       48.970       31.258       20.923     2398.027      977.082      437.766        0.852        0.191      114.759       24.201        0.044      333.990        3.667      868.606
10/06/2013  05:22:00      -56.287      -48.330        7.451       38.187       28.943       25.184     1458.240      837.712      634.215        0.424        0.147       74.189       22.867        0.095      333.925        3.560      868.605
10/06/2013  05:23:00      -44.734      -40.102       16.943       45.139       31.897       26.040     2037.504     1017.411      678.103        0.381        0.187       60.077       28.640        0.227      333.939        3.583      868.610
10/06/2013  05:24:00      -49.846      -31.767       13.210       44.201       32.177       20.631     1953.707     1035.344      425.639        0.354        0.171       59.108       21.838        0.136      333.927        3.565      868.615
10/06/2013  05:25:00      -62.036      -42.593        3.742       37.432       28.312       22.022     1401.148      801.569      484.948        0.418        0.134       75.251       20.562        0.075      333.928        3.565      868.606
10/06/2013  05:26:00      -47.897      -38.271        7.286       47.420       24.316       21.451     2248.657      591.251      460.127        0.356        0.165       61.309       17.899        0.085      333.995        3.675      868.613
10/06/2013  05:27:00      -80.503      -71.390       -3.449       44.630       22.216       19.146     1991.807      493.557      366.572        0.722        0.143      107.598       21.701        0.041      334.004        3.691      868.625
10/06/2013  05:28:00      -29.767      -30.541        9.340       30.771       26.917       22.169      946.829      724.545      491.464        0.203        0.108       42.648       20.512        0.231      333.938        3.582      868.627
10/06/2013  05:29:00      -41.330      -46.440        7.170       51.814       35.807       23.277     2684.644     1282.118      541.816        0.421        0.225       62.168       27.302        0.193      333.867        3.464      868.620
10/06/2013  05:30:00      -69.976      -47.940        2.711       51.505       38.550       22.371     2652.810     1486.106      500.445        0.592        0.232       84.823       25.831        0.093      333.846        3.430      868.606
10/06/2013  05:31:00      -52.236      -41.965       -0.662       34.206       25.883       17.338     1170.018      669.905      300.592        0.331        0.107       67.005       14.100        0.044      333.866        3.463      868.608
10/06/2013  05:32:00      -59.068       -9.446        0.270       41.007       17.258       17.730     1681.605      297.824      314.363        0.294        0.115       59.818       22.290        0.139      333.809        3.366      868.601
10/06/2013  05:33:00      -85.567      -12.788      -10.105       17.546       18.116       13.104      307.855      328.177      171.709        0.420        0.040       86.518       11.692        0.018      333.758        3.283      868.594
10/06/2013  05:34:00      -71.062      -32.910        1.386       22.101       19.595       13.044      488.458      383.978      170.142        0.359        0.052       78.313       10.854        0.019      333.759        3.284      868.594
10/06/2013  05:35:00      -68.536      -23.648       -4.435       21.344       26.891       12.426      455.555      723.141      154.414        0.330        0.067       72.501       11.551        0.025      333.764        3.293      868.597
10/06/2013  05:36:00      -75.495      -16.752       -3.135       17.676       18.415       11.127      312.447      339.097      123.819        0.338        0.039       77.332        6.590        0.007      333.738        3.250      868.608
10/06/2013  05:37:00      -74.380      -28.611       -5.388       11.001        9.924        8.253      121.031       98.483       68.118        0.333        0.014       79.693        4.242        0.003      333.739        3.250      868.608
10/06/2013  05:38:00      -80.465      -34.546       -1.172       19.256       11.569       10.458      370.801      133.853      109.371        0.414        0.031       87.568       11.143        0.016      333.802        3.355      868.612
10/06/2013  05:39:00      -69.791      -41.537       -0.090       17.335       13.645       12.882      300.519      186.194      165.954        0.362        0.033       81.216        8.655        0.011      333.771        3.304      868.608
10/06/2013  05:40:00      -50.111      -28.542        3.717       28.102       23.994       13.820      789.695      575.734      191.005        0.245        0.078       57.669       13.317        0.053      333.751        3.270      868.617
10/06/2013  05:41:00      -27.069      -21.854        5.378       27.607       14.311       13.474      762.171      204.816      181.555        0.119        0.057       34.790       13.345        0.147      333.767        3.297      868.608
10/06/2013  05:42:00      -42.361      -27.025       -0.863       19.143       14.423       12.343      366.465      208.037      152.358        0.163        0.036       50.248       10.721        0.046      333.741        3.254      868.599
10/06/2013  05:43:00      -34.441      -32.627        3.185       29.894       21.415       19.210      893.666      458.591      369.027        0.199        0.086       47.441       13.568        0.082      333.751        3.270      868.591
10/06/2013  05:44:00      -59.143      -40.397       -5.568       20.310       12.514        9.706      412.476      156.597       94.199        0.291        0.033       71.623        7.192        0.010      333.827        3.398      868.590
10/06/2013  05:45:00      -37.533      -34.857        5.635       29.477       18.955       13.914      868.912      359.303      193.587        0.204        0.071       51.223       16.617        0.105      333.768        3.300      868.597
10/06/2013  05:46:00      -29.685      -26.581        6.225       29.206       20.746       14.373      853.004      430.407      206.593        0.156        0.075       39.847       17.136        0.185      333.762        3.290      868.607
10/06/2013  05:47:00      -47.566      -38.193       -4.205       23.625       14.939       12.952      558.162      223.165      167.765        0.234        0.047       61.002        9.249        0.023      333.776        3.313      868.610
10/06/2013  05:48:00      -46.512      -32.313       -5.798       23.847       17.026       15.850      568.695      289.882      251.217        0.218        0.055       56.634       11.395        0.040      333.764        3.293      868.608
10/06/2013  05:49:00      -39.557      -22.360        5.096       38.056       21.467       17.366     1448.229      460.848      301.579        0.215        0.111       45.440       18.751        0.170      333.648        3.101      868.605
10/06/2013  05:50:00      -73.612      -49.172       -1.804       27.315       18.999       19.440      746.122      360.957      377.924        0.466        0.074       88.525       16.922        0.037      333.728        3.233      868.599
10/06/2013  05:51:00      -81.060      -56.388       -2.586       29.596       18.869       13.592      875.935      356.042      184.740        0.559        0.071       98.744       11.225        0.013      333.779        3.318      868.585
10/06/2013  05:52:00      -28.019      -39.430        9.808       32.521       27.788       18.407     1057.644      772.198      338.820        0.230        0.108       48.371       15.276        0.100      333.793        3.340      868.590
10/06/2013  05:53:00      -69.994      -39.747        1.912       44.584       21.743       19.545     1987.773      472.745      382.015        0.466        0.142       80.492       23.957        0.089      333.692        3.174      868.589
10/06/2013  05:54:00     -116.174      -41.126       -6.004       14.063       14.489       10.168      197.762      209.917      103.382        0.787        0.026      123.238        6.844        0.003      333.768        3.298      868.588
10/06/2013  05:55:00      -79.099      -28.579       -1.184       22.087       23.765       14.611      487.858      564.774      213.494        0.417        0.063       84.104       11.718        0.019      333.695        3.178      868.583
10/06/2013  05:56:00      -85.731      -13.668       -8.585       21.475       16.037       10.362      461.166      257.194      107.378        0.422        0.041       86.814        7.492        0.007      333.701        3.188      868.579
10/06/2013  05:57:00      -91.950      -21.684       -7.654       24.836       17.198       12.195      616.839      295.768      148.712        0.502        0.053       94.472       11.128        0.014      333.700        3.188      868.580
10/06/2013  05:58:00      -87.077      -24.379       -5.066       24.301       18.466       14.708      590.559      340.992      216.330        0.467        0.057       90.425       14.576        0.026      333.611        3.040      868.581
10/06/2013  05:59:00      -94.483      -36.593       -2.967       23.245       18.672       14.808      540.344      348.647      219.284        0.569        0.055      101.322       12.253        0.015      333.631        3.072      868.588
10/06/2013  06:00:00      -83.791      -44.807        3.906       39.371       27.522       19.462     1550.037      757.484      378.780        0.586        0.134       95.019       19.395        0.042      333.615        3.047      868.606
10/06/2013  06:01:00     -118.332      -40.037       -0.690       22.149       17.979       10.681      490.573      323.256      114.087        0.827        0.046      124.921       10.908        0.008      333.596        3.014      868.617
10/06/2013  06:02:00     -127.283      -47.308       -1.154       17.153       18.621       10.868      294.224      346.745      118.119        0.960        0.038      135.790        8.052        0.004      333.590        3.003      868.618
10/06/2013  06:03:00     -113.720      -39.340        6.222       34.446       22.717       18.501     1186.542      516.062      342.270        0.828        0.102      120.332       20.798        0.030      333.618        3.050      868.616
10/06/2013  06:04:00     -117.954      -52.623        1.718       32.591       21.983       19.338     1062.178      483.253      373.964        0.930        0.096      129.160       18.755        0.021      333.574        2.977      868.609
10/06/2013  06:05:00      -89.859      -37.871        4.006       34.206       21.352       18.660     1170.024      455.917      348.186        0.575        0.099       97.513       17.788        0.033      333.542        2.925      868.601
10/06/2013  06:06:00     -107.161      -34.476       -5.413       19.397       18.610       13.512      376.262      346.314      182.579        0.680        0.045      112.570        8.637        0.006      333.617        3.048      868.595
10/06/2013  06:07:00      -94.588      -23.555        0.155       26.142       19.992       14.742      683.408      399.690      217.325        0.540        0.065       97.477       12.202        0.016      333.644        3.094      868.593
10/06/2013  06:08:00      -88.109      -17.420       -8.509       22.277       17.291       11.010      496.251      298.983      121.225        0.453        0.046       89.815        6.220        0.005      333.568        2.968      868.593
10/06/2013  06:09:00      -90.811      -20.795       -3.743       24.029       19.467       12.401      577.403      378.957      153.794        0.490        0.056       93.161       12.980        0.019      333.562        2.957      868.595
10/06/2013  06:10:00      -80.184      -48.321       -3.956       31.082       17.637        9.752      966.082      311.074       95.092        0.508        0.069       93.619       10.087        0.012      333.750        3.269      868.597
10/06/2013  06:11:00      -74.504      -45.228       -0.351       14.561       15.518       11.875      212.017      240.821      141.011        0.410        0.030       87.157        5.731        0.004      333.713        3.207      868.600
10/06/2013  06:12:00      -61.448      -30.238        3.410       27.534       17.686       14.517      758.142      312.782      210.741        0.299        0.064       68.485        8.846        0.017      333.579        2.986      868.600
10/06/2013  06:13:00      -28.828      -22.590        5.650       26.395       22.392       18.368      696.676      501.384      337.394        0.145        0.077       36.624       16.886        0.213      333.611        3.040      868.600
10/06/2013  06:14:00      -27.374      -19.149       12.868       42.927       20.410       19.634     1842.762      416.576      385.490        0.196        0.132       33.407       22.747        0.464      333.562        2.956      868.591
10/06/2013  06:15:00      -74.727      -41.315        0.200       23.305       19.359       15.566      543.131      374.760      242.286        0.423        0.058       85.388       13.235        0.024      333.580        2.988      868.574
10/06/2013  06:16:00      -43.078      -30.896        4.040       30.847       18.881       16.701      951.560      356.476      278.927        0.221        0.079       53.012       13.944        0.069      333.575        2.980      868.555
10/06/2013  06:17:00      -42.769      -25.660        3.505       34.912       16.557       15.631     1218.825      274.138      244.336        0.212        0.087       49.876       19.639        0.155      333.588        3.000      868.544
10/06/2013  06:18:00      -51.876      -55.222       -2.690       27.632       26.322       14.123      763.514      692.854      199.447        0.370        0.083       75.767        9.975        0.017      333.626        3.063      868.534
10/06/2013  06:19:00      -55.860      -46.345        3.717       28.795       15.855       17.302      829.131      251.386      299.358        0.333        0.069       72.582       10.246        0.020      333.632        3.074      868.534
10/06/2013  06:20:00      -47.562      -43.114        0.219       32.267       20.855       14.618     1041.145      434.921      213.684        0.291        0.084       64.195       13.821        0.046      333.650        3.104      868.530
10/06/2013  06:21:00      -63.998      -60.694       -0.962       29.773       30.550       17.900      886.448      933.305      320.402        0.496        0.107       88.202        9.555        0.012      333.633        3.075      868.531
10/06/2013  06:22:00      -82.765      -64.599       -2.841       38.742       19.774       16.226     1500.925      390.996      263.279        0.659        0.108      104.991       16.734        0.025      333.636        3.079      868.530
10/06/2013  06:23:00      -87.188      -51.106        3.054       34.919       22.337       17.938     1219.367      498.945      321.767        0.613        0.102      101.062       17.503        0.030      333.490        2.841      868.531
10/06/2013  06:24:00      -69.717      -45.810       -3.477       34.440       21.736       12.829     1186.115      472.433      164.594        0.440        0.091       83.421        8.496        0.010      333.477        2.817      868.534
10/06/2013  06:25:00      -53.343      -32.633        2.824       43.371       19.340       13.480     1881.036      374.019      181.714        0.318        0.122       62.533       13.171        0.044      333.504        2.860      868.538
10/06/2013  06:26:00      -80.138      -32.921        2.651       23.846       16.503       14.088      568.617      272.356      198.480        0.428        0.052       86.637       12.219        0.020      333.511        2.874      868.529
10/06/2013  06:27:00      -96.580      -38.357       -4.774       17.405       18.956       14.143      302.917      359.328      200.038        0.584        0.043      103.918        3.692        0.001      333.591        3.005      868.529
10/06/2013  06:28:00      -93.386      -40.001       -1.621       26.016       29.563       15.256      676.844      873.983      232.754        0.605        0.089      101.592       16.089        0.025      333.533        2.908      868.526
10/06/2013  06:29:00      -88.536      -42.729       -0.429       25.380       19.296       13.077      644.134      372.327      171.000        0.543        0.059       98.308        9.468        0.009      333.561        2.956      868.539
10/06/2013  06:30:00      -91.392      -34.777       -5.209       17.317       16.585       11.322      299.890      275.073      128.179        0.515        0.035       97.785        8.868        0.008      333.553        2.943      868.536
10/06/2013  06:31:00      -93.778      -24.403      -10.009       21.185       13.803        9.216      448.807      190.512       84.931        0.511        0.036       96.901        6.132        0.004      333.534        2.910      868.535
10/06/2013  06:32:00      -66.881       -9.863       -1.622       22.665       12.201       12.143      513.721      148.858      147.446        0.269        0.041       67.604       10.657        0.025      333.394        2.681      868.534
10/06/2013  06:33:00      -82.909      -24.118      -11.873       12.766       13.406       10.192      162.962      179.708      103.879        0.402        0.022       86.346        7.659        0.008      333.447        2.766      868.545
10/06/2013  06:34:00      -88.258      -40.197       -6.094       16.655       13.709       10.877      277.387      187.935      118.308        0.501        0.029       96.981        8.464        0.008      333.439        2.752      868.553
10/06/2013  06:35:00      -90.776      -14.281       -5.194       15.477       15.497       13.342      239.530      240.144      178.000        0.456        0.033       91.892        8.607        0.009      333.448        2.768      868.552
10/06/2013  06:36:00      -89.451      -22.689       -8.844       12.076       10.253        7.660      145.838      105.122       58.668        0.445        0.015       92.284        5.560        0.004      333.435        2.747      868.550
10/06/2013  06:37:00      -75.573      -21.057      -12.068       10.814       10.440        7.901      116.934      108.992       62.428        0.329        0.014       78.452        5.241        0.004      333.426        2.734      868.553
10/06/2013  06:38:00      -77.208      -27.548       -9.482        8.994        9.790        6.668       80.898       95.838       44.457        0.352        0.011       81.976        4.103        0.003      333.391        2.675      868.571
10/06/2013  06:39:00      -63.392      -35.473       -8.087       21.591       12.357        9.855      466.157      152.707       97.118        0.303        0.036       72.642        3.439        0.002      333.390        2.674      868.582
10/06/2013  06:40:00      -66.662      -41.879       -8.583       17.599       12.401       10.693      309.720      153.774      114.340        0.342        0.029       78.725        4.552        0.003      333.454        2.778      868.580
10/06/2013  06:41:00      -91.476      -41.661      -13.641        8.731       12.911       10.096       76.230      166.694      101.936        0.532        0.017      100.516        5.532        0.003      333.462        2.791      868.576
10/06/2013  06:42:00     -121.492      -29.374      -10.873       14.301       12.740        7.302      204.532      162.308       53.322        0.808        0.021      124.992        4.532        0.001      333.379        2.656      868.576
10/06/2013  06:43:00     -135.992      -33.053       -3.343       21.452       18.800       15.790      460.180      353.441      249.330        1.033        0.053      139.951       11.748        0.007      333.327        2.569      868.582
10/06/2013  06:44:00      -89.819      -34.683        2.673       37.051       29.758       20.352     1372.798      885.513      414.198        0.597        0.134       96.283       17.985        0.035      333.256        2.451      868.569
10/06/2013  06:45:00     -110.069      -38.279       -0.881       24.623       23.772       16.286      606.271      565.132      265.249        0.751        0.072      116.535       11.445        0.010      333.278        2.487      868.558
10/06/2013  06:46:00      -82.419      -32.747        0.259       31.154       32.240       16.078      970.547     1039.416      258.500        0.507        0.113       88.686       12.984        0.021      333.258        2.456      868.549
10/06/2013  06:47:00      -97.833      -45.954       -8.940       13.486       10.285       11.915      181.884      105.776      141.977        0.610        0.021      108.088        6.338        0.003      333.383        2.662      868.549
10/06/2013  06:48:00      -92.739      -34.311      -10.697       12.532       11.050        6.682      157.054      122.106       44.647        0.511        0.016       98.882        4.450        0.002      333.303        2.529      868.551
10/06/2013  06:49:00      -83.328      -28.479      -11.524       16.877       15.692        9.541      284.827      246.230       91.025        0.425        0.031       88.061        7.655        0.008      333.398        2.685      868.554
10/06/2013  06:50:00      -82.065      -55.600       -8.366       22.455       18.507       20.974      504.210      342.517      439.902        0.559        0.064       99.126       13.447        0.018      333.315        2.549      868.566
10/06/2013  06:51:00      -95.578      -68.668        0.114       28.905       19.219       14.930      835.514      369.378      222.899        0.764        0.071      117.688       13.429        0.013      333.225        2.401      868.576
10/06/2013  06:52:00      -96.948      -50.907       -0.636       18.112       19.236       17.262      328.052      370.008      297.971        0.649        0.050      109.501       12.704        0.013      333.146        2.271      868.572
10/06/2013  06:53:00      -83.653      -32.574       -2.153       21.290       14.107       11.498      453.261      199.010      132.201        0.442        0.039       89.772        7.903        0.008      333.187        2.339      868.571
10/06/2013  06:54:00      -70.791      -39.848       -9.954       10.637       12.638        8.270      113.145      159.715       68.401        0.352        0.017       81.236        3.774        0.002      333.230        2.408      868.571
10/06/2013  06:55:00      -90.290      -50.953       -9.716        9.779       13.935        9.147       95.624      194.177       83.664        0.561        0.019      103.675        5.292        0.003      333.281        2.492      868.581
10/06/2013  06:56:00      -96.323      -28.483       -5.559       21.193       17.932       13.205      449.128      321.566      174.378        0.553        0.047      100.446       14.020        0.019      333.294        2.516      868.587
10/06/2013  06:57:00     -111.090      -33.686       -8.113        9.523       16.246        8.243       90.696      263.918       67.953        0.698        0.021      116.085        5.736        0.002      333.352        2.611      868.583
10/06/2013  06:58:00     -107.781      -30.498       -6.589       19.692       17.397       13.043      387.765      302.658      170.131        0.673        0.043      112.013       10.823        0.009      333.344        2.596      868.575
10/06/2013  06:59:00     -130.998      -41.381       -7.271       18.692       21.109       11.142      349.376      445.594      124.140        0.992        0.046      137.379       10.707        0.006      333.315        2.549      868.566
10/06/2013  07:00:00     -117.633      -40.887       -6.708       12.293       18.050       10.014      151.107      325.819      100.288        0.807        0.029      124.536        6.573        0.003      333.321        2.559      868.561
10/06/2013  07:01:00     -104.987      -31.879       -6.950       18.203       17.399       14.599      331.357      302.711      213.122        0.647        0.042      109.720       10.148        0.009      333.319        2.557      868.563
10/06/2013  07:02:00      -99.012      -42.237       -2.916       19.856       14.010        8.587      394.247      196.286       73.733        0.613        0.033      107.645        9.082        0.007      333.314        2.548      868.570
10/06/2013  07:03:00      -98.416      -37.990       -8.731       11.717       11.307       10.025      137.299      127.843      100.497        0.579        0.018      105.494        7.982        0.006      333.296        2.518      868.562
10/06/2013  07:04:00      -88.325      -52.757       -7.311       14.893       15.157       14.320      221.809      229.746      205.062        0.565        0.033      102.882        9.355        0.008      333.316        2.550      868.562
10/06/2013  07:05:00      -91.396      -28.829      -19.144       14.500       10.345        7.142      210.238      107.021       51.008        0.496        0.018       95.835        4.659        0.002      333.290        2.507      868.561
10/06/2013  07:06:00      -72.891      -34.959       -6.038       14.429       16.687       11.824      208.192      278.458      139.804        0.360        0.031       80.841        4.921        0.004      333.305        2.532      868.565
10/06/2013  07:07:00      -47.646      -24.459       -5.141       10.243        8.048        7.402      104.916       64.765       54.792        0.156        0.011       53.557        3.829        0.005      333.270        2.474      868.569
10/06/2013  07:08:00      -58.309      -19.020      -10.370       10.653        9.634        6.522      113.488       92.821       42.533        0.206        0.012       61.333        4.117        0.005      333.264        2.463      868.563
10/06/2013  07:09:00      -73.804      -22.541      -11.615       14.728       13.332       10.682      216.916      177.731      114.108        0.330        0.025       77.169        9.235        0.014      333.308        2.536      868.549
10/06/2013  07:10:00      -88.223      -36.015      -18.145        9.744       12.047        9.055       94.951      145.123       81.999        0.487        0.016       95.291        4.040        0.002      333.299        2.523      868.535
10/06/2013  07:11:00      -83.760      -42.295      -14.021       10.097       10.122       10.286      101.959      102.459      105.800        0.466        0.016       93.833        3.454        0.001      333.308        2.539      868.528
10/06/2013  07:12:00      -98.652      -40.933      -16.373       14.067       10.653        6.286      197.868      113.495       39.513        0.601        0.018      106.806        3.665        0.001      333.285        2.499      868.522
10/06/2013  07:13:00     -109.213      -32.268      -12.390       12.757       13.879        7.362      162.748      192.616       54.201        0.677        0.020      113.880        6.841        0.004      333.260        2.457      868.522
10/06/2013  07:14:00      -89.364      -16.468      -12.606       12.280       10.205       10.664      150.796      104.141      113.714        0.439        0.018       90.869        7.558        0.007      333.302        2.528      868.520
10/06/2013  07:15:00      -77.552      -30.451       -4.397       12.814       17.433       10.697      164.194      303.897      114.417        0.377        0.029       83.316        8.489        0.010      333.339        2.587      868.519
10/06/2013  07:16:00      -76.297      -24.684       -8.043       13.274       13.966       10.973      176.210      195.044      120.416        0.349        0.025       80.191        6.846        0.007      333.378        2.653      868.516
10/06/2013  07:17:00     -100.231      -22.425      -13.945       10.922       11.716        9.680      119.287      137.261       93.709        0.555        0.018      102.710        3.134        0.001      333.375        2.648      868.518
10/06/2013  07:18:00      -91.311      -21.644       -5.997       11.555       13.422        9.909      133.525      180.156       98.185        0.463        0.021       93.841        6.351        0.005      333.409        2.705      868.519
10/06/2013  07:19:00      -81.852      -27.421      -10.264       11.708       12.019        9.006      137.081      144.467       81.100        0.396        0.018       86.323        5.471        0.004      333.491        2.841      868.519
10/06/2013  07:20:00      -71.750      -28.903       -7.178       12.159       10.509        8.067      147.849      110.431       65.075        0.318        0.016       77.352        3.655        0.002      333.574        2.978      868.513
10/06/2013  07:21:00      -75.574      -16.005       -7.642        8.746       11.778        6.225       76.490      138.715       38.752        0.314        0.013       77.250        1.543        0.000      333.582        2.991      868.509
10/06/2013  07:22:00      -81.441      -20.985       -9.895        7.185        6.753        5.731       51.630       45.598       32.845        0.365        0.007       84.101        3.254        0.001      333.567        2.964      868.505
10/06/2013  07:23:00      -85.915      -31.293      -10.737        9.498        8.427        7.920       90.218       71.006       62.724        0.435        0.011       91.437        4.950        0.003      333.561        2.955      868.496
10/06/2013  07:24:00      -84.973      -13.525      -10.150       10.498       14.600        9.809      110.203      213.164       96.222        0.396        0.021       86.042        5.631        0.004      333.606        3.030      868.492
10/06/2013  07:25:00      -81.311      -11.732      -12.551       12.930       12.939        8.811      167.184      167.422       77.642        0.366        0.021       82.153        7.988        0.009      333.649        3.102      868.493
10/06/2013  07:26:00      -81.941      -13.823       -8.346       15.521       11.374        9.474      240.896      129.362       89.763        0.372        0.023       83.099        4.728        0.003      333.615        3.044      868.502
10/06/2013  07:27:00      -77.896      -17.714       -7.913       17.026       12.530       10.681      289.895      157.012      114.082        0.350        0.028       79.885        7.854        0.010      333.632        3.073      868.497
10/06/2013  07:28:00      -85.426      -11.923       -4.531       20.505       13.723        9.987      420.449      188.331       99.738        0.408        0.035       86.254       10.527        0.015      333.603        3.027      868.495
10/06/2013  07:29:00      -80.246      -28.169       -8.939        9.949        9.293        6.669       98.977       86.355       44.470        0.377        0.011       85.047        4.718        0.003      333.620        3.052      868.496
10/06/2013  07:30:00      -81.044      -34.312       -4.615        9.994       10.033        5.930       99.887      100.669       35.167        0.400        0.012       88.008        3.557        0.002      333.613        3.042      868.490
10/06/2013  07:31:00      -90.128      -26.593      -12.622        8.098        7.698        6.259       65.578       59.263       39.170        0.458        0.008       93.969        3.923        0.002      333.607        3.033      868.487
10/06/2013  07:32:00      -84.962      -30.809       -8.124        9.699       13.748        7.610       94.070      189.005       57.906        0.429        0.017       90.375        5.530        0.004      333.626        3.065      868.500
10/06/2013  07:33:00      -82.598      -28.530       -2.782        9.365       10.339        7.011       87.705      106.902       49.148        0.394        0.012       87.386        3.103        0.001      333.668        3.133      868.505
10/06/2013  07:34:00      -74.512      -24.892       -4.244       11.480       12.735        9.617      131.798      162.191       92.482        0.329        0.019       78.560        3.861        0.002      333.721        3.221      868.516
10/06/2013  07:35:00      -67.140      -24.809       -5.165       13.077       15.592        7.878      170.995      243.112       62.062        0.281        0.024       71.577        5.104        0.005      333.726        3.229      868.516
10/06/2013  07:36:00      -66.045      -11.380       -0.224        9.940       10.660       10.445       98.798      113.627      109.107        0.241        0.016       67.019        7.600        0.013      333.699        3.185      868.525
10/06/2013  07:37:00      -58.757      -33.143       -7.524       18.021       13.975       10.165      324.745      195.292      103.334        0.262        0.031       67.460       10.477        0.024      333.783        3.324      868.522
10/06/2013  07:38:00      -74.435      -22.182       -6.055       11.797       11.680        9.166      139.158      136.418       84.023        0.321        0.018       77.669        4.730        0.004      333.712        3.207      868.525
10/06/2013  07:39:00      -70.977      -15.487       -4.771       15.110       11.861        9.238      228.321      140.684       85.335        0.288        0.023       72.646        6.247        0.007      333.751        3.270      868.513
10/06/2013  07:40:00      -65.989      -18.865       -5.883       14.368       12.509        8.621      206.438      156.477       74.320        0.259        0.022       68.633        6.341        0.009      333.795        3.345      868.523
10/06/2013  07:41:00      -61.409      -26.099       -5.495       11.949        7.159        5.637      142.776       51.254       31.777        0.235        0.011       66.725        4.258        0.004      333.878        3.483      868.516
10/06/2013  07:42:00      -76.678      -27.324      -10.698        8.013        6.235        4.823       64.204       38.869       23.259        0.343        0.006       81.400        3.446        0.002      333.870        3.470      868.527
10/06/2013  07:43:00      -63.226      -19.447       -7.032        7.577        7.842        5.846       57.417       61.500       34.171        0.229        0.008       66.149        3.245        0.002      333.916        3.547      868.534
10/06/2013  07:44:00      -55.923      -24.245       -7.193        7.548        7.098        6.241       56.978       50.383       38.953        0.196        0.007       60.953        3.740        0.004      333.965        3.628      868.552
10/06/2013  07:45:00      -57.279      -24.618       -6.116        9.122        8.555        6.323       83.214       73.188       39.976        0.206        0.010       62.345        1.997        0.001      333.959        3.617      868.557
10/06/2013  07:46:00      -53.827      -18.407       -4.804        7.137        6.096        3.816       50.941       37.156       14.558        0.168        0.005       56.887        2.965        0.003      333.994        3.674      868.557
10/06/2013  07:47:00      -49.433      -12.543       -4.273        4.424        4.376        3.952       19.572       19.152       15.616        0.134        0.003       51.000        1.891        0.001      334.051        3.770      868.556
10/06/2013  07:48:00      -47.924       -5.740       -5.248        9.293        6.558        4.572       86.362       43.010       20.908        0.125        0.008       48.266        3.598        0.006      334.123        3.888      868.557
10/06/2013  07:49:00      -45.320      -16.428       -4.792        8.830        8.644        6.701       77.971       74.722       44.901        0.127        0.010       48.205        5.731        0.014      334.150        3.933      868.567
10/06/2013  07:50:00      -40.327      -10.120       -4.973        6.650        7.768        5.918       44.217       60.337       35.020        0.095        0.007       41.577        1.514        0.001      334.143        3.923      868.577
10/06/2013  07:51:00      -28.773       -2.305       -1.712        4.661        5.616        3.462       21.728       31.541       11.986        0.045        0.003       28.865        1.926        0.004      334.199        4.014      868.586
10/06/2013  07:52:00      -23.085       -2.598       -4.830        3.745        3.701        3.085       14.024       13.700        9.515        0.030        0.002       23.230        1.619        0.005      334.274        4.140      868.586
10/06/2013  07:53:00      -17.699       -1.482       -0.679        4.256        5.857        4.828       18.113       34.300       23.307        0.020        0.004       17.761        2.704        0.023      334.380        4.314      868.595
10/06/2013  07:54:00      -24.703        1.504        1.199        3.558        3.078        4.550       12.659        9.472       20.705        0.033        0.002       24.748        1.759        0.005      334.370        4.299      868.586
10/06/2013  07:55:00      -18.134        2.567        4.269        4.110        5.394        5.677       16.896       29.091       32.230        0.022        0.004       18.315        4.341        0.056      334.474        4.471      868.581
10/06/2013  07:56:00      -14.273        7.111        5.787        9.907        6.274        9.676       98.143       39.364       93.629        0.026        0.012       15.946        7.558        0.225      334.721        4.881      868.580
10/06/2013  07:57:00      -25.585        3.837       -2.962        4.935        6.252        4.992       24.359       39.083       24.916        0.038        0.004       25.871        1.832        0.005      334.411        4.368      868.581
10/06/2013  07:58:00      -13.737       -2.808       -0.495        8.324        6.034        6.827       69.295       36.409       46.614        0.017        0.008       14.022        5.268        0.141      334.701        4.848      868.569
10/06/2013  07:59:00        5.705       13.673       15.181       11.689       10.899        6.886      136.643      118.786       47.417        0.038        0.015       14.815        5.885        0.158      334.990        5.326      868.560
10/06/2013  08:00:00       13.155       14.549       17.821       11.156       10.312        7.821      124.461      106.336       61.163        0.050        0.015       19.614        6.470        0.109      334.941        5.246      868.556
10/06/2013  08:01:00       18.168       27.505       11.123       10.392        8.681       10.176      107.991       75.360      103.556        0.075        0.014       32.964        6.875        0.043      334.724        4.885      868.566
10/06/2013  08:02:00        7.139        9.665       21.553        9.790       11.015        5.879       95.853      121.339       34.568        0.043        0.013       12.016        5.627        0.219      335.126        5.554      868.565
10/06/2013  08:03:00       -0.535       27.891       29.104       10.103       17.402       10.056      102.078      302.838      101.129        0.107        0.025       27.896        5.234        0.035      335.171        5.626      868.574
10/06/2013  08:04:00       -6.456       18.129       27.184        9.649       13.909       10.036       93.111      193.473      100.730        0.075        0.019       19.244        4.073        0.045      335.302        5.844      868.580
10/06/2013  08:05:00       -6.104        2.314       26.140        6.926       13.884        8.081       47.973      192.753       65.300        0.052        0.015        6.528        8.672        1.765      335.575        6.300      868.579
10/06/2013  08:06:00        3.036        3.550       21.649        9.945        8.913       11.639       98.906       79.439      135.459        0.040        0.016        4.671        8.162        3.053      335.449        6.089      868.585
10/06/2013  08:07:00       -0.824       -0.221       26.992        6.440        7.775        5.984       41.470       60.455       35.804        0.043        0.007        0.853        4.423       26.868      335.689        6.489      868.587
10/06/2013  08:08:00       12.154       19.073       28.511       12.619       16.151        8.098      159.232      260.858       65.575        0.090        0.024       22.617        6.679        0.087      335.103        5.515      868.594
10/06/2013  08:09:00        2.118       11.520       16.621       17.210       15.260       11.110      296.175      232.857      123.441        0.053        0.033       11.713        9.093        0.603      335.216        5.704      868.604
10/06/2013  08:10:00       -1.547       10.711       18.349        6.705       12.323        9.928       44.953      151.856       98.568        0.037        0.015       10.823        4.004        0.137      335.483        6.148      868.619
10/06/2013  08:11:00       15.658       16.688        0.756       10.522       18.042       11.150      110.710      325.512      124.319        0.054        0.028       22.884        6.460        0.080      335.037        5.406      868.633
10/06/2013  08:12:00       19.142        8.414       -4.403       15.991        9.533        9.141      255.699       90.871       83.557        0.044        0.022       20.910        4.325        0.043      335.136        5.570      868.639
10/06/2013  08:13:00        2.123       -6.977       15.131       10.884       18.264       11.665      118.457      333.581      136.067        0.044        0.029        7.293        9.450        1.679      335.444        6.082      868.649
10/06/2013  08:14:00        1.115       13.987       28.626        8.649       12.934        7.379       74.812      167.286       54.445        0.066        0.015       14.031        6.167        0.193      335.628        6.388      868.650
10/06/2013  08:15:00       -8.289       -2.418       10.829       13.650        9.469       12.681      186.323       89.663      160.808        0.031        0.022        8.635        9.798        1.288      335.524        6.214      868.655
10/06/2013  08:16:00      -21.614      -14.508       -0.959       13.331        9.015        5.722      177.728       81.275       32.742        0.049        0.015       26.031        5.558        0.046      334.954        5.267      868.668
10/06/2013  08:17:00       -4.670       -2.065       10.812       11.934        7.610       12.986      142.414       57.916      168.645        0.026        0.018        5.106        8.609        2.843      335.455        6.101      868.683
10/06/2013  08:18:00      -30.776       -7.395       -5.638        6.311        6.131        5.807       39.833       37.589       33.726        0.057        0.006       31.652        3.307        0.011      335.002        5.348      868.685
10/06/2013  08:19:00      -29.972       -4.233       -2.381        8.188        4.705        4.347       67.047       22.137       18.896        0.051        0.005       30.269        2.082        0.005      335.006        5.355      868.682
10/06/2013  08:20:00      -33.254      -15.195        0.799       18.012       12.731        7.950      324.414      162.081       63.203        0.094        0.027       36.561        9.986        0.075      335.227        5.720      868.676
10/06/2013  08:21:00      -40.011      -16.757       -8.938        6.595        6.287        6.951       43.499       39.531       48.321        0.105        0.007       43.378        4.100        0.009      335.091        5.496      868.680
10/06/2013  08:22:00      -35.559      -13.135       -4.726       12.069       14.455       11.407      145.652      208.934      130.114        0.097        0.024       37.907        6.934        0.033      335.116        5.537      868.678
10/06/2013  08:23:00       -5.779       -9.279       -0.748        7.295        4.787        5.546       53.211       22.919       30.761        0.011        0.005       10.931        3.847        0.124      335.270        5.793      868.678
10/06/2013  08:24:00      -20.756      -15.231       -3.279        6.327        5.813        5.989       40.029       33.794       35.862        0.039        0.005       25.745        4.865        0.036      335.184        5.650      868.678
10/06/2013  08:25:00      -40.237       -7.099       -4.855       11.383       10.240        5.562      129.581      104.863       30.935        0.098        0.013       40.859        4.321        0.011      335.157        5.603      868.685
10/06/2013  08:26:00      -38.376        9.672       -9.315       13.611       14.234        7.974      185.250      202.600       63.577        0.105        0.023       39.576        4.300        0.012      335.207        5.686      868.679
10/06/2013  08:27:00      -32.648       18.202        5.655       24.288       12.361       15.821      589.886      152.801      250.315        0.121        0.050       37.379       15.877        0.180      335.592        6.329      868.666
10/06/2013  08:28:00        7.603       35.498        7.563       14.019       29.094       17.385      196.542      846.454      302.250        0.136        0.067       36.303       18.579        0.262      335.960        6.942      868.659
10/06/2013  08:29:00        6.700       20.897        1.361       25.874       20.744       19.758      669.471      430.334      390.379        0.099        0.075       21.945       18.268        0.693      335.830        6.725      868.662
10/06/2013  08:30:00       38.748       14.277       24.743       20.791       15.479       20.929      432.247      239.596      438.017        0.171        0.055       41.294        8.056        0.038      335.787        6.653      868.661
10/06/2013  08:31:00       -2.408       23.016        4.044       18.294       23.210       20.833      334.663      538.688      434.021        0.093        0.065       23.142       16.526        0.510      335.826        6.717      868.662
10/06/2013  08:32:00      -17.440       25.824       -0.458       23.138       22.156       16.274      535.352      490.883      264.844        0.113        0.065       31.161       13.251        0.181      335.694        6.498      868.673
10/06/2013  08:33:00      -53.030       18.772      -11.251       12.413       10.453        9.488      154.074      109.255       90.016        0.182        0.018       56.254        5.263        0.009      335.269        5.790      868.688
10/06/2013  08:34:00      -35.890        6.680       -9.116       15.803        9.799        6.930      249.739       96.021       48.022        0.090        0.020       36.506        3.978        0.012      335.368        5.953      868.694
10/06/2013  08:35:00      -34.462       20.076       -6.617       19.601       20.552       13.939      384.200      422.371      194.296        0.132        0.050       39.883       10.956        0.075      335.585        6.316      868.697
10/06/2013  08:36:00      -42.866       -0.991       -8.819       11.438       12.298        6.170      130.839      151.243       38.074        0.112        0.016       42.877        4.697        0.012      335.430        6.056      868.694
10/06/2013  08:37:00       -8.689       -8.918       -5.007        9.311        6.197        4.997       86.693       38.405       24.966        0.017        0.008       12.451        2.696        0.047      335.824        6.716      868.691
10/06/2013  08:38:00      -14.083        0.911       -5.435       11.470        6.820       10.219      131.563       46.515      104.427        0.026        0.014       14.112        7.333        0.270      335.904        6.849      868.681
10/06/2013  08:39:00      -40.438      -10.927       -7.578        6.644        6.494        8.952       44.146       42.172       80.139        0.099        0.008       41.888        5.645        0.018      335.617        6.372      868.671
10/06/2013  08:40:00      -48.799       -6.296        2.829        7.657        8.820        7.649       58.623       77.791       58.509        0.131        0.010       49.203        5.139        0.011      335.594        6.332      868.677
10/06/2013  08:41:00      -51.276       -7.202       -4.588       18.427       17.555       11.003      339.558      308.177      121.064        0.174        0.038       51.780       10.375        0.040      335.632        6.394      868.685
10/06/2013  08:42:00      -68.130      -17.732       -9.584       14.158       13.248       11.941      200.437      175.511      142.577        0.278        0.026       70.399        7.317        0.011      335.610        6.358      868.691
10/06/2013  08:43:00      -42.896      -27.814       -4.373       18.648       15.244        7.997      347.735      232.370       63.944        0.164        0.032       51.124        8.106        0.025      335.720        6.544      868.693
10/06/2013  08:44:00      -19.475      -20.238        1.609       16.989       15.888       13.491      288.615      252.430      182.009        0.076        0.036       28.087        8.144        0.084      335.804        6.682      868.679
10/06/2013  08:45:00      -13.575      -12.339        0.862       17.170       19.744       13.570      294.822      389.839      184.146        0.060        0.043       18.345       13.917        0.576      336.098        7.174      868.673
10/06/2013  08:46:00      -25.923      -39.645       -7.718       11.322       16.350       11.962      128.179      267.328      143.093        0.142        0.027       47.368        8.040        0.029      335.820        6.710      868.679
10/06/2013  08:47:00       -4.249      -25.384       11.858       16.309       28.678       19.373      265.990      822.411      375.308        0.113        0.073       25.738       18.059        0.492      336.178        7.305      868.684
10/06/2013  08:48:00      -30.061       32.025       -4.285       19.523       14.275       18.706      381.153      203.772      349.900        0.144        0.047       43.923       11.269        0.066      336.159        7.274      868.659
10/06/2013  08:49:00      -35.636       20.606      -12.143       14.689       13.507        9.570      215.757      182.436       91.582        0.117        0.024       41.164        6.359        0.024      335.987        6.988      868.636
10/06/2013  08:50:00      -36.455        3.842       -9.216       14.794       14.145       17.187      218.873      200.092      295.403        0.107        0.036       36.657        9.529        0.068      336.261        7.444      868.633
10/06/2013  08:51:00      -59.315      -13.984       -5.380       19.912       23.085       15.556      396.496      532.936      242.000        0.246        0.059       60.941       10.575        0.030      336.046        7.084      868.634
10/06/2013  08:52:00      -38.257       -4.416       -2.818        8.394        7.212        6.999       70.467       52.012       48.980        0.083        0.009       38.511        4.995        0.017      336.040        7.074      868.619
10/06/2013  08:53:00      -44.387      -10.132        0.257       18.717       12.906        8.684      350.326      166.573       75.416        0.133        0.030       45.529        8.835        0.038      336.069        7.123      868.615
10/06/2013  08:54:00      -79.826      -25.365       -5.104       17.037       15.847       10.919      290.245      251.140      119.220        0.385        0.033       83.759       10.457        0.016      336.066        7.119      868.628
10/06/2013  08:55:00      -71.949      -24.404       -5.522       13.415       15.116        7.373      179.958      228.496       54.364        0.313        0.023       75.975        5.688        0.006      336.116        7.203      868.635
10/06/2013  08:56:00      -37.298       -4.655       -7.484       13.408       11.426        6.804      179.782      130.549       46.296        0.091        0.018       37.588        4.467        0.014      336.215        7.368      868.631
10/06/2013  08:57:00        2.000        7.700        6.883       11.215       14.381       18.711      125.780      206.809      350.114        0.040        0.034        7.955       13.288        2.790      336.984        8.654      868.612
10/06/2013  08:58:00        3.795        0.255       16.908       13.835       17.352       15.750      191.402      301.080      248.068        0.052        0.037        3.804        8.965        5.555      337.109        8.862      868.604
10/06/2013  08:59:00      -16.784        5.963       18.902       12.591       19.874       17.288      158.540      394.991      298.887        0.076        0.043       17.812       15.765        0.783      336.890        8.495      868.612
10/06/2013  09:00:00      -34.644        8.024       -0.855        9.398       11.336       12.144       88.329      128.494      147.478        0.081        0.018       35.561        5.006        0.020      336.520        7.878      868.620
10/06/2013  09:01:00      -25.067        4.063        0.933       14.494       14.326       10.314      210.069      205.238      106.388        0.058        0.026       25.394        7.479        0.087      336.551        7.930      868.609
10/06/2013  09:02:00      -22.269       -3.405       12.157        9.894       12.402       10.930       97.896      153.814      119.466        0.051        0.019       22.528        8.335        0.137      336.787        8.324      868.602
10/06/2013  09:03:00      -38.221        1.401       -6.627       14.930       10.190        7.680      222.901      103.844       58.989        0.095        0.019       38.247        7.474        0.038      336.429        7.724      868.614
10/06/2013  09:04:00      -42.817       15.424       -4.715       13.849       14.550       12.054      191.803      211.709      145.288        0.132        0.027       45.511        6.093        0.018      336.540        7.910      868.627
10/06/2013  09:05:00      -52.749       13.556       -9.007       14.961       19.651       11.089      223.831      386.177      122.972        0.189        0.037       54.463        8.660        0.025      336.520        7.878      868.620
10/06/2013  09:06:00      -65.634       13.062       -6.078       15.896       10.035        9.818      252.693      100.699       96.400        0.248        0.022       66.921        7.418        0.012      336.416        7.703      868.608
10/06/2013  09:07:00      -36.478        9.005       -7.920       10.895       10.616       10.415      118.699      112.707      108.467        0.091        0.017       37.573        2.763        0.005      336.637        8.074      868.607
10/06/2013  09:08:00      -31.396      -21.885       -4.272       22.749       19.343       12.373      517.524      374.145      153.081        0.126        0.052       38.270        6.278        0.027      336.667        8.123      868.616
10/06/2013  09:09:00      -29.343      -55.544        2.388       25.992       25.311       15.299      675.568      640.624      234.061        0.275        0.078       62.819       11.400        0.033      336.643        8.084      868.627
10/06/2013  09:10:00      -40.016      -48.338        2.642       30.718       34.184       13.118      943.576     1168.517      172.077        0.311        0.114       62.752       13.444        0.046      336.711        8.196      868.646
10/06/2013  09:11:00      -49.807      -75.751       -5.544       20.842       35.104       17.299      434.399     1232.302      299.263        0.511        0.098       90.658       18.875        0.043      336.615        8.037      868.644
10/06/2013  09:12:00      -40.734      -42.371       -4.356       22.015       18.381       17.396      484.676      337.878      302.618        0.230        0.056       58.776       14.486        0.061      336.699        8.177      868.648
10/06/2013  09:13:00      -61.082      -40.157        0.764       34.403       24.071       19.153     1183.595      579.423      366.841        0.374        0.106       73.100       21.229        0.084      336.734        8.235      868.660
10/06/2013  09:14:00      -63.433      -11.750        0.121       27.854       17.660       11.245      775.862      311.888      126.452        0.269        0.061       64.512        4.304        0.004      336.697        8.173      868.670
10/06/2013  09:15:00      -60.709        8.272        8.374       38.191       26.545       22.006     1458.552      704.663      484.249        0.324        0.132       61.270       19.427        0.101      336.886        8.490      868.663
10/06/2013  09:16:00      -61.448       13.780       -3.937       18.926       15.756       13.667      358.193      248.261      186.795        0.239        0.040       62.974       11.457        0.033      336.854        8.436      868.651
10/06/2013  09:17:00      -36.944       -2.475        1.712       19.665       21.859       13.845      386.693      477.803      191.683        0.121        0.053       37.027       10.073        0.074      336.921        8.549      868.647
10/06/2013  09:18:00      -43.090      -24.297        1.248       38.940       25.172       22.907     1516.360      633.608      524.739        0.256        0.134       49.468       19.853        0.161      337.085        8.821      868.659
10/06/2013  09:19:00      -14.650      -11.596       10.935       31.215       19.408       15.210      974.377      376.666      231.355        0.103        0.079       18.684       13.249        0.503      337.121        8.882      868.663
10/06/2013  09:20:00      -42.832       -3.738       -1.704       16.057       21.737       13.207      257.824      472.517      174.436        0.138        0.045       42.994       10.695        0.062      336.927        8.557      868.663
10/06/2013  09:21:00      -52.729        1.473        1.152       23.026       20.578       14.428      530.187      423.449      208.155        0.197        0.058       52.749       13.304        0.064      336.970        8.628      868.648
10/06/2013  09:22:00      -27.400       12.732       -2.554       18.054       18.429       15.488      325.945      339.632      239.867        0.091        0.045       30.213       10.849        0.129      337.231        9.066      868.639
10/06/2013  09:23:00       19.765       25.425       52.896       42.052       20.623       24.364     1768.358      425.322      593.627        0.331        0.139       32.204        9.209        0.082      337.712        9.872      868.642
10/06/2013  09:24:00       56.680       33.123       32.529       27.797       24.439       28.291      772.691      597.244      800.371        0.377        0.109       65.649       16.591        0.064      337.226        9.056      868.650
10/06/2013  09:25:00       30.149       36.404       39.266       24.754       26.867       28.679      612.781      721.858      822.492        0.297        0.108       47.268       19.852        0.176      337.570        9.633      868.655
10/06/2013  09:26:00       82.450       56.989       41.247       34.183       30.929       35.842     1168.478      956.619     1284.675        0.758        0.170      100.228       20.644        0.042      337.264        9.121      868.657
10/06/2013  09:27:00       78.524       60.636       29.157       16.913       13.980       21.532      286.043      195.438      463.616        0.582        0.047       99.210        9.105        0.008      337.096        8.839      868.663
10/06/2013  09:28:00       48.789       57.396       52.526       29.487       24.313       28.953      869.477      591.144      838.282        0.537        0.115       75.330       17.919        0.057      337.501        9.518      868.671
10/06/2013  09:29:00       83.083       54.420       18.574       24.376       24.501       26.621      594.166      600.293      708.686        0.606        0.095       99.319       10.458        0.011      337.326        9.225      868.663
10/06/2013  09:30:00       48.666       20.181        1.035       29.425       36.053       24.842      865.815     1299.838      617.130        0.278        0.139       52.684       18.827        0.128      337.768        9.965      868.656
10/06/2013  09:31:00       23.242       41.551       -7.528       22.982       22.517       36.388      528.178      506.997     1324.122        0.234        0.118       47.610       22.539        0.224      337.544        9.590      868.648
10/06/2013  09:32:00        1.719       53.678        6.702       47.729       26.597       28.164     2278.084      707.425      793.190        0.335        0.189       53.705       34.169        0.405      337.635        9.741      868.643
10/06/2013  09:33:00       58.594       15.723       -4.454       38.482       31.094       32.788     1480.888      966.861     1075.072        0.361        0.176       60.667       11.092        0.033      337.574        9.642      868.623
10/06/2013  09:34:00       31.982       20.284       -4.340       27.309       36.306       29.690      745.765     1318.142      881.468        0.220        0.147       37.872       24.265        0.410      337.825       10.060      868.606
10/06/2013  09:35:00       15.343       54.131       14.668       22.242       29.671       31.322      494.693      880.393      981.052        0.287        0.118       56.263       22.796        0.164      338.123       10.562      868.589
10/06/2013  09:36:00      -33.556       45.690      -12.065       18.275       23.548       22.103      333.973      554.521      488.558        0.237        0.069       56.689       14.262        0.063      337.603        9.688      868.594
10/06/2013  09:37:00       -6.128       12.411       30.329       18.844       11.944       12.058      355.105      142.671      145.399        0.088        0.032       13.842        5.031        0.132      338.436       11.087      868.611
10/06/2013  09:38:00       -9.553       10.163       33.058       21.687       15.023        9.506      470.341      225.690       90.359        0.104        0.039       13.948        7.904        0.321      338.501       11.196      868.604
10/06/2013  09:39:00       13.897       36.074       27.269       29.030       32.114       21.883      842.765     1031.340      478.856        0.230        0.118       38.658       21.948        0.322      338.552       11.282      868.579
10/06/2013  09:40:00       12.086       17.101       41.028       23.033       27.367       14.996      530.500      748.960      224.883        0.181        0.075       20.941       12.494        0.356      338.814       11.722      868.562
10/06/2013  09:41:00       16.285       20.082       47.195       24.521       21.963       13.008      601.276      482.375      169.219        0.207        0.063       25.855       10.485        0.164      338.756       11.623      868.560
10/06/2013  09:42:00       -1.271       22.695       46.734       16.094       24.451       15.735      259.016      597.841      247.600        0.190        0.055       22.731       12.306        0.293      339.027       12.079      868.552
10/06/2013  09:43:00      -13.130        1.204       17.770       15.224       26.959       20.289      231.763      726.762      411.647        0.093        0.069       13.185        5.765        0.191      338.701       11.530      868.550
10/06/2013  09:44:00       -4.381       75.715        5.007       24.910       36.763       27.084      620.494     1351.505      733.534        0.424        0.135       75.842       24.559        0.105      338.462       11.131      868.559
10/06/2013  09:45:00       -1.822       68.780        1.235       21.676       25.534       23.530      469.855      651.964      553.675        0.321        0.084       68.804       16.181        0.055      338.649       11.445      868.569
10/06/2013  09:46:00       -5.243       46.592        8.443       25.636       32.826       22.864      657.216     1077.544      522.748        0.226        0.113       46.886       22.454        0.229      338.778       11.660      868.570
10/06/2013  09:47:00       27.752       32.320       18.307       28.829       34.964       28.102      831.084     1222.501      789.737        0.250        0.142       42.600       22.178        0.271      338.793       11.686      868.566
10/06/2013  09:48:00       31.142       66.650       -4.779       30.843       46.434       21.664      951.296     2156.158      469.320        0.451        0.179       73.567       20.150        0.075      338.421       11.060      868.566
10/06/2013  09:49:00        4.952       74.569        9.316       28.499       46.116       32.268      812.191     2126.679     1041.235        0.483        0.199       74.733       28.930        0.150      338.632       11.415      868.550
10/06/2013  09:50:00        5.336       68.755        4.895       35.717       33.023       30.059     1275.729     1090.496      903.560        0.402        0.163       68.962       24.221        0.123      338.612       11.382      868.535
10/06/2013  09:51:00       -4.896       26.404       11.119       18.715       27.967       25.221      350.263      782.154      636.118        0.131        0.088       26.854       21.407        0.635      339.044       12.110      868.542
10/06/2013  09:52:00        3.182       55.261        3.394       29.477       34.901       22.849      868.882     1218.110      522.073        0.284        0.130       55.352       17.327        0.098      338.908       11.881      868.551
10/06/2013  09:53:00        0.773       52.883       -3.360       29.837       41.103       31.285      890.224     1689.456      978.773        0.318        0.178       52.888       23.898        0.204      338.990       12.017      868.544
10/06/2013  09:54:00       62.937       65.873       38.841       59.277       36.932       41.866     3513.745     1363.979     1752.761        0.822        0.332       91.106       44.091        0.234      338.885       11.842      868.521
10/06/2013  09:55:00       15.345       13.859       37.452       29.464       45.064       32.233      868.116     2030.804     1038.935        0.288        0.197       20.678       30.726        2.208      339.138       12.267      868.524
10/06/2013  09:56:00        7.272       -8.685       52.950       29.602       66.202       27.700      876.289     4382.712      767.295        0.448        0.301       11.327       26.240        5.366      338.879       11.831      868.538
10/06/2013  09:57:00       28.968       20.134       51.178       33.942       40.276       28.565     1152.066     1622.143      815.963        0.373        0.180       35.278       25.491        0.522      338.862       11.801      868.545
10/06/2013  09:58:00       18.434       20.147       46.314       41.163       29.788       27.836     1694.380      887.335      774.857        0.312        0.168       27.308       25.507        0.872      339.150       12.288      868.532
10/06/2013  09:59:00       96.677       63.320       23.758       44.445       41.372       39.017     1975.389     1711.628     1522.354        0.956        0.260      115.567       20.677        0.032      338.549       11.276      868.511
10/06/2013  10:00:00       61.634       53.926       49.842       68.048       64.240       55.858     4630.481     4126.799     3120.076        1.053        0.594       81.894       51.260        0.392      338.589       11.341      868.500
10/06/2013  10:01:00       41.977      -46.980       18.471       31.355       35.146       36.074      983.115     1235.262     1301.354        0.391        0.176       63.002       12.262        0.038      338.549       11.277      868.513
10/06/2013  10:02:00       54.665       72.418       47.712       49.135       33.665       42.259     2414.203     1133.305     1785.803        0.792        0.267       90.734       34.784        0.147      338.709       11.545      868.512
10/06/2013  10:03:00       28.438       61.904       55.727       38.375       37.467       43.233     1472.615     1403.743     1869.126        0.624        0.237       68.124       25.959        0.145      338.952       11.953      868.493
10/06/2013  10:04:00       62.356       66.438       43.724       65.076       40.978       45.545     4234.899     1679.167     2074.338        0.910        0.399       91.117       44.618        0.240      338.663       11.468      868.472
10/06/2013  10:05:00       38.222       39.735       29.085       46.040       40.715       38.217     2119.650     1657.715     1460.569        0.456        0.262       55.135       34.587        0.394      338.939       11.931      868.466
10/06/2013  10:06:00       75.076      108.201      104.756       64.940       54.977       31.418     4217.207     3022.522      987.113        1.827        0.411      131.696       21.728        0.027      338.550       11.278      868.460
10/06/2013  10:07:00       83.234       22.793       14.366       44.758       41.957       53.280     2003.305     1760.420     2838.735        0.713        0.330       86.299       30.522        0.125      338.362       10.962      868.468
10/06/2013  10:08:00       75.748       56.418       30.631       37.237       27.926       37.594     1386.613      779.862     1413.288        0.672        0.179       94.450       26.787        0.080      338.524       11.234      868.478
10/06/2013  10:09:00       37.085       21.601        5.220       20.883       28.505       27.982      436.080      812.559      782.992        0.195        0.102       42.917       20.405        0.226      338.469       11.142      868.485
10/06/2013  10:10:00       -4.239      -12.135       10.543       10.435       19.785       20.618      108.882      391.434      425.093        0.060        0.046       12.854       13.351        1.079      339.073       12.156      868.473
10/06/2013  10:11:00       -2.546        5.395       11.416       33.975       41.191       26.994     1154.272     1696.717      728.701        0.187        0.179        5.966       16.961        8.083      339.114       12.225      868.453
10/06/2013  10:12:00       54.142       60.033       67.884       57.645       51.117       45.846     3322.908     2612.899     2101.841        0.959        0.402       80.841       37.111        0.211      339.227       12.417      868.448
10/06/2013  10:13:00       29.175       -0.299       63.819       47.758       49.366       34.405     2280.840     2436.976     1183.697        0.541        0.295       29.176       30.154        1.068      339.230       12.421      868.452
10/06/2013  10:14:00       79.295       77.057       65.323       78.291       56.813       55.361     6129.543     3227.772     3064.855        1.445        0.621      110.569       54.618        0.244      338.898       11.864      868.460
10/06/2013  10:15:00       16.078       35.609       57.947       44.648       47.099       25.801     1993.480     2218.282      665.702        0.488        0.244       39.070       20.922        0.287      339.478       12.840      868.436
10/06/2013  10:16:00       39.715       22.896       70.117       50.551       56.381       37.537     2555.402     3178.838     1408.996        0.708        0.357       45.843       16.044        0.122      339.399       12.705      868.414
10/06/2013  10:17:00       24.714      -56.348       30.344       38.087       57.633       35.636     1450.646     3321.507     1269.905        0.537        0.302       61.530       35.044        0.324      339.153       12.291      868.414
10/06/2013  10:18:00       51.377       34.150       15.418       47.466       34.914       34.806     2253.016     1218.982     1211.475        0.436        0.234       61.691       29.303        0.226      339.181       12.338      868.403
10/06/2013  10:19:00       83.600       75.245       14.698       45.570       36.409       34.272     2076.650     1325.643     1174.596        0.872        0.229      112.476       12.312        0.012      338.962       11.970      868.400
10/06/2013  10:20:00       86.587      101.162        1.718       63.090       36.399       37.430     3980.385     1324.924     1401.010        1.222        0.335      133.158       23.931        0.032      338.751       11.617      868.398
10/06/2013  10:21:00       58.246       55.578       41.695       39.308       39.875       36.917     1545.150     1590.029     1362.833        0.636        0.225       80.508       22.231        0.076      339.345       12.616      868.387
10/06/2013  10:22:00      144.291       93.317       15.793       58.437       43.038       39.669     3414.851     1852.238     1573.663        1.831        0.342      171.837       24.109        0.020      338.835       11.756      868.374
10/06/2013  10:23:00      101.910       88.827       31.382       52.767       29.906       32.576     2784.380      894.383     1061.198        1.200        0.237      135.188       15.502        0.013      339.028       12.081      868.364
10/06/2013  10:24:00       30.391       26.681       17.972       43.227       34.867       27.497     1868.583     1215.730      756.102        0.290        0.192       40.441       14.625        0.131      339.605       13.053      868.354
10/06/2013  10:25:00       65.191       42.786       31.559       46.485       42.212       34.256     2160.878     1781.870     1173.471        0.610        0.256       77.978       25.220        0.105      339.456       12.802      868.364
10/06/2013  10:26:00        1.887        0.958       48.118       37.021       40.128       24.907     1370.559     1610.229      620.369        0.296        0.180        2.116       26.056      151.620      339.699       13.213      868.363
10/06/2013  10:27:00       -4.374       -2.525       26.452       16.411       35.321       36.365      269.322     1247.539     1322.441        0.178        0.142        5.050       28.691       32.274      339.685       13.188      868.334
10/06/2013  10:28:00      -20.778        4.978       29.379       20.875       24.840       18.315      435.747      617.003      335.455        0.135        0.069       21.366       14.944        0.489      339.761       13.317      868.310
10/06/2013  10:29:00       25.354       36.495       40.470       63.948       42.043       31.608     4089.316     1767.627      999.094        0.523        0.343       44.438       16.258        0.134      339.960       13.652      868.286
10/06/2013  10:30:00      142.563       94.325       14.709       48.493       38.809       43.187     2351.590     1506.116     1865.101        1.758        0.286      170.943       26.733        0.024      338.981       12.001      868.287
10/06/2013  10:31:00       86.583       87.961      -18.614       40.315       40.511       25.518     1625.291     1641.110      651.149        0.975        0.196      123.425        8.862        0.005      339.012       12.054      868.296
10/06/2013  10:32:00       26.351       48.884        5.163       24.897       36.384       29.961      619.872     1323.774      897.650        0.298        0.142       55.533       14.154        0.065      339.307       12.551      868.299
10/06/2013  10:33:00       11.686       79.167       -5.120       32.077       39.501       26.600     1028.964     1560.316      707.557        0.486        0.165       80.025       21.052        0.069      339.396       12.701      868.300
10/06/2013  10:34:00       13.070       17.154       14.876       26.526       19.323       17.377      703.607      373.392      301.973        0.103        0.069       21.566        2.125        0.010      339.894       13.540      868.284
10/06/2013  10:35:00       36.180       19.097        7.723       24.606       27.937       20.864      605.436      780.484      435.299        0.178        0.091       40.910       15.273        0.139      339.414       12.732      868.263
10/06/2013  10:36:00       12.705       26.167        8.529       44.662       23.955       18.673     1994.729      573.857      348.675        0.192        0.146       29.088       17.112        0.346      339.383       12.678      868.256
10/06/2013  10:37:00       79.254       39.783       35.380       33.194       28.718       40.878     1101.838      824.722     1671.023        0.636        0.180       88.678       22.172        0.063      339.371       12.659      868.252
10/06/2013  10:38:00       34.797       23.210        0.174       15.690       12.753       17.355      246.175      162.628      301.195        0.123        0.035       41.828       11.519        0.076      339.016       12.062      868.252
10/06/2013  10:39:00       26.295       39.586       14.554       35.876       20.918       17.628     1287.082      437.564      310.760        0.225        0.102       47.524        4.063        0.007      339.349       12.622      868.240
10/06/2013  10:40:00       14.040        8.031      -12.917       18.910       27.762       14.856      357.594      770.725      220.708        0.089        0.067       16.175       10.447        0.417      339.229       12.419      868.223
10/06/2013  10:41:00       34.649       28.237        5.222       34.155       34.012       23.651     1166.564     1156.821      559.378        0.245        0.144       44.698       16.136        0.130      339.622       13.082      868.198
10/06/2013  10:42:00       56.674       62.509       -0.429       51.258       47.287       31.956     2627.376     2236.103     1021.184        0.650        0.294       84.376       23.150        0.075      339.777       13.343      868.189
10/06/2013  10:43:00       94.802       75.579      -10.961       28.835       20.097       25.884      831.480      403.906      669.967        0.836        0.095      121.242        6.982        0.003      339.240       12.438      868.207
10/06/2013  10:44:00       60.339       44.534       -4.811       31.271       23.732       20.544      977.870      563.206      422.066        0.380        0.098       74.994       12.540        0.028      339.208       12.384      868.227
10/06/2013  10:45:00       64.360       50.035        5.475       53.643       38.170       31.566     2877.567     1456.916      996.432        0.600        0.267       81.522       23.731        0.085      339.470       12.825      868.224
10/06/2013  10:46:00       73.422       73.549       -8.356       34.096       34.100       31.647     1162.569     1162.813     1001.541        0.710        0.166      103.924       23.772        0.052      339.544       12.950      868.216
10/06/2013  10:47:00       80.841       32.993       12.324       26.818       25.968       26.673      719.185      674.317      711.454        0.494        0.105       87.314       14.535        0.028      339.472       12.828      868.201
10/06/2013  10:48:00       62.315       37.753       -0.571       24.572       20.395       19.785      603.788      415.955      391.466        0.336        0.071       72.859        9.659        0.018      339.402       12.711      868.189
10/06/2013  10:49:00       25.441       32.060        6.311       44.635       30.151       29.486     1992.307      909.074      869.441        0.274        0.189       40.928       18.730        0.209      339.941       13.621      868.175
10/06/2013  10:50:00       13.829       29.728       45.265       46.967       45.597       38.778     2205.923     2079.103     1503.766        0.446        0.289       32.787       29.986        0.836      340.454       14.487      868.158
10/06/2013  10:51:00       53.755       41.098       38.193       55.371       50.835       54.416     3065.931     2584.212     2961.112        0.732        0.431       67.666       34.146        0.255      339.764       13.321      868.165
10/06/2013  10:52:00       -2.201      -30.268       15.071       14.233       49.016       23.968      202.588     2402.557      574.449        0.216        0.159       30.348       17.827        0.345      340.026       13.764      868.173
10/06/2013  10:53:00       22.108       16.475       26.123       30.082       47.558       25.864      904.921     2261.798      668.934        0.264        0.192       27.572       18.112        0.432      340.120       13.922      868.151
10/06/2013  10:54:00       45.854       86.381       -1.280       48.390       52.147       43.198     2341.631     2719.313     1866.045        0.825        0.346       97.797       33.391        0.117      339.916       13.577      868.127
10/06/2013  10:55:00       42.062      108.004       -4.333       49.217       55.691       36.680     2422.327     3101.472     1345.387        1.016        0.343      115.905       30.405        0.069      339.791       13.366      868.110
10/06/2013  10:56:00       22.196       45.314        9.906       38.302       30.246       33.415     1467.058      914.815     1116.594        0.307        0.175       50.458       24.817        0.242      340.042       13.791      868.103
10/06/2013  10:57:00       42.982        3.624        9.673       31.959       45.708       28.643     1021.368     2089.200      820.438        0.294        0.197       43.134       21.765        0.255      340.170       14.005      868.113
10/06/2013  10:58:00       22.232      -15.006       45.121       41.495       61.730       43.181     1721.843     3810.564     1864.612        0.507        0.370       26.823       33.396        1.550      340.601       14.734      868.099
10/06/2013  10:59:00      -11.853       24.546       52.739       22.356       39.797       24.521      499.809     1583.787      601.281        0.310        0.134       27.258       18.981        0.485      340.982       15.380      868.070
10/06/2013  11:00:00       42.745       67.669       94.324       64.703       74.106       47.751     4186.476     5491.743     2280.188        1.363        0.598       80.040       46.291        0.334      340.306       14.236      868.043
10/06/2013  11:01:00      113.657       88.243       38.247       61.855       49.659       56.122     3825.984     2465.986     3149.643        1.580        0.472      143.891       38.594        0.072      339.860       13.483      868.025
10/06/2013  11:02:00        8.636       22.235        8.541       30.729       23.018       19.176      944.265      529.812      367.737        0.124        0.092       23.853       16.911        0.503      340.514       14.587      868.027
10/06/2013  11:03:00       32.118       18.744       16.443       44.930       37.462       27.720     2018.710     1403.432      768.418        0.292        0.210       37.188       23.753        0.408      340.317       14.255      868.031
10/06/2013  11:04:00       19.153       33.494       32.788       31.097       32.610       33.853      967.048     1063.412     1146.024        0.287        0.159       38.583       18.557        0.231      340.618       14.763      868.017
10/06/2013  11:05:00        4.004       54.057       70.273       36.359       49.110       48.033     1321.961     2411.820     2307.174        0.696        0.302       54.205       32.813        0.366      340.752       14.989      868.003
10/06/2013  11:06:00       67.418       81.306       68.263       42.401       34.616       31.608     1797.867     1198.250      999.065        0.990        0.200      105.621       16.255        0.024      340.066       13.832      867.963
10/06/2013  11:07:00       22.112       44.656       67.127       44.344       54.721       36.856     1966.408     2994.423     1358.373        0.665        0.316       49.831       24.774        0.247      340.583       14.704      867.923
10/06/2013  11:08:00       44.104      -44.175       19.515       38.533       93.293       43.054     1484.815     8703.563     1853.674        0.816        0.602       62.423       59.320        0.903      340.241       14.126      867.897
10/06/2013  11:09:00       15.945      -36.962       50.855       43.938      123.998       68.591     1930.578    15375.415     4704.728        1.310        1.101       40.254       87.716        4.748      340.521       14.599      867.900
10/06/2013  11:10:00       -0.723       30.743       54.171       22.369       54.946       42.497      500.375     3019.114     1805.969        0.460        0.266       30.752       44.218        2.068      340.439       14.460      867.917
10/06/2013  11:11:00      -24.189       16.088       18.663       28.996       27.103       17.963      840.760      734.577      322.659        0.154        0.095       29.050       18.493        0.405      340.621       14.769      867.909
10/06/2013  11:12:00       20.764       22.571        8.362       22.172       31.343       32.039      491.585      982.402     1026.519        0.175        0.125       30.669       22.633        0.545      340.542       14.634      867.895
10/06/2013  11:13:00        6.841        7.708       20.135       22.798       13.078       19.448      519.754      171.041      378.226        0.079        0.053       10.306       13.782        1.788      341.127       15.624      867.858
10/06/2013  11:14:00      -39.426       10.534       13.451       23.066       16.739       22.540      532.050      280.183      508.052        0.158        0.066       40.809       15.473        0.144      340.799       15.070      867.846
10/06/2013  11:15:00       -3.742       -8.800       10.223       23.570       25.365       42.185      555.540      643.385     1779.557        0.159        0.149        9.562       28.649        8.976      340.822       15.109      867.846
10/06/2013  11:16:00      -15.672       -3.265        0.274       20.764       29.932       31.233      431.129      895.915      975.513        0.128        0.115       16.008       28.653        3.204      340.698       14.900      867.829
10/06/2013  11:17:00        2.723       27.949       47.198       16.082       23.187       24.340      258.641      537.655      592.454        0.220        0.069       28.081       13.693        0.238      340.973       15.364      867.808
10/06/2013  11:18:00       42.765       53.533       63.526       70.122       54.363       36.370     4917.164     2955.282     1322.764        0.896        0.460       68.517       30.113        0.193      340.864       15.180      867.779
10/06/2013  11:19:00      130.828       82.198       35.713       54.496       44.120       44.247     2969.863     1946.536     1957.836        1.601        0.344      154.507       37.034        0.057      340.283       14.196      867.768
10/06/2013  11:20:00      113.254       59.600        0.794       57.584       52.381       38.157     3315.904     2743.810     1455.972        1.195        0.376      127.979       24.875        0.038      340.255       14.150      867.749
10/06/2013  11:21:00      101.717       80.238       46.016       61.170       33.814       43.436     3741.793     1143.410     1886.695        1.284        0.339      129.555       14.130        0.012      340.478       14.527      867.749
10/06/2013  11:22:00      103.685       64.147        9.359       28.785       22.964       26.640      828.596      527.363      709.688        0.851        0.103      121.924       16.156        0.018      340.247       14.135      867.732
10/06/2013  11:23:00       53.569       66.850       11.418       26.403       23.107       34.596      697.098      533.912     1196.909        0.495        0.121       85.666       18.807        0.048      340.635       14.793      867.708
10/06/2013  11:24:00       57.744       45.722       18.873       38.839       28.514       38.267     1508.472      813.042     1464.381        0.478        0.189       73.654       21.733        0.087      340.670       14.851      867.674
10/06/2013  11:25:00       10.893       26.507       21.763       36.976       30.881       26.127     1367.243      953.627      682.628        0.215        0.150       28.658       23.209        0.656      341.136       15.640      867.655
10/06/2013  11:26:00       44.449       38.403       22.205       35.598       28.351       29.578     1267.249      803.807      874.867        0.344        0.147       58.741       23.011        0.153      340.934       15.298      867.643
10/06/2013  11:27:00       30.394       55.975       -4.379       32.734       36.596       27.381     1071.499     1339.261      749.707        0.362        0.158       63.694       20.424        0.103      340.783       15.042      867.636
10/06/2013  11:28:00      -11.790       22.642        1.760       19.732       24.900       20.317      389.359      620.023      412.777        0.104        0.071       25.527        7.242        0.080      340.905       15.249      867.625
10/06/2013  11:29:00       53.761       54.880        8.994       53.096       38.000       29.506     2819.142     1443.982      870.577        0.556        0.257       76.825       26.659        0.120      341.040       15.478      867.595
10/06/2013  11:30:00       86.855      104.187       60.592       75.811       43.217       57.244     5747.309     1867.694     3276.912        1.648        0.545      135.642       53.429        0.155      341.217       15.775      867.568
10/06/2013  11:31:00      161.447      104.916       35.265       53.703       44.403       49.599     2884.048     1971.591     2460.015        2.281        0.366      192.542       25.695        0.018      340.642       14.801      867.552
10/06/2013  11:32:00       90.487       66.985       15.620       50.776       36.771       30.745     2578.202     1352.070      945.259        0.890        0.244      112.583       23.431        0.043      340.759       15.002      867.547
10/06/2013  11:33:00       44.307       56.597       38.765       59.616       36.798       45.552     3554.098     1354.063     2075.012        0.682        0.349       71.877       43.688        0.369      341.334       15.975      867.528
10/06/2013  11:34:00      100.875       72.303       41.427       63.842       57.905       54.079     4075.795     3352.991     2924.512        1.373        0.518      124.111       40.621        0.107      341.217       15.777      867.525
10/06/2013  11:35:00       94.602       85.143       37.456       62.913       37.229       41.753     3958.014     1385.980     1743.288        1.234        0.354      127.274       37.275        0.086      340.994       15.397      867.515
10/06/2013  11:36:00      106.970       86.670       30.139       40.777       37.140       40.234     1662.799     1379.347     1618.749        1.226        0.233      137.674        8.490        0.004      340.851       15.158      867.519
10/06/2013  11:37:00      133.007       80.043       35.981       48.949       40.024       37.528     2396.009     1601.943     1408.367        1.540        0.270      155.235       23.226        0.022      341.173       15.701      867.513
10/06/2013  11:38:00        9.914       39.465       35.177       46.135       35.062       29.832     2128.434     1229.324      889.963        0.357        0.212       40.691       21.220        0.272      341.647       16.506      867.529
10/06/2013  11:39:00        9.283      -53.941       -4.312       48.132       58.335       42.918     2316.716     3402.920     1841.934        0.529        0.378       54.734       46.691        0.728      341.446       16.166      867.520
10/06/2013  11:40:00       16.468      -78.339       -8.182       44.869       43.011       29.180     2013.244     1849.945      851.452        0.559        0.236       80.051       18.419        0.053      341.223       15.787      867.505
10/06/2013  11:41:00       28.831      -69.057        6.933       40.138       39.853       29.496     1611.021     1588.285      870.024        0.486        0.203       74.834       21.510        0.083      341.070       15.529      867.478
10/06/2013  11:42:00       60.308       -6.526       46.136       63.824       50.394       41.138     4073.492     2539.531     1692.327        0.706        0.415       60.660       40.786        0.452      341.412       16.106      867.458
10/06/2013  11:43:00      101.490       57.581       63.633       77.734       66.790       46.545     6042.542     4460.910     2166.403        1.516        0.633      116.687       49.125        0.177      341.466       16.197      867.429
10/06/2013  11:44:00      114.428      124.083       91.462       70.798       53.552       57.104     5012.361     2867.814     3260.880        2.400        0.557      168.791       47.319        0.079      341.051       15.493      867.434
10/06/2013  11:45:00       49.910       29.828       36.903       34.931       37.996       32.550     1220.179     1443.717     1059.534        0.423        0.186       58.144       26.768        0.212      341.192       15.734      867.442
10/06/2013  11:46:00       17.460       16.595       32.576       26.272       37.223       23.964      690.210     1385.519      574.256        0.215        0.132       24.088       21.016        0.761      341.648       16.507      867.433
10/06/2013  11:47:00        6.231       57.412        9.837       36.606       55.659       35.690     1340.032     3097.910     1273.743        0.457        0.286       57.750       36.243        0.394      341.678       16.558      867.413
10/06/2013  11:48:00       40.759       16.541       25.065       33.985       23.479       27.080     1154.990      551.275      733.335        0.250        0.122       43.987       17.892        0.165      341.468       16.202      867.394
10/06/2013  11:49:00        6.195      -10.469        5.070       26.806       37.810       22.251      718.539     1429.634      495.089        0.141        0.132       12.165       11.609        0.911      341.485       16.229      867.378
10/06/2013  11:50:00       10.556        1.398       47.523       42.641       54.411       42.643     1818.289     2960.543     1818.393        0.448        0.330       10.648       44.737       17.653      341.800       16.765      867.370
10/06/2013  11:51:00       16.015      -98.508      -17.743       47.182       52.717       29.467     2226.103     2779.064      868.297        0.807        0.294       99.802       26.722        0.072      341.462       16.192      867.359
10/06/2013  11:52:00      -37.320      -40.521       13.492       45.542       53.885       31.411     2074.059     2903.573      986.670        0.459        0.298       55.088       33.846        0.377      341.710       16.611      867.359
10/06/2013  11:53:00        4.497      -44.322       18.705       36.857       29.118       30.247     1358.415      847.829      914.895        0.273        0.156       44.549       16.521        0.138      342.008       17.119      867.338
10/06/2013  11:54:00      -38.311      -31.853        3.283       34.437       35.391       25.870     1185.890     1252.490      669.255        0.280        0.155       49.823       25.483        0.262      341.696       16.589      867.345
10/06/2013  11:55:00        8.437      -33.834       40.060       42.201       77.334       48.576     1780.907     5980.571     2359.620        0.647        0.506       34.870       55.956        2.575      341.974       17.060      867.318
10/06/2013  11:56:00       28.948       26.638       24.710       64.689       49.707       34.410     4184.626     2470.809     1184.025        0.500        0.392       39.339       24.791        0.397      341.772       16.718      867.302
10/06/2013  11:57:00       26.713       28.687       25.193       39.379       40.410       44.365     1550.696     1632.950     1968.258        0.366        0.258       39.198       38.072        0.943      341.647       16.505      867.284
10/06/2013  11:58:00       12.849       38.923       31.101       29.892       26.526       28.136      893.508      703.616      791.646        0.252        0.119       40.989       15.177        0.137      341.758       16.694      867.281
10/06/2013  11:59:00      -13.463       -9.879      -17.143       30.312       25.869       14.071      918.806      669.210      197.980        0.118        0.089       16.698        8.460        0.257      341.596       16.419      867.272
10/06/2013  12:00:00        2.216       -6.178       -9.154       31.340       46.220       20.508      982.204     2136.294      420.575        0.183        0.177        6.563       15.933        5.893      342.012       17.124      867.255
10/06/2013  12:01:00      -65.736      -22.906        1.739       47.127       34.170       21.117     2220.977     1167.600      445.925        0.434        0.192       69.612       16.986        0.060      341.819       16.797      867.227
10/06/2013  12:02:00      -71.105        8.431        5.838       22.012       19.682       15.342      484.535      387.369      235.381        0.313        0.055       71.603       12.725        0.032      341.341       15.987      867.194
10/06/2013  12:03:00      -32.523        0.198       -0.995       38.762       18.922       20.385     1502.497      358.040      415.562        0.167        0.114       32.524       16.706        0.264      341.762       16.701      867.169
10/06/2013  12:04:00      -40.222      -26.114       -3.087       41.434       33.429       22.259     1716.784     1117.503      495.448        0.282        0.166       47.956       21.926        0.209      341.885       16.908      867.165
10/06/2013  12:05:00      -63.157        1.109        2.607       24.138       34.976       20.760      582.653     1223.327      430.976        0.312        0.112       63.166       19.249        0.093      341.758       16.693      867.152
10/06/2013  12:06:00      -12.733       21.050       11.970       35.763       14.422       23.958     1279.008      207.998      574.001        0.140        0.103       24.602       18.106        0.542      341.999       17.103      867.141
10/06/2013  12:07:00      -35.225       -9.428        7.948       18.210       21.923       16.919      331.616      480.611      286.253        0.125        0.055       36.465       15.406        0.178      341.946       17.011      867.118
10/06/2013  12:08:00      -34.112      -15.722       -2.525       17.521       19.221       16.511      306.992      369.450      272.619        0.118        0.047       37.561       12.075        0.103      341.887       16.912      867.105
10/06/2013  12:09:00      -67.283      -31.337       -0.935       23.569       20.239       17.370      555.516      409.627      301.710        0.339        0.063       74.223       10.486        0.020      341.722       16.631      867.096
10/06/2013  12:10:00      -55.304       16.053        8.293       25.525       19.729       18.955      651.543      389.244      359.305        0.239        0.070       57.587       16.010        0.077      341.885       16.908      867.096
10/06/2013  12:11:00       36.497      -71.417        9.711       51.542       55.172       41.857     2656.583     3043.963     1752.017        0.699        0.373       80.202       34.195        0.182      342.141       17.344      867.067
10/06/2013  12:12:00       31.089      -89.782        3.976       58.617       54.313       37.800     3436.006     2949.886     1428.872        0.843        0.391       95.012       23.063        0.059      341.917       16.963      867.033
10/06/2013  12:13:00       27.024      -50.487       13.248       37.956       38.441       39.286     1440.653     1477.730     1543.385        0.396        0.223       57.265       27.077        0.224      341.896       16.928      866.998
10/06/2013  12:14:00       27.226      -56.192       -5.815       29.673       24.220       20.262      880.464      586.594      410.548        0.290        0.094       62.440       15.309        0.060      341.534       16.314      866.974
10/06/2013  12:15:00       77.428       32.426       25.712       54.005       56.175       35.502     2916.542     3155.624     1260.366        0.752        0.367       83.943       26.308        0.098      342.001       17.107      866.951
10/06/2013  12:16:00       72.608       75.597       43.565       47.722       43.262       23.834     2277.380     1871.564      568.058        0.880        0.236      104.818       14.765        0.020      342.021       17.139      866.929
10/06/2013  12:17:00       28.801       57.576       56.591       50.500       59.770       51.383     2550.282     3572.468     2640.176        0.805        0.438       64.378       46.381        0.519      342.646       18.202      866.914
10/06/2013  12:18:00       31.880        1.395       42.253       60.816       64.330       36.682     3698.602     4138.362     1345.574        0.599        0.459       31.910       30.047        0.887      342.032       17.158      866.885
10/06/2013  12:19:00       26.118       -5.010       14.116       32.075       56.929       29.925     1028.785     3240.945      895.523        0.303        0.258       26.594       18.733        0.496      342.063       17.212      866.864
10/06/2013  12:20:00       39.669      -23.876       -7.122       44.260       23.604       18.911     1958.967      557.153      357.610        0.253        0.144       46.301       14.034        0.092      341.719       16.628      866.852
10/06/2013  12:21:00      -10.800       14.652       36.620       16.917       36.570       25.637      286.200     1337.358      657.238        0.198        0.114       18.203       25.372        1.943      342.758       18.393      866.817
10/06/2013  12:22:00       31.593      -32.299       23.981       41.860       45.057       35.968     1752.224     2030.151     1293.724        0.385        0.254       45.181       31.469        0.485      342.454       17.875      866.811
10/06/2013  12:23:00       45.400      -71.574       -1.150       21.339       24.732       17.291      455.374      611.665      298.985        0.428        0.068       84.758       11.579        0.019      341.842       16.835      866.804
10/06/2013  12:24:00       40.694      -22.252       36.782       44.002       59.734       27.403     1936.140     3568.168      750.951        0.488        0.313       46.380       16.436        0.126      342.003       17.108      866.794
10/06/2013  12:25:00       95.315       51.417       -4.292       52.155       52.758       30.909     2720.151     2783.407      955.353        0.910        0.323      108.299       20.134        0.035      341.903       16.940      866.783
10/06/2013  12:26:00       15.555        3.327        7.296       27.618       37.101       28.645      762.731     1376.459      820.529        0.163        0.148       15.907       18.682        1.379      342.198       17.439      866.771
10/06/2013  12:27:00       58.362       49.660       60.099       40.547       57.887       31.410     1644.046     3350.894      986.615        0.773        0.299       76.631       20.849        0.074      342.230       17.494      866.748
10/06/2013  12:28:00      136.427       88.051        9.032       48.499       36.067       34.179     2352.159     1300.797     1168.231        1.563        0.241      162.374        8.137        0.003      341.993       17.090      866.734
10/06/2013  12:29:00       84.908       57.726       40.633       50.182       40.468       42.860     2518.236     1637.659     1836.999        0.909        0.300      102.672       28.406        0.077      342.156       17.368      866.719
10/06/2013  12:30:00      109.918       95.992       49.160       44.689       34.593       42.774     1997.101     1196.707     1829.587        1.437        0.251      145.932       22.858        0.025      341.998       17.100      866.707
10/06/2013  12:31:00       92.203       83.487       49.049       38.628       34.695       40.812     1492.159     1203.733     1665.590        1.112        0.218      124.384       20.645        0.028      341.953       17.025      866.685
10/06/2013  12:32:00       56.155       45.655        8.222       27.729       34.307       30.910      768.887     1176.973      955.399        0.410        0.145       72.372       17.458        0.058      342.129       17.324      866.649
10/06/2013  12:33:00       -0.919        4.617       11.916       21.629       31.754       14.073      467.802     1008.309      198.052        0.092        0.084        4.708        3.611        0.588      342.488       17.933      866.608
10/06/2013  12:34:00       -2.397        3.496       15.983       12.829       11.680       15.299      164.595      136.431      234.061        0.040        0.027        4.239        4.950        1.364      343.419       19.519      866.562
10/06/2013  12:35:00        4.650       -7.375       28.934       18.775       20.675       15.634      352.509      427.453      244.433        0.097        0.051        8.718        9.294        1.136      342.851       18.551      866.539
10/06/2013  12:36:00      -12.303       26.594       12.553       15.099       29.718       23.895      227.972      883.184      570.991        0.135        0.084       29.302       17.661        0.363      343.018       18.836      866.509
10/06/2013  12:37:00       17.554        0.327       11.644       20.857       16.789       25.109      435.026      281.881      630.464        0.090        0.067       17.557       13.587        0.599      342.789       18.445      866.485
10/06/2013  12:38:00       91.667       54.907        7.390       43.395       37.060       37.331     1883.130     1373.449     1393.626        0.806        0.233      106.853       14.067        0.017      342.598       18.120      866.472
10/06/2013  12:39:00       39.672       14.888       13.990       30.660       23.213       23.090      940.013      538.844      533.132        0.200        0.101       42.374       19.004        0.201      342.806       18.473      866.463
10/06/2013  12:40:00       12.584       40.765       21.626       40.187       46.926       34.387     1615.016     2202.074     1182.478        0.364        0.250       42.664       32.927        0.596      342.940       18.702      866.462
10/06/2013  12:41:00       10.489       43.386       17.062       22.830       53.405       33.483      521.229     2852.111     1121.117        0.339        0.225       44.636       34.435        0.595      343.188       19.125      866.467
10/06/2013  12:42:00      -84.703       23.864       -6.575       39.820       23.885       22.497     1585.655      570.489      506.100        0.522        0.133       88.001       15.868        0.033      342.655       18.217      866.452
10/06/2013  12:43:00      -66.012       42.215       -7.192       37.462       35.694       30.368     1403.396     1274.068      922.187        0.489        0.180       78.356       23.373        0.089      342.780       18.429      866.455
10/06/2013  12:44:00       -9.423       25.661       16.795       32.586       42.878       24.897     1061.827     1838.481      619.859        0.227        0.176       27.337       14.586        0.285      343.458       19.585      866.432
10/06/2013  12:45:00       13.316       46.164       19.208       41.252       44.821       30.329     1701.705     2008.922      919.878        0.365        0.232       48.046       20.332        0.179      343.259       19.246      866.413
10/06/2013  12:46:00       39.554      -20.689       28.766       32.668       28.510       28.137     1067.190      812.846      791.713        0.275        0.134       44.638       20.070        0.202      342.505       17.961      866.389
10/06/2013  12:47:00        9.711      -26.203       23.189       23.489       29.437       17.325      551.715      866.563      300.157        0.152        0.086       27.945       14.889        0.284      343.014       18.827      866.366
10/06/2013  12:48:00      -16.735      -38.530        5.836       39.026       41.506       24.710     1523.064     1722.783      610.572        0.283        0.193       42.007       26.678        0.403      343.070       18.923      866.337
10/06/2013  12:49:00       39.506      -21.287       10.903       38.933       31.587       29.804     1515.770      997.721      888.276        0.277        0.170       44.876       24.650        0.302      343.143       19.047      866.334
10/06/2013  12:50:00       59.715       -3.429        9.494       25.070       29.392       31.709      628.528      863.863     1005.462        0.308        0.125       59.813       18.668        0.097      342.591       18.109      866.329
10/06/2013  12:51:00       20.477      -47.754       31.769       41.818       67.885       33.457     1748.762     4608.362     1119.389        0.559        0.374       51.959       26.069        0.252      342.902       18.637      866.327
10/06/2013  12:52:00       16.259       24.219       15.878       32.176       30.384       29.916     1035.276      923.175      894.965        0.198        0.143       29.171       22.070        0.572      342.708       18.308      866.317
10/06/2013  12:53:00       53.371      -90.759       -8.289       80.320       56.955       31.767     6451.327     3243.842     1009.121        1.093        0.535      105.288       36.763        0.122      342.581       18.091      866.307
10/06/2013  12:54:00       19.136      -75.668       19.463       35.207       72.042       44.033     1239.533     5190.085     1938.875        0.742        0.418       78.050       42.673        0.299      342.949       18.717      866.268
10/06/2013  12:55:00       37.940       63.528       71.323       48.554       41.796       37.475     2357.444     1746.885     1404.365        0.803        0.275       73.995       21.346        0.083      342.903       18.639      866.239
10/06/2013  12:56:00       59.994       52.088       50.190       67.743       66.272       37.892     4589.146     4391.998     1435.814        0.962        0.521       79.451       20.637        0.067      342.968       18.748      866.190
10/06/2013  12:57:00       39.240       24.397       39.449       27.415       30.963       16.382      751.598      958.679      268.356        0.283        0.099       46.206        6.725        0.021      342.843       18.537      866.143
10/06/2013  12:58:00       82.641       67.991       24.420       65.164       52.378       40.890     4246.405     2743.416     1672.003        1.035        0.433      107.016       26.253        0.060      342.946       18.712      866.105
10/06/2013  12:59:00       71.405       77.269        9.505       40.402       35.729       37.862     1632.308     1276.575     1433.521        0.775        0.217      105.210       30.262        0.083      343.104       18.980      866.099
10/06/2013  13:00:00       92.720       77.824       11.105       32.134       26.240       27.431     1032.567      688.554      752.485        0.862        0.124      121.052       10.816        0.008      342.888       18.612      866.101
10/06/2013  13:01:00       95.455       58.916       17.628       36.429       30.648       37.578     1327.101      939.328     1412.122        0.829        0.184      112.173       17.511        0.024      342.728       18.339      866.097
10/06/2013  13:02:00       98.159       59.975       16.508       25.471       27.354       26.275      648.764      748.228      690.375        0.780        0.104      115.031       15.183        0.017      342.685       18.268      866.096
10/06/2013  13:03:00       66.364       58.327        6.827       32.748       20.880       33.483     1072.432      435.964     1121.079        0.524        0.131       88.352       23.495        0.071      342.913       18.656      866.077
10/06/2013  13:04:00      -25.048      -11.299       11.005       31.148       23.400       28.197      970.227      547.553      795.058        0.159        0.116       27.478       26.185        0.908      343.477       19.615      866.052
10/06/2013  13:05:00      -36.806       17.578       15.025       54.604       23.254       23.516     2981.643      540.752      553.006        0.298        0.204       40.788       29.744        0.532      343.284       19.288      866.005
10/06/2013  13:06:00       38.110       47.025       16.109       39.671       50.889       33.508     1573.780     2589.682     1122.800        0.460        0.264       60.529       27.572        0.207      343.295       19.305      865.981
10/06/2013  13:07:00       57.346       40.534       22.403       42.431       28.259       36.352     1800.417      798.566     1321.456        0.468        0.196       70.225       23.175        0.109      343.363       19.421      865.942
10/06/2013  13:08:00       39.023       36.437       -2.247       34.756       31.845       26.834     1207.997     1014.105      720.059        0.290        0.147       53.389       15.889        0.089      343.363       19.422      865.923
10/06/2013  13:09:00       18.255       28.410        6.280       22.717       19.545       19.870      516.078      382.008      394.803        0.124        0.065       33.769       11.087        0.108      343.788       20.147      865.914
10/06/2013  13:10:00       26.559      -18.260       16.153       30.057       45.855       20.925      903.438     2102.652      437.848        0.237        0.172       32.230       18.703        0.337      343.670       19.945      865.918
10/06/2013  13:11:00       22.121       38.600       14.125       17.240       41.463       30.366      297.228     1719.196      922.111        0.256        0.147       44.489       14.534        0.107      343.077       18.934      865.911
10/06/2013  13:12:00       34.988       -1.556        2.514       26.695       19.385       24.770      712.614      375.787      613.568        0.147        0.085       35.022       11.172        0.102      343.163       19.081      865.906
10/06/2013  13:13:00       59.584      -26.147       10.093       31.262       26.301       22.780      977.284      691.764      518.939        0.326        0.109       65.068       13.171        0.041      342.882       18.602      865.885
10/06/2013  13:14:00        0.818      -10.597        7.382       34.320       20.862       21.365     1177.894      435.241      456.450        0.112        0.103       10.628        7.995        0.566      343.278       19.277      865.866
10/06/2013  13:15:00       11.146      -28.023       -3.590       15.409       22.534       16.197      237.447      507.773      262.347        0.096        0.050       30.158        3.316        0.012      343.244       19.220      865.833
10/06/2013  13:16:00       12.925      -29.212        4.435       24.146       37.812       18.989      583.042     1429.714      360.590        0.171        0.119       31.944       16.304        0.261      343.246       19.224      865.814
10/06/2013  13:17:00       33.194       -0.465       -4.975       48.775       40.312       30.184     2379.044     1625.022      911.070        0.302        0.246       33.198       29.122        0.770      342.774       18.420      865.785
10/06/2013  13:18:00       65.337      -64.761       -3.754       38.870       29.821       28.510     1510.844      889.288      812.796        0.584        0.161       91.994       26.514        0.083      342.477       17.914      865.779
10/06/2013  13:19:00       54.475       -7.036       -2.655       31.597       31.432       20.630      998.361      987.978      425.589        0.272        0.121       54.927        9.041        0.027      342.631       18.177      865.764
10/06/2013  13:20:00       39.109      -58.466       -9.228       38.929       35.826       18.717     1515.449     1283.500      350.315        0.409        0.157       70.341       12.568        0.032      342.829       18.513      865.762
10/06/2013  13:21:00       12.490       18.713       40.171       21.748       26.935       15.088      472.996      725.500      227.635        0.177        0.071       22.499       12.930        0.330      343.648       19.907      865.744
10/06/2013  13:22:00        3.417       10.942       21.830       17.922       21.657       18.016      321.184      469.021      324.576        0.086        0.056       11.463       13.537        1.395      343.406       19.496      865.734
10/06/2013  13:23:00       19.340       23.069        4.651       17.781       20.271       20.486      316.156      410.908      419.696        0.104        0.057       30.103       16.234        0.291      343.232       19.199      865.713
10/06/2013  13:24:00      -28.798       -0.715       -2.686       53.693       16.113       11.102     2882.888      259.618      123.262        0.205        0.163       28.807       11.933        0.172      343.407       19.496      865.688
10/06/2013  13:25:00     -110.362      -46.467      -15.031       24.137       30.879       17.247      582.572      953.495      297.447        0.820        0.092      119.745       16.940        0.020      343.449       19.569      865.660
10/06/2013  13:26:00     -118.254      -43.656      -10.129       30.280       42.419       15.595      916.886     1799.380      243.208        0.948        0.148      126.055        5.839        0.002      343.512       19.676      865.639
10/06/2013  13:27:00      -74.758      -20.619       -5.055       28.806       31.724       20.133      829.773     1006.401      405.351        0.414        0.112       77.549       17.408        0.050      343.522       19.692      865.619
10/06/2013  13:28:00      -62.181       10.558        6.921       31.948       15.766       18.157     1020.680      248.556      329.666        0.281        0.080       63.071       16.342        0.067      343.676       19.955      865.603
10/06/2013  13:29:00        3.908       50.641        3.701       33.784       38.942       25.464     1141.384     1516.496      648.390        0.295        0.165       50.791       27.244        0.288      344.130       20.731      865.587
10/06/2013  13:30:00       -2.532       73.333        6.795       41.468       52.265       27.361     1719.633     2731.585      748.631        0.531        0.260       73.377       31.657        0.186      344.039       20.575      865.555
10/06/2013  13:31:00      -26.139      117.224      -11.754       34.829       49.295       29.936     1213.046     2430.031      896.187        0.955        0.227      120.103       20.496        0.029      344.014       20.533      865.534
10/06/2013  13:32:00       43.359       33.682       28.802       32.027       25.203       24.449     1025.749      635.187      597.758        0.305        0.113       54.905        6.189        0.013      344.138       20.745      865.517
10/06/2013  13:33:00      142.828       81.948        9.429       50.440       43.355       35.545     2544.190     1879.621     1263.424        1.644        0.284      164.667       23.271        0.020      343.768       20.112      865.494
10/06/2013  13:34:00       74.896       72.910       16.917       37.778       23.625       33.867     1427.187      558.125     1146.996        0.717        0.157      104.524        8.040        0.006      343.382       19.454      865.473
10/06/2013  13:35:00       24.159       21.661        7.678       25.322       25.541       26.617      641.199      652.357      708.468        0.156        0.100       32.448       13.901        0.184      343.699       19.994      865.457
10/06/2013  13:36:00       51.022       52.043       13.506       48.317       34.546       34.254     2334.485     1193.401     1173.305        0.510        0.235       72.881       16.558        0.052      343.925       20.382      865.439
10/06/2013  13:37:00       58.121      110.400       -9.967       36.387       51.397       29.943     1324.005     2641.650      896.587        1.026        0.243      124.765       23.915        0.037      343.884       20.312      865.429
10/06/2013  13:38:00       30.874       26.047        0.500       30.796       35.252       19.746      948.365     1242.733      389.899        0.211        0.129       40.394       11.606        0.083      343.909       20.354      865.420
10/06/2013  13:39:00      -51.493       34.130      -23.277       24.340       29.777       20.435      592.416      886.663      417.578        0.313        0.095       61.777       19.477        0.099      343.786       20.143      865.398
10/06/2013  13:40:00      -16.365       20.849        8.363       24.948       26.029       17.624      622.427      677.529      310.597        0.119        0.081       26.505       13.743        0.269      344.037       20.573      865.369
10/06/2013  13:41:00       -9.036       44.115        5.324       22.312       50.308       25.322      497.819     2530.856      641.187        0.286        0.183       45.030       16.050        0.127      344.245       20.928      865.345
10/06/2013  13:42:00      -11.670       35.875        7.832       26.168       51.617       28.800      684.740     2664.321      829.419        0.283        0.209       37.725       27.708        0.539      344.802       21.880      865.325
10/06/2013  13:43:00       -6.181       57.040       20.247       31.723       47.948       31.900     1006.346     2299.032     1017.636        0.401        0.216       57.374       33.398        0.339      344.429       21.241      865.313
10/06/2013  13:44:00       -3.011       63.283       19.575       37.542       53.460       35.057     1409.370     2857.937     1229.017        0.495        0.275       63.354       34.537        0.297      344.500       21.363      865.311
10/06/2013  13:45:00       12.511       17.034       32.595       23.343       37.919       22.042      544.875     1437.877      485.832        0.199        0.123       21.135       15.105        0.511      344.771       21.825      865.299
10/06/2013  13:46:00       50.421        6.186        4.274       36.516       24.928       28.495     1333.441      621.394      811.945        0.268        0.138       50.799       17.793        0.123      343.869       20.284      865.293
10/06/2013  13:47:00       66.804      -77.285        0.561       42.272       67.829       39.862     1786.956     4600.837     1588.964        0.920        0.399      102.155       34.335        0.113      344.043       20.581      865.259
10/06/2013  13:48:00       65.426      -19.297       19.024       57.191       68.529       36.250     3270.835     4696.162     1314.034        0.715        0.464       68.212       36.461        0.286      343.990       20.493      865.231
10/06/2013  13:49:00       58.661      -62.711        3.413       48.687       46.655       34.094     2370.385     2176.687     1162.399        0.655        0.285       85.870       34.403        0.161      344.092       20.665      865.207
10/06/2013  13:50:00       84.669     -101.333       -0.702       47.325       46.115       29.021     2239.639     2126.549      842.242        1.132        0.260      132.050       24.455        0.034      343.920       20.370      865.190
10/06/2013  13:51:00       71.353     -146.161      -10.949       42.952       43.850       27.362     1844.833     1922.784      748.669        1.554        0.226      162.647       26.542        0.027      344.286       20.995      865.172
10/06/2013  13:52:00       44.055     -169.336      -15.422       43.576       39.715       25.510     1898.838     1577.320      650.749        1.749        0.206      174.973       12.806        0.005      344.048       20.591      865.162
10/06/2013  13:53:00       73.648     -129.736      -19.549       47.321       40.723       21.534     2239.296     1658.356      463.720        1.350        0.218      149.183       15.997        0.011      344.141       20.749      865.163
10/06/2013  13:54:00       40.471      -26.475       28.148       36.282       60.441       34.805     1316.348     3653.072     1211.365        0.465        0.309       48.362       37.514        0.602      344.294       21.012      865.171
10/06/2013  13:55:00        3.445       15.322       40.425       24.249       32.014       16.683      588.014     1024.922      278.330        0.189        0.095       15.704       16.795        1.144      344.313       21.043      865.175
10/06/2013  13:56:00        5.327        2.234       24.821       18.989       30.513       19.716      360.598      931.037      388.727        0.116        0.084        5.776        8.544        2.188      344.121       20.716      865.168
10/06/2013  13:57:00       -1.434       10.969       15.095       11.840       11.927       13.000      140.185      142.258      168.995        0.040        0.023       11.063        8.410        0.578      344.516       21.391      865.142
10/06/2013  13:58:00       25.822       -2.377       17.272       27.293       18.271       17.133      744.933      333.845      293.537        0.117        0.069       25.931       13.055        0.253      344.294       21.011      865.133
10/06/2013  13:59:00        6.979       11.945       31.102       30.364       32.898       25.068      921.954     1082.251      628.428        0.190        0.132       13.834       24.165        3.051      343.903       20.344      865.110
10/06/2013  14:00:00      -12.798        9.439       35.707       20.005       27.496       21.415      400.188      756.056      458.595        0.157        0.081       15.902       19.383        1.486      344.231       20.905      865.091
10/06/2013  14:01:00        9.345      -35.636       20.224       40.266       45.808       41.569     1621.328     2098.363     1728.003        0.361        0.272       36.841       25.758        0.489      344.432       21.248      865.082
10/06/2013  14:02:00       11.948      -44.219       -9.249       52.572       57.135       37.052     2763.830     3264.411     1372.872        0.479        0.370       45.805       30.863        0.454      344.369       21.138      865.065
10/06/2013  14:03:00       17.896      -42.763       -5.394       33.174       34.610       21.636     1100.503     1197.863      468.116        0.247        0.138       46.357       13.125        0.080      344.594       21.523      865.061
10/06/2013  14:04:00        1.896      -53.300       -4.834       26.424       38.695       22.802      698.247     1497.314      519.946        0.279        0.136       53.334       24.546        0.212      344.547       21.443      865.048
10/06/2013  14:05:00      -45.497      -45.854        6.117       31.571       36.196       24.625      996.699     1310.160      606.407        0.356        0.146       64.595       18.832        0.085      344.481       21.332      865.032
10/06/2013  14:06:00      -65.912      -39.750      -12.172       20.080       26.948       14.810      403.207      726.185      219.349        0.371        0.067       76.971       12.769        0.028      344.232       20.905      865.031
10/06/2013  14:07:00      -61.555       -3.298       -9.894       21.553       25.683       19.189      464.547      659.606      368.232        0.269        0.075       61.643       14.532        0.056      344.336       21.083      865.014
10/06/2013  14:08:00       21.743        1.078       -2.873       18.815       23.847       21.324      354.005      568.700      454.695        0.093        0.069       21.770        9.176        0.178      344.456       21.289      865.001
10/06/2013  14:09:00      -51.515      -35.222      -11.258       75.451       45.919       26.879     5692.873     2108.583      722.460        0.627        0.426       62.405       10.927        0.031      344.261       20.954      864.986
10/06/2013  14:10:00     -137.466      -56.698      -12.984       38.039       32.371       23.137     1446.950     1047.871      535.322        1.265        0.152      148.699       22.232        0.022      344.354       21.114      864.949
10/06/2013  14:11:00      -42.242       66.194       -8.862       33.452       59.184       24.124     1119.066     3502.690      581.986        0.572        0.260       78.524       16.668        0.045      344.480       21.330      864.928
10/06/2013  14:12:00       -4.591        9.786       23.243       21.835       28.497       17.679      476.746      812.073      312.555        0.113        0.080       10.810       11.976        1.228      345.178       22.524      864.905
10/06/2013  14:13:00       -0.089        8.105      -16.522       18.967       18.417        7.089      359.766      339.197       50.257        0.054        0.037        8.105        6.585        0.660      344.683       21.676      864.877
10/06/2013  14:14:00        6.212      -21.510      -12.418       27.769       32.653       16.315      771.140     1066.223      266.168        0.138        0.105       22.389       10.139        0.205      344.758       21.804      864.866
10/06/2013  14:15:00        9.298      -77.822       -6.183       27.812       39.310       24.137      773.519     1545.302      582.606        0.454        0.145       78.375       11.600        0.022      344.511       21.382      864.847
10/06/2013  14:16:00       37.985      -34.486      -15.568       20.882       24.114       13.731      436.058      581.472      188.533        0.204        0.060       51.305       10.270        0.040      344.419       21.224      864.838
10/06/2013  14:17:00       40.056       35.789       -7.340       24.236       27.644       13.038      587.374      764.210      169.990        0.223        0.076       53.715        9.375        0.030      344.453       21.282      864.813
10/06/2013  14:18:00        8.408        3.255      -13.724       32.206       38.397       20.816     1037.210     1474.358      433.326        0.161        0.147        9.016       13.707        2.312      344.718       21.737      864.807
10/06/2013  14:19:00      -14.941       34.844       29.043       28.301       27.173       16.032      800.933      738.369      257.035        0.204        0.090       37.912       13.845        0.133      345.005       22.228      864.802
10/06/2013  14:20:00        2.598       57.422        4.685       28.351       37.661       26.134      803.769     1418.386      682.975        0.311        0.145       57.480       17.138        0.089      344.882       22.017      864.804
10/06/2013  14:21:00       20.624       67.686       28.053       40.685       47.998       35.071     1655.291     2303.800     1230.004        0.549        0.259       70.758       24.025        0.115      344.884       22.020      864.794
10/06/2013  14:22:00      -12.904       25.420       28.991       53.284       36.614       24.384     2839.140     1340.608      594.586        0.321        0.239       28.507       18.451        0.419      345.422       22.940      864.802
10/06/2013  14:23:00     -111.890      -29.259        9.350       48.157       38.479       25.491     2319.110     1480.668      649.815        0.896        0.222      115.653       21.388        0.034      344.846       21.955      864.782
10/06/2013  14:24:00      -76.843      -13.596        9.184       52.283       49.351       25.768     2733.543     2435.530      663.984        0.600        0.292       78.037       26.143        0.112      344.819       21.908      864.778
10/06/2013  14:25:00       22.494       16.031       22.778       38.135       27.482       28.327     1454.293      755.285      802.412        0.215        0.151       27.622       11.873        0.185      344.325       21.064      864.751
10/06/2013  14:26:00       60.135       31.127       12.157       20.503       33.914       29.501      420.355     1150.164      870.301        0.359        0.122       67.713       10.149        0.022      344.358       21.121      864.750
10/06/2013  14:27:00       34.430       23.604        2.056       28.368       37.099       20.899      804.739     1376.357      436.774        0.218        0.131       41.744        9.091        0.047      344.038       20.573      864.734
10/06/2013  14:28:00       41.705        1.927       11.319       30.975       50.971       28.339      959.434     2598.050      803.114        0.311        0.218       41.749       25.776        0.381      344.238       20.915      864.726
10/06/2013  14:29:00       25.855      -22.641       17.974       24.807       44.984       23.811      615.409     2023.537      566.948        0.235        0.160       34.367       28.917        0.708      344.927       22.092      864.722
10/06/2013  14:30:00        7.622      -51.432       20.660       38.170       59.456       36.206     1456.978     3534.960     1310.848        0.472        0.315       51.993       32.611        0.393      345.037       22.280      864.723
10/06/2013  14:31:00       64.775      -82.953       -1.947       48.539       63.767       32.154     2356.070     4066.273     1033.877        0.927        0.373      105.247       36.076        0.117      344.887       22.025      864.722
10/06/2013  14:32:00        5.042       18.840       36.593       27.185       43.600       27.298      739.030     1900.993      745.169        0.255        0.169       19.503       27.938        2.052      344.631       21.588      864.706
10/06/2013  14:33:00       40.423      -58.180       10.155       38.031       34.277       24.130     1446.342     1174.895      582.269        0.416        0.160       70.844       25.469        0.129      345.050       22.304      864.679
10/06/2013  14:34:00        4.772        0.399       37.463       22.716       44.641       24.694      515.998     1992.784      609.817        0.227        0.156        4.789       27.116       32.061      345.134       22.448      864.645
10/06/2013  14:35:00       19.596       29.429       18.705       29.393       26.700       27.154      863.968      712.884      737.362        0.196        0.116       35.357       16.151        0.209      344.482       21.331      864.620
10/06/2013  14:36:00       33.289      -14.332       20.822       32.720       33.397       23.025     1070.578     1115.352      530.150        0.223        0.136       36.243       16.491        0.207      344.369       21.140      864.598
10/06/2013  14:37:00       56.282     -103.149       -4.681       51.983       41.250       22.121     2702.281     1701.523      489.324        0.936        0.245      117.505       20.633        0.031      345.019       22.252      864.603
10/06/2013  14:38:00       74.634     -101.649        2.095       24.744       30.677       24.143      612.246      941.089      582.880        0.902        0.107      126.105       19.640        0.024      344.844       21.950      864.601
10/06/2013  14:39:00       12.027      -11.289       32.281       22.744       51.488       32.129      517.284     2651.025     1032.287        0.276        0.210       16.495       27.947        2.870      345.028       22.266      864.598
10/06/2013  14:40:00       16.986       -0.694       35.678       31.787       35.907       27.152     1010.400     1289.285      737.219        0.230        0.152       17.000       16.299        0.919      345.280       22.699      864.596
10/06/2013  14:41:00      -71.360      -39.837       -2.584       43.928       55.760       28.743     1929.710     3109.138      826.178        0.627        0.293       81.727       27.499        0.113      345.235       22.620      864.584
10/06/2013  14:42:00      -28.879      -18.019       15.578       69.095       38.934       31.183     4774.108     1515.840      972.386        0.433        0.363       34.039       31.459        0.854      345.354       22.824      864.583
10/06/2013  14:43:00      -92.699      -13.544       -3.904       33.233       19.813       14.702     1104.408      392.541      216.150        0.525        0.086       93.683       14.465        0.024      345.070       22.338      864.582
10/06/2013  14:44:00      -93.573      -34.974        1.152       34.049       28.356       21.534     1159.353      804.090      463.733        0.620        0.121       99.895       22.337        0.050      345.022       22.257      864.591
10/06/2013  14:45:00     -125.899      -57.264       -5.194       45.093       29.481       21.473     2033.341      869.156      461.086        1.126        0.168      138.310       20.174        0.021      345.149       22.473      864.597
10/06/2013  14:46:00      -55.291      -38.693       -3.435       80.097       28.286       30.165     6415.589      800.070      909.951        0.634        0.406       67.485       19.512        0.084      345.048       22.301      864.600
10/06/2013  14:47:00       48.666      -34.588       -2.750       32.842       25.567       26.033     1078.612      653.672      677.714        0.299        0.120       59.705       17.698        0.088      344.349       21.105      864.611
10/06/2013  14:48:00        8.807       12.382        9.141       30.090       23.974       20.825      905.406      574.749      433.685        0.111        0.096       15.194       13.870        0.833      344.418       21.223      864.604
10/06/2013  14:49:00      -48.763      -46.494       -2.291      106.784       45.315       27.402    11402.872     2053.438      750.895        0.937        0.710       67.376       28.312        0.177      344.589       21.515      864.591
10/06/2013  14:50:00     -146.826      -34.200       -4.930       24.658       24.069       17.200      608.029      579.319      295.848        1.212        0.074      150.756       11.019        0.005      345.075       22.347      864.590
10/06/2013  14:51:00      -78.287       -5.953        5.300       34.297       29.520       22.414     1176.252      871.455      502.407        0.437        0.128       78.513       15.559        0.039      345.364       22.842      864.559
10/06/2013  14:52:00      -45.353       37.212       -1.597       35.461       26.933       19.746     1257.494      725.413      389.913        0.291        0.119       58.666       16.298        0.077      345.288       22.711      864.543
10/06/2013  14:53:00       -2.895       -0.998       13.749       35.901       54.175       24.275     1288.898     2934.876      589.295        0.250        0.241        3.062       16.377       28.602      345.410       22.921      864.525
10/06/2013  14:54:00      -34.894       22.481       15.509       30.363       23.248       27.013      921.931      540.471      729.677        0.208        0.110       41.509       18.206        0.192      345.496       23.068      864.511
10/06/2013  14:55:00      -47.750       21.628        7.417       25.586       19.622       16.721      654.665      385.028      279.586        0.206        0.066       52.420        8.400        0.026      345.421       22.940      864.504
10/06/2013  14:56:00      -28.351       23.806       21.742       47.058       29.508       20.547     2214.432      870.741      422.193        0.267        0.175       37.020       14.074        0.145      345.149       22.475      864.492
10/06/2013  14:57:00      -13.816       10.157       25.732       22.135       25.098       16.605      489.962      629.915      275.734        0.118        0.070       17.148       11.908        0.482      344.397       21.187      864.491
10/06/2013  14:58:00      -48.264        1.653       19.099       42.849       35.614       23.984     1836.038     1268.356      575.229        0.319        0.184       48.292       27.802        0.331      344.925       22.090      864.482
10/06/2013  14:59:00      -40.037      -37.897       12.696       37.972       21.775       17.995     1441.836      474.168      323.803        0.272        0.112       55.128       19.376        0.124      345.167       22.504      864.479
10/06/2013  15:00:00      -45.355       -5.609       -4.605       24.941       24.640       19.377      622.051      607.131      375.450        0.186        0.080       45.701        5.064        0.012      345.391       22.886      864.460
10/06/2013  15:01:00       36.443       -5.746       17.495       59.912       38.867       36.214     3589.480     1510.661     1311.451        0.404        0.321       36.893       24.036        0.424      344.632       21.588      864.441
10/06/2013  15:02:00       55.155       21.518       36.381       44.871       36.392       31.578     2013.431     1324.380      997.165        0.458        0.217       59.204       30.553        0.266      344.419       21.225      864.434
10/06/2013  15:03:00       49.690       20.523       26.212       68.206       38.944       28.987     4652.013     1516.637      840.217        0.529        0.350       53.761       24.343        0.205      344.869       21.995      864.430
10/06/2013  15:04:00       31.348        5.150       18.795       36.657       39.642       26.989     1343.709     1571.513      728.392        0.250        0.182       31.768       24.232        0.582      345.002       22.223      864.418
10/06/2013  15:05:00       34.169       25.498       12.325       38.396       31.781       28.147     1474.257     1010.034      792.237        0.262        0.164       42.634       18.437        0.187      344.978       22.180      864.419
10/06/2013  15:06:00       73.061       53.407       24.913       35.769       28.131       24.082     1279.456      791.339      579.952        0.573        0.133       90.499       11.201        0.015      345.239       22.629      864.433
10/06/2013  15:07:00       -0.524       19.314        2.968       32.100       15.866       19.888     1030.384      251.745      395.539        0.103        0.084       19.321       13.397        0.481      344.966       22.160      864.443
10/06/2013  15:08:00      -75.331       -7.093       -9.700       31.046       18.409       14.411      963.877      338.891      207.686        0.366        0.076       75.664        6.986        0.009      345.372       22.856      864.448
10/06/2013  15:09:00     -118.455       -7.417      -15.441       14.887       26.154       14.859      221.623      684.054      220.781        0.773        0.056      118.687        6.918        0.003      345.195       22.553      864.445
10/06/2013  15:10:00      -66.543       17.859      -13.061       19.211       19.968       12.478      369.079      398.728      155.689        0.292        0.046       68.898        3.676        0.003      345.288       22.710      864.430
10/06/2013  15:11:00      -77.859       30.039       -6.016       33.089       28.513       25.392     1094.849      812.975      644.753        0.478        0.128       83.453       10.646        0.016      345.386       22.879      864.410
10/06/2013  15:12:00       -6.888        0.552        5.078       39.399       17.582       18.761     1552.256      309.136      351.958        0.114        0.111        6.910       12.072        3.052      345.204       22.568      864.394
10/06/2013  15:13:00       26.195        8.546       31.635       36.983       22.791       20.818     1367.744      519.410      433.393        0.204        0.116       27.554        8.579        0.097      344.451       21.279      864.376
10/06/2013  15:14:00       23.428       20.030        2.021       19.055       21.775       17.017      363.078      474.150      289.571        0.104        0.056       30.823        8.858        0.083      344.563       21.471      864.356
10/06/2013  15:15:00       -2.716        1.320        5.172       11.288       13.318       14.521      127.421      177.367      210.846        0.028        0.026        3.020       10.916       13.067      345.476       23.034      864.340
10/06/2013  15:16:00       22.384       -9.223       15.352       28.126       32.176       23.821      791.069     1035.277      567.429        0.161        0.120       24.209       18.635        0.592      345.343       22.805      864.330
10/06/2013  15:17:00        1.024       21.710       44.036       19.627       35.673       15.904      385.213     1272.556      252.943        0.216        0.096       21.734       17.317        0.635      345.304       22.738      864.322
10/06/2013  15:18:00       -0.901       10.229       33.016       21.141       28.119       24.015      446.935      790.685      576.697        0.150        0.091       10.269       17.930        3.049      345.553       23.167      864.316
10/06/2013  15:19:00        3.060      -28.765       23.968       20.085       45.367       28.762      403.404     2058.153      827.255        0.235        0.164       28.927       22.832        0.623      345.674       23.373      864.304
10/06/2013  15:20:00       32.704      -67.385      -17.490       32.982       42.156       30.185     1087.825     1777.106      911.134        0.485        0.189       74.901       22.204        0.088      345.286       22.707      864.292
10/06/2013  15:21:00       -3.984      -40.905       29.498       29.712       53.784       28.296      882.821     2892.729      800.654        0.357        0.229       41.099       23.465        0.326      345.437       22.965      864.277
10/06/2013  15:22:00       15.064       -0.426       34.019       30.331       35.414       19.843      919.948     1254.149      393.750        0.198        0.128       15.070        8.243        0.299      345.261       22.665      864.268
10/06/2013  15:23:00       47.736      -14.147       20.124       43.043       30.198       26.849     1852.730      911.898      720.874        0.318        0.174       49.788       22.835        0.210      344.471       21.313      864.256
10/06/2013  15:24:00       33.889      -41.081       16.045       38.395       37.028       32.060     1474.204     1371.080     1027.856        0.348        0.194       53.256       22.091        0.172      345.246       22.641      864.239
10/06/2013  15:25:00       33.156      -34.054        9.027       43.630       53.789       28.238     1903.583     2893.203      797.371        0.397        0.280       47.528       32.159        0.458      345.156       22.486      864.221
10/06/2013  15:26:00       10.992       -4.212       30.569       31.212       41.953       31.865      974.182     1760.087     1015.381        0.241        0.187       11.772       20.866        3.142      344.868       21.993      864.191
10/06/2013  15:27:00       17.085       -9.186       22.579       41.169       33.807       26.550     1694.848     1142.889      704.889        0.221        0.177       19.398       19.326        0.993      344.834       21.934      864.168
10/06/2013  15:28:00       17.559      -28.297       27.776       32.317       37.522       31.008     1044.358     1407.923      961.524        0.265        0.171       33.303       21.457        0.415      345.235       22.620      864.155
10/06/2013  15:29:00       23.107       -8.134       27.874       41.913       42.005       26.893     1756.671     1764.441      723.252        0.281        0.212       24.497       27.782        1.286      345.099       22.388      864.138
10/06/2013  15:30:00       32.792       -9.897       26.620       35.542       19.481       20.217     1263.246      379.508      408.708        0.197        0.103       34.253       16.193        0.224      345.025       22.261      864.125
10/06/2013  15:31:00        6.312      -22.345       -5.463       26.005       34.807       20.209      676.240     1211.548      408.406        0.143        0.115       23.219       14.545        0.392      345.124       22.431      864.118
10/06/2013  15:32:00        8.760      -21.568      -35.518       25.692       34.579       15.912      660.062     1195.718      253.191        0.196        0.105       23.279       14.167        0.370      345.171       22.510      864.110
10/06/2013  15:33:00       41.509       18.034       -3.863       26.353       26.323       24.485      694.500      692.876      599.499        0.202        0.099       45.257       13.695        0.092      344.865       21.987      864.102
10/06/2013  15:34:00        9.384       13.383       27.641       29.786       27.418       24.496      887.216      751.753      600.037        0.163        0.112       16.345       19.683        1.450      345.050       22.303      864.093
10/06/2013  15:35:00        0.784       23.366       20.933       18.368       22.539       21.893      337.369      507.997      479.313        0.115        0.066       23.379       12.187        0.272      344.829       21.925      864.083
10/06/2013  15:36:00       31.638        7.113       24.861       36.440       26.314       24.745     1327.868      692.432      612.329        0.215        0.132       32.428       25.491        0.618      344.664       21.644      864.071
10/06/2013  15:37:00       40.770      -20.504        3.050       27.862       16.848       16.543      776.275      283.866      273.683        0.171        0.067       45.636        5.157        0.013      345.384       22.875      864.066
10/06/2013  15:38:00       64.747      -24.352       -2.283       18.564       19.511       19.050      344.640      380.698      362.913        0.294        0.054       69.175       11.089        0.026      345.174       22.517      864.058
10/06/2013  15:39:00       14.660      -18.300       -6.261       16.203       13.450       26.691      262.547      180.891      712.389        0.087        0.058       23.448       11.253        0.230      345.702       23.422      864.037
10/06/2013  15:40:00       48.551       18.459       15.772       30.687       25.395       29.070      941.710      644.881      845.065        0.269        0.122       51.941       14.833        0.082      344.908       22.062      864.035
10/06/2013  15:41:00       41.748       15.622        3.133       17.279       18.885       21.418      298.563      356.637      458.736        0.156        0.056       44.575       11.772        0.070      344.693       21.694      864.026
10/06/2013  15:42:00      -21.262      -27.211        1.856       24.597       24.155       14.008      605.003      583.473      196.235        0.129        0.069       34.533       12.563        0.132      345.556       23.171      864.018
10/06/2013  15:43:00        6.148       -9.896       16.712       25.967       21.979       17.915      674.311      483.066      320.953        0.095        0.074       11.650       15.608        1.795      345.189       22.541      864.016
10/06/2013  15:44:00       22.435      -10.548       -2.272       19.203       26.346       18.486      368.764      694.117      341.743        0.101        0.070       24.791        6.264        0.064      344.949       22.131      863.995
10/06/2013  15:45:00       61.474       31.299       41.413       27.521       27.533       34.770      757.427      758.059     1208.955        0.460        0.136       68.983        8.790        0.016      345.010       22.235      863.963
10/06/2013  15:46:00       60.108      -20.464        3.377       25.847       32.690       23.091      668.084     1068.639      533.200        0.316        0.113       63.496       16.789        0.070      344.552       21.453      863.939
10/06/2013  15:47:00       37.148      -16.403       -5.097       21.114       33.696       23.857      445.810     1135.446      569.142        0.191        0.108       40.608        8.701        0.046      344.632       21.590      863.929
10/06/2013  15:48:00       23.276      -13.819       -9.455       17.051       18.174       23.693      290.724      330.296      561.340        0.100        0.059       27.069       11.049        0.167      345.222       22.598      863.918
10/06/2013  15:49:00       42.371       11.146       15.413       23.555       30.964       24.435      554.819      958.793      597.049        0.213        0.106       43.812       13.931        0.101      344.842       21.948      863.905
10/06/2013  15:50:00        1.594      -21.647       13.334       10.870       34.874       19.280      118.158     1216.224      371.727        0.118        0.085       21.706       13.297        0.375      345.421       22.940      863.896
10/06/2013  15:51:00        9.511        9.958       22.970       17.471       21.081       20.010      305.228      444.396      400.382        0.093        0.058       13.770       13.567        0.971      345.057       22.316      863.900
10/06/2013  15:52:00        3.595       -0.517       -3.988       13.443       16.997       11.572      180.703      288.908      133.912        0.032        0.030        3.632        8.762        5.819      345.574       23.202      863.904
10/06/2013  15:53:00       10.469        2.247        3.884       11.028       14.172        9.653      121.621      200.856       93.177        0.027        0.021       10.708        4.737        0.196      345.451       22.991      863.914
10/06/2013  15:54:00       10.925       31.653       30.501       19.163       14.609       13.258      367.225      213.426      175.786        0.140        0.038       33.485        6.566        0.038      345.070       22.338      863.909
10/06/2013  15:55:00        2.521       25.870       26.976       22.474       17.169       21.259      505.102      294.758      451.966        0.133        0.063       25.992        9.905        0.145      344.891       22.032      863.900
10/06/2013  15:56:00       15.869       10.338       19.717       21.892       24.597       28.557      479.251      604.990      815.502        0.132        0.095       18.939       24.907        1.730      344.877       22.008      863.893
10/06/2013  15:57:00       10.120       10.625       21.066       17.442       15.021       15.121      304.213      225.632      228.630        0.071        0.038       14.673       14.939        1.037      345.248       22.642      863.884
10/06/2013  15:58:00      -29.895       -1.486       17.254       34.396       26.505       16.661     1183.114      702.492      277.593        0.168        0.108       29.932       18.182        0.369      345.350       22.817      863.866
10/06/2013  15:59:00      -32.958      -12.216       10.726       33.007       27.378       16.312     1089.470      749.552      266.093        0.173        0.105       35.149       16.018        0.208      345.830       23.642      863.859
10/06/2013  16:00:00      -13.662       -4.010        9.352       19.448       22.985       16.059      378.229      528.296      257.889        0.073        0.058       14.238        8.021        0.317      345.643       23.322      863.838
10/06/2013  16:01:00      -43.519       -8.807       19.922       48.549       36.874       23.512     2357.042     1359.674      552.834        0.332        0.213       44.402       24.642        0.308      345.644       23.325      863.826
10/06/2013  16:02:00      -28.977       -5.034       16.525       46.331       34.214       20.235     2146.516     1170.577      409.474        0.243        0.186       29.411       16.342        0.309      345.487       23.055      863.818
10/06/2013  16:03:00       -6.688       19.036       29.141       14.059       17.345       16.811      197.655      300.849      282.602        0.102        0.039       20.177        9.699        0.231      345.126       22.434      863.818
10/06/2013  16:04:00        1.881      -13.005       22.373       19.677       47.341       26.508      387.178     2241.167      702.673        0.200        0.167       13.141       15.998        1.482      345.492       23.063      863.814
10/06/2013  16:05:00       58.647      -74.701        3.595       27.943       29.467       19.759      780.831      868.281      390.430        0.554        0.102       94.972       16.367        0.030      345.965       23.874      863.795
10/06/2013  16:06:00       38.070      -24.277       14.068       38.583       38.162       21.343     1488.636     1456.356      455.541        0.282        0.170       45.152       25.199        0.311      345.726       23.464      863.784
10/06/2013  16:07:00      -12.581        2.983       42.337       22.232       39.508       27.480      494.277     1560.894      755.127        0.238        0.141       12.930       11.996        0.861      345.581       23.213      863.778
10/06/2013  16:08:00       25.230      -28.147       26.168       41.151       40.110       29.259     1693.442     1608.822      856.065        0.314        0.208       37.799       24.849        0.432      345.833       23.646      863.764
10/06/2013  16:09:00       32.272      -35.067       19.605       38.794       30.318       31.772     1505.001      919.176     1009.434        0.304        0.172       47.657       25.813        0.293      345.865       23.700      863.744
10/06/2013  16:10:00       25.405      -27.353       26.398       23.886       35.384       19.481      570.522     1252.017      379.526        0.215        0.110       37.331       18.658        0.250      345.726       23.463      863.719
10/06/2013  16:11:00       67.388      -82.154        0.965       27.118       35.795       23.883      735.407     1281.287      570.410        0.694        0.129      106.256       15.348        0.021      345.527       23.123      863.710
10/06/2013  16:12:00       61.299     -115.857        5.235       48.436       33.912       31.051     2346.074     1149.999      964.193        1.083        0.223      131.074       22.210        0.029      346.099       24.103      863.704
10/06/2013  16:13:00       84.184      -74.044        9.041       61.518       66.290       43.410     3784.501     4394.394     1884.394        1.136        0.503      112.114       40.641        0.131      345.767       23.532      863.686
10/06/2013  16:14:00       36.871      -36.384       21.349       40.041       55.641       38.685     1603.284     3095.891     1496.550        0.467        0.310       51.800       43.289        0.698      345.923       23.800      863.686
10/06/2013  16:15:00       51.274      -83.816       10.174       31.409       37.777       26.135      986.502     1427.097      683.041        0.643        0.155       98.256       19.615        0.040      346.087       24.082      863.682
10/06/2013  16:16:00       30.395      -41.943       17.785       24.812       35.085       23.533      615.632     1230.957      553.794        0.270        0.120       51.799       19.767        0.146      346.113       24.127      863.684
10/06/2013  16:17:00       15.285        2.733       34.222       31.941       35.281       20.534     1020.201     1244.750      421.661        0.205        0.134       15.527       18.833        1.471      346.084       24.077      863.671
10/06/2013  16:18:00       -5.906        9.006       21.078       21.050       32.170       30.187      443.094     1034.930      911.233        0.147        0.119       10.770       26.699        6.146      345.579       23.211      863.658
10/06/2013  16:19:00        6.914       -9.463       18.265       24.694       38.902       22.088      609.813     1513.403      487.891        0.154        0.131       11.720       23.354        3.971      345.538       23.139      863.646
10/06/2013  16:20:00       56.680      -84.994       10.908       27.191       28.267       29.082      739.357      799.000      845.767        0.647        0.119      102.160       14.253        0.019      346.159       24.207      863.642
10/06/2013  16:21:00       27.803      -85.610       -7.016       21.096       19.781       18.687      445.059      391.299      349.192        0.467        0.059       90.012       12.112        0.018      346.105       24.114      863.622
10/06/2013  16:22:00       22.298      -73.797       16.678       35.860       55.711       31.149     1285.973     3103.706      970.286        0.579        0.268       77.092       19.580        0.065      345.701       23.419      863.601
10/06/2013  16:23:00      101.874      -28.556        8.397       74.137       43.793       36.945     5496.252     1917.784     1364.950        1.002        0.439      105.800       29.820        0.079      345.232       22.616      863.593
10/06/2013  16:24:00       78.582      -45.835       -3.044       37.770       42.085       30.086     1426.540     1771.146      905.170        0.619        0.205       90.972       25.032        0.076      345.684       23.392      863.587
10/06/2013  16:25:00       25.885      -56.045       37.992       51.533       65.346       42.057     2655.619     4270.102     1768.777        0.697        0.435       61.734       25.673        0.173      346.152       24.195      863.559
10/06/2013  16:26:00       63.341      -17.276       27.554       74.298       49.038       36.432     5520.204     2404.751     1327.324        0.716        0.463       65.655       21.682        0.109      345.515       23.102      863.557
10/06/2013  16:27:00       69.735      -26.322       13.946       53.513       29.801       25.161     2863.604      888.094      633.087        0.507        0.219       74.537       20.398        0.075      345.481       23.043      863.566
10/06/2013  16:28:00       62.755      -10.525        3.837       33.998       47.250       28.809     1155.870     2232.524      829.963        0.414        0.211       63.631       20.263        0.101      345.248       22.643      863.565
10/06/2013  16:29:00       66.176      -17.653       -9.803       36.324       29.785       26.040     1319.458      887.169      678.072        0.384        0.144       68.490       16.799        0.060      344.897       22.043      863.549
10/06/2013  16:30:00        7.014      -56.602       24.387       40.528       45.646       35.687     1642.512     2083.583     1273.567        0.442        0.250       57.035       27.809        0.238      345.761       23.522      863.533
10/06/2013  16:31:00       65.374       34.269       19.662       32.784       34.426       29.109     1074.778     1185.158      847.338        0.447        0.155       73.812       21.635        0.086      345.422       22.941      863.531
10/06/2013  16:32:00       32.343       18.632       25.749       21.999       16.183       15.984      483.976      261.905      255.494        0.153        0.050       37.325        7.604        0.042      345.787       23.568      863.528
10/06/2013  16:33:00        8.766       -9.107        6.402       12.946       14.432        7.438      167.591      208.287       55.328        0.032        0.022       12.640        7.096        0.315      346.460       24.724      863.513
10/06/2013  16:34:00       19.438        5.109       16.440       13.877       24.177        9.093      192.566      584.538       82.691        0.077        0.043       20.098        8.094        0.162      345.981       23.901      863.490
10/06/2013  16:35:00       15.780       25.172        8.028       36.827       23.176       20.815     1356.209      537.133      433.283        0.164        0.116       29.709       11.269        0.144      345.523       23.114      863.476
10/06/2013  16:36:00       37.570       14.075       26.117       27.573       16.068       18.537      760.281      258.171      343.615        0.183        0.068       40.120       14.859        0.137      345.696       23.411      863.468
10/06/2013  16:37:00      -10.304       17.747       31.968       18.621       15.627       16.098      346.744      244.199      259.159        0.115        0.043       20.522        7.504        0.134      345.309       22.749      863.466
10/06/2013  16:38:00       31.274      -35.394       12.819       34.589       45.841       20.989     1196.373     2101.435      440.523        0.307        0.187       47.231       19.114        0.164      345.969       23.880      863.453
10/06/2013  16:39:00       11.859      -22.659       24.697       27.993       39.478       20.531      783.630     1558.523      421.537        0.201        0.138       25.575       18.250        0.509      346.030       23.984      863.439
10/06/2013  16:40:00       24.285      -40.284       26.897       30.035       38.107       27.789      902.071     1452.142      772.252        0.303        0.156       47.038       22.821        0.235      346.079       24.070      863.425
10/06/2013  16:41:00       79.706     -110.946       -7.619       43.943       60.591       31.895     1930.970     3671.228     1017.275        1.267        0.331      136.609       29.301        0.046      346.083       24.075      863.410
10/06/2013  16:42:00       61.919      -19.269       15.940       34.960       30.887       27.787     1222.182      953.979      772.117        0.370        0.147       64.848       20.284        0.098      345.190       22.542      863.412
10/06/2013  16:43:00       30.346      -29.261       15.035       16.679       36.671       22.925      278.205     1344.745      525.537        0.208        0.107       42.156       19.838        0.221      345.895       23.752      863.406
10/06/2013  16:44:00       -1.155       16.795       29.532       16.742       30.584       19.130      280.302      935.400      365.938        0.137        0.079       16.835       18.546        1.214      345.553       23.165      863.388
10/06/2013  16:45:00       12.237      -29.426       -1.615       28.423       41.348       25.544      807.862     1709.646      652.504        0.209        0.159       31.869       19.222        0.364      345.887       23.740      863.377
10/06/2013  16:46:00       36.374      -63.671        6.707       25.987       27.684       19.727      675.298      766.411      389.136        0.363        0.092       73.328       14.772        0.041      346.184       24.249      863.373
10/06/2013  16:47:00       22.482      -26.586       14.999       32.752       41.805       20.822     1072.664     1747.662      433.552        0.234        0.163       34.818       24.926        0.513      345.847       23.669      863.363
10/06/2013  16:48:00       13.884       -1.291       21.465       32.273       24.668       19.262     1041.530      608.502      371.024        0.134        0.101       13.943       15.838        1.290      345.424       22.944      863.357
10/06/2013  16:49:00       -3.857       15.813       36.028       20.807       19.509       13.023      432.947      380.607      169.591        0.127        0.049       16.277        9.333        0.329      345.094       22.379      863.353
10/06/2013  16:50:00       -9.728       22.680       42.081       12.184       29.837       16.123      148.459      890.218      259.936        0.184        0.065       24.678       12.447        0.254      345.040       22.286      863.348
10/06/2013  16:51:00       21.379       -6.909        2.998       20.355       22.521       10.728      414.313      507.174      115.094        0.077        0.052       22.468       10.119        0.203      345.455       22.998      863.337
10/06/2013  16:52:00       22.802       -3.439       20.527       19.239       19.852       12.003      370.122      394.099      144.068        0.093        0.045       23.060        4.522        0.038      345.457       23.001      863.335
10/06/2013  16:53:00       -4.232       13.535       26.081       12.178       16.882       21.442      148.307      285.003      459.752        0.089        0.045       14.181       13.987        0.973      345.232       22.616      863.322
10/06/2013  16:54:00       -1.553       31.717       44.024       27.238       31.263       20.417      741.915      977.345      416.855        0.254        0.107       31.755       19.292        0.369      344.941       22.118      863.313
10/06/2013  16:55:00       33.478      -53.255        5.456       45.179       76.076       38.489     2041.143     5787.624     1481.384        0.665        0.466       62.903       53.838        0.733      345.660       23.350      863.309
10/06/2013  16:56:00       67.846     -124.464      -12.246       30.373       32.641       22.062      922.497     1065.461      486.722        1.136        0.124      141.754       20.337        0.021      346.257       24.375      863.298
10/06/2013  16:57:00       40.182      -25.318       11.520       27.091       49.617       23.623      733.933     2461.876      558.023        0.307        0.188       47.493       22.796        0.230      345.764       23.528      863.306
10/06/2013  16:58:00       26.349      -18.678        4.952       27.018       23.298       15.606      729.971      542.776      243.536        0.129        0.076       32.297       13.044        0.163      345.280       22.699      863.305
10/06/2013  16:59:00       -4.595        2.641       16.226       16.747       24.619       13.200      280.474      606.074      174.248        0.068        0.053        5.300        9.102        2.950      345.399       22.902      863.313
10/06/2013  17:00:00       23.715      -77.883        5.091       29.035       35.314       24.566      843.036     1247.107      603.479        0.467        0.135       81.413       21.273        0.068      346.158       24.204      863.319
10/06/2013  17:01:00       29.359       -7.405       11.652       15.290       20.224       21.124      233.785      409.001      446.228        0.107        0.054       30.279        9.656        0.102      345.708       23.431      863.323
10/06/2013  17:02:00       22.205      -18.586       20.073       30.253       45.232       29.993      915.234     2045.967      899.593        0.255        0.193       28.957       32.052        1.225      345.884       23.733      863.327
10/06/2013  17:03:00       10.760      -41.556       13.494       35.103       30.000       20.395     1232.222      899.984      415.946        0.229        0.127       42.927       14.657        0.117      346.105       24.114      863.319
10/06/2013  17:04:00      -35.417       22.574       16.262       27.292       42.391       29.077      744.859     1796.998      845.468        0.271        0.169       42.000       28.936        0.475      345.881       23.729      863.328
10/06/2013  17:05:00      -17.255       17.526       34.938       17.498       23.204       16.011      306.171      538.436      256.355        0.146        0.055       24.595       12.396        0.254      345.446       22.982      863.325
10/06/2013  17:06:00      -43.116       -8.817       17.672       24.804       36.811       18.026      615.259     1355.028      324.928        0.227        0.115       44.008       19.233        0.191      345.824       23.629      863.319
10/06/2013  17:07:00      -60.554      -39.572        3.728       18.330       21.558       11.507      336.003      464.731      132.413        0.309        0.047       72.338        7.970        0.012      346.220       24.310      863.305
10/06/2013  17:08:00       -4.627      -19.218       14.018       37.881       28.600       19.435     1434.961      817.954      377.706        0.161        0.132       19.767       18.767        0.901      345.353       22.823      863.283
10/06/2013  17:09:00       21.057      -31.206       18.131       28.118       35.358       21.062      790.599     1250.218      443.604        0.211        0.124       37.646       22.188        0.347      345.298       22.730      863.269
10/06/2013  17:10:00        2.841       25.778       36.032       18.618       23.186       19.272      346.620      537.581      371.397        0.161        0.063       25.934       10.464        0.163      344.893       22.036      863.259
10/06/2013  17:11:00       20.507      -22.581        1.809       32.286       24.116       18.356     1042.374      581.559      336.931        0.145        0.098       30.503       18.424        0.365      345.522       23.113      863.252
10/06/2013  17:12:00       -6.227       10.945        8.391       14.590       17.152       18.310      212.865      294.198      335.255        0.054        0.042       12.593        9.952        0.625      345.064       22.328      863.258
10/06/2013  17:13:00        2.932        8.886        2.438       21.457       10.997       10.787      460.424      120.926      116.351        0.040        0.035        9.358       11.940        1.628      345.325       22.776      863.263
10/06/2013  17:14:00       -4.673       14.550        3.899       17.502       21.430       21.371      306.336      459.235      456.717        0.074        0.061       15.282       17.106        1.253      345.138       22.456      863.267
10/06/2013  17:15:00        3.105       11.867        6.402       13.261       16.285       17.682      175.858      265.215      312.637        0.047        0.038       12.267        9.043        0.543      344.833       21.933      863.265
10/06/2013  17:16:00       25.235        4.018       12.942       20.821       17.869       20.433      433.508      319.308      417.497        0.100        0.059       25.553       16.104        0.397      345.375       22.862      863.261
10/06/2013  17:17:00       -3.225        0.247       11.069        9.166       22.708       11.333       84.024      515.665      128.447        0.043        0.036        3.235       10.311       10.162      345.018       22.250      863.265
10/06/2013  17:18:00       40.447      -97.516        3.987       26.702       41.312       21.624      713.013     1706.691      467.581        0.702        0.144      105.572       14.853        0.020      345.960       23.863      863.272
10/06/2013  17:19:00       41.855      -80.845       12.070       30.950       28.524       25.922      957.904      813.615      671.969        0.544        0.122       91.037       17.871        0.039      346.146       24.183      863.267
10/06/2013  17:20:00       33.743      -83.241        8.077       26.247       26.454       21.511      688.908      699.802      462.723        0.499        0.093       89.820        3.474        0.001      346.054       24.025      863.266
10/06/2013  17:21:00       10.326       -3.741       23.135       21.707       36.681       19.875      471.189     1345.510      395.035        0.143        0.111       10.982       20.616        3.524      345.170       22.510      863.250
10/06/2013  17:22:00       22.534       -0.615       22.545       25.464       24.845       14.622      648.413      617.283      213.792        0.125        0.074       22.543       13.455        0.356      344.640       21.602      863.252
10/06/2013  17:23:00        6.151       35.470       39.651       23.984       27.862       21.327      575.209      776.276      454.828        0.234        0.090       36.000       16.419        0.208      344.405       21.202      863.246
10/06/2013  17:24:00       44.877      -15.323       13.521       20.097       13.645       13.229      403.887      186.178      175.005        0.160        0.038       47.420        7.075        0.022      345.187       22.539      863.242
10/06/2013  17:25:00        5.200        1.063       10.170       18.261       19.059       13.785      333.451      363.251      190.015        0.051        0.044        5.307        5.559        1.097      345.087       22.368      863.252
10/06/2013  17:26:00       28.636       14.183       18.990       23.837       21.699       18.858      568.189      470.832      355.620        0.139        0.070       31.956       19.432        0.370      345.490       23.058      863.258
10/06/2013  17:27:00       -5.299        6.799       12.259       17.786       17.558       13.772      316.331      308.290      189.675        0.052        0.041        8.620        6.361        0.545      345.003       22.223      863.258
10/06/2013  17:28:00      -14.511       10.139        4.169       13.413       14.704       11.929      179.918      216.219      142.311        0.043        0.027       17.702        7.856        0.197      345.128       22.439      863.259
10/06/2013  17:29:00      -49.917      -23.897        3.206       23.973       27.679       17.108      574.702      766.120      292.676        0.235        0.082       55.343       12.994        0.055      345.973       23.886      863.259
10/06/2013  17:30:00      -10.628      -13.745       -0.240       29.825       22.553       11.573      889.527      508.648      133.933        0.092        0.077       17.375        3.517        0.041      345.764       23.528      863.262
10/06/2013  17:31:00        4.128        5.304       11.431       34.565       20.719       15.585     1194.758      429.267      242.889        0.102        0.093        6.721       10.025        2.225      344.965       22.157      863.246
10/06/2013  17:32:00      -34.753      -58.020       -3.263       20.660       19.794       10.745      426.843      391.816      115.466        0.276        0.047       67.632        7.942        0.014      345.949       23.846      863.230
10/06/2013  17:33:00      -14.992      -14.435        3.513       21.777       12.864       10.127      474.226      165.489      102.565        0.059        0.037       20.812       10.065        0.234      346.087       24.082      863.207
10/06/2013  17:34:00      -18.107      -10.786        7.864       16.167       14.881       10.546      261.379      221.430      111.225        0.055        0.030       21.076        9.725        0.213      345.633       23.302      863.189
10/06/2013  17:35:00      -69.123      -47.585        1.291       28.753       33.746       15.044      826.716     1138.765      226.315        0.462        0.110       83.919       18.840        0.050      346.118       24.134      863.166
10/06/2013  17:36:00      -51.367        5.053        6.369       27.503       19.826       15.300      756.413      393.057      234.097        0.204        0.069       51.615       14.829        0.083      346.119       24.135      863.161
10/06/2013  17:37:00      -62.129      -16.683        0.925       29.578       25.096       11.428      874.857      629.801      130.606        0.289        0.082       64.330       11.345        0.031      345.862       23.698      863.167
10/06/2013  17:38:00      -92.714      -53.031       -4.571       16.775       20.344       12.576      281.398      413.870      158.149        0.614        0.043      106.809        7.484        0.005      346.024       23.974      863.188
10/06/2013  17:39:00      -66.387      -33.330        4.366       21.590       23.873       13.031      466.112      569.940      169.796        0.337        0.060       74.284        6.681        0.008      345.971       23.884      863.206
10/06/2013  17:40:00      -62.958      -33.187        0.092       30.335       21.195       13.361      920.208      449.230      178.526        0.331        0.077       71.169       12.544        0.031      345.852       23.678      863.207
10/06/2013  17:41:00      -64.062      -40.553        1.355       24.603       27.919       15.404      605.326      779.473      237.283        0.369        0.081       75.818       12.160        0.026      345.923       23.802      863.200
10/06/2013  17:42:00      -73.252      -28.736       -2.832       28.042       27.126       15.202      786.373      735.830      231.109        0.398        0.088       78.686       12.769        0.026      345.965       23.873      863.198
10/06/2013  17:43:00      -43.180      -28.786        9.691       42.178       19.258       16.832     1779.006      370.872      283.323        0.261        0.122       51.896       22.276        0.184      345.840       23.658      863.195
10/06/2013  17:44:00      -42.206      -26.042        0.316       19.669       13.561        8.535      386.885      183.900       72.851        0.155        0.032       49.594        6.505        0.017      345.956       23.857      863.183
10/06/2013  17:45:00      -26.827        1.366       11.516       28.995       19.637       17.252      840.724      385.595      297.637        0.119        0.076       26.862       15.273        0.323      345.184       22.535      863.168
10/06/2013  17:46:00      -64.460      -32.464        1.059       16.999       22.664       11.934      288.971      513.659      142.418        0.308        0.047       72.174       11.030        0.023      345.822       23.629      863.157
10/06/2013  17:47:00      -37.061      -17.633        2.782       24.619       17.282       13.374      606.093      298.677      178.854        0.139        0.054       41.042       13.173        0.103      345.654       23.340      863.148
10/06/2013  17:48:00      -34.153      -13.655        3.147       29.835       21.887       12.857      890.138      479.025      165.299        0.145        0.077       36.782       10.172        0.076      345.252       22.650      863.152
10/06/2013  17:49:00      -90.687      -23.323       -4.096       29.119       25.474       14.606      847.943      648.933      213.321        0.525        0.086       93.638       13.116        0.020      345.603       23.252      863.162
10/06/2013  17:50:00      -70.125      -16.929        2.376       42.512       29.306       20.740     1807.304      858.860      430.140        0.415        0.155       72.139       23.535        0.106      345.728       23.465      863.167
10/06/2013  17:51:00     -134.416      -28.920        4.830       53.918       33.982       22.849     2907.105     1154.794      522.082        1.175        0.229      137.492       24.427        0.032      345.838       23.656      863.169
10/06/2013  17:52:00     -104.214      -32.696        0.540       36.537       29.466       17.657     1334.969      868.254      311.773        0.722        0.126      109.223       11.200        0.011      345.829       23.640      863.164
10/06/2013  17:53:00      -74.793      -48.476        3.591       44.227       47.223       19.689     1955.991     2230.048      387.644        0.626        0.229       89.128       19.884        0.050      345.620       23.281      863.153
10/06/2013  17:54:00     -107.291      -32.237        1.121       33.713       31.926       18.636     1136.589     1019.299      347.300        0.753        0.125      112.029       16.528        0.022      345.717       23.447      863.148
10/06/2013  17:55:00     -121.869      -22.191        0.608       55.627       37.895       22.643     3094.405     1436.064      512.699        1.019        0.252      123.873       26.362        0.045      345.738       23.484      863.134
10/06/2013  17:56:00      -82.808      -37.181        4.044       36.304       24.789       19.178     1318.006      614.481      367.808        0.528        0.115       90.772       18.174        0.040      345.690       23.402      863.134
10/06/2013  17:57:00      -78.325      -28.671        7.437       36.666       28.357       17.234     1344.429      804.121      297.001        0.473        0.122       83.407       19.304        0.054      345.558       23.175      863.130
10/06/2013  17:58:00      -47.718      -26.245        7.650       37.329       29.691       17.562     1393.488      881.529      308.417        0.280        0.129       54.459       18.425        0.114      345.214       22.584      863.117
10/06/2013  17:59:00      -24.118      -22.228       12.851       27.484       30.138       17.836      755.394      908.286      318.115        0.161        0.099       32.799       14.632        0.199      344.928       22.095      863.102
10/06/2013  18:00:00      -35.904      -10.317        2.683       22.027       20.102       13.479      485.210      404.081      181.683        0.124        0.054       37.357       12.089        0.105      344.914       22.071      863.084
10/06/2013  18:01:00      -23.946      -18.304        3.837       23.020       13.789       10.207      529.917      190.141      104.185        0.087        0.041       30.141        6.660        0.049      344.823       21.916      863.080
10/06/2013  18:02:00      -20.204      -10.566        1.375       12.923       14.022        9.122      166.991      196.624       83.215        0.048        0.022       22.800        6.617        0.084      344.734       21.763      863.079
10/06/2013  18:03:00      -34.712        8.148       -1.771       10.121       10.771        7.971      102.430      116.024       63.529        0.078        0.014       35.655        5.739        0.026      345.056       22.314      863.088
10/06/2013  18:04:00       -3.424        0.770        2.902        9.929        9.991        8.438       98.586       99.816       71.195        0.015        0.013        3.510        6.295        3.217      344.662       21.639      863.089
10/06/2013  18:05:00       11.780        6.874        4.869        9.055        9.582        8.881       81.989       91.822       78.875        0.023        0.013       13.639        6.797        0.248      344.512       21.383      863.095
10/06/2013  18:06:00       -5.764       14.227        6.903        9.578       10.320        9.239       91.741      106.502       85.360        0.028        0.014       15.350        5.841        0.145      344.300       21.021      863.105
10/06/2013  18:07:00      -15.504       25.713        2.787       14.402       22.146       10.276      207.406      490.461      105.598        0.086        0.040       30.026        4.081        0.018      344.520       21.397      863.129
10/06/2013  18:08:00      -49.049       64.692       -7.132       29.751       24.894       18.239      885.150      619.691      332.675        0.424        0.092       81.185       16.353        0.041      345.165       22.501      863.154
10/06/2013  18:09:00      -55.430       65.411       -4.723       20.726       22.992       13.929      429.547      528.649      194.009        0.426        0.058       85.739       12.208        0.020      345.136       22.451      863.169
10/06/2013  18:10:00      -38.916       32.588       -6.445       15.010       19.973        8.880      225.299      398.939       78.861        0.166        0.035       50.759        7.399        0.021      345.047       22.298      863.169
10/06/2013  18:11:00      -63.173       25.703       -3.417       18.877       20.342       13.705      356.355      413.806      187.819        0.281        0.048       68.202       11.134        0.027      345.028       22.266      863.167
10/06/2013  18:12:00      -79.424      129.469      -10.965       56.070       98.056       37.829     3143.832     9615.077     1431.027        1.869        0.709      151.889       38.942        0.066      345.337       22.794      863.163
10/06/2013  18:13:00     -140.592      204.824      -35.648       58.997       87.671       39.032     3480.651     7686.197     1523.522        3.784        0.635      248.433       35.510        0.020      345.293       22.717      863.156
10/06/2013  18:14:00     -128.025      161.970      -25.851       50.706       56.804       30.765     2571.061     3226.665      946.462        2.502        0.337      206.458       33.740        0.027      345.253       22.649      863.157
10/06/2013  18:15:00     -102.557      113.526      -19.403       41.503       47.804       27.988     1722.500     2285.239      783.308        1.429        0.240      152.991       25.265        0.027      345.276       22.691      863.152
10/06/2013  18:16:00      -90.276       68.295      -18.960       28.928       28.517       18.784      836.850      813.228      352.841        0.759        0.100      113.198       16.682        0.022      345.240       22.628      863.139
10/06/2013  18:17:00      -41.946      102.035       -2.262       30.707       48.631       19.780      942.900     2364.969      391.260        0.794        0.185      110.321       19.251        0.030      345.053       22.308      863.138
10/06/2013  18:18:00      -59.337       97.389       -5.578       36.030       44.707       19.067     1298.155     1998.690      363.547        0.835        0.183      114.042       13.070        0.013      345.008       22.231      863.136
10/06/2013  18:19:00      -52.874       91.254      -10.490       29.515       38.753       16.291      871.119     1501.805      265.387        0.694        0.132      105.465       13.305        0.016      345.084       22.362      863.136
10/06/2013  18:20:00      -72.606      110.738      -25.734       42.076       43.232       22.713     1770.388     1868.997      515.872        1.118        0.208      132.418       24.803        0.035      345.112       22.409      863.141
10/06/2013  18:21:00      -49.814       92.155      -12.664       37.236       41.655       25.362     1386.534     1735.169      643.233        0.745        0.188      104.757       21.774        0.043      345.010       22.236      863.130
10/06/2013  18:22:00      -39.963      103.476       -9.168       33.099       70.417       23.223     1095.571     4958.542      539.324        0.949        0.330      110.925       27.863        0.063      345.054       22.311      863.131
10/06/2013  18:23:00      -51.037      159.541      -20.261       30.927       33.591       28.106      956.486     1128.347      789.964        1.567        0.144      167.505       18.859        0.013      345.070       22.336      863.114
10/06/2013  18:24:00      -18.623      106.187       -2.005       35.097       32.203       22.924     1231.829     1037.010      525.516        0.721        0.140      107.807       12.602        0.014      344.864       21.986      863.105
10/06/2013  18:25:00      -26.458      150.900      -19.422       41.597       58.296       23.209     1730.313     3398.458      538.635        1.476        0.283      153.202       26.950        0.031      344.961       22.151      863.100
10/06/2013  18:26:00      -55.345      150.944      -23.800       36.770       32.295       20.561     1352.035     1042.986      422.774        1.462        0.141      160.770       17.709        0.012      344.909       22.062      863.101
10/06/2013  18:27:00      -17.475      135.269      -19.367       38.422       29.460       17.555     1476.214      867.901      308.187        1.081        0.133      136.393       14.319        0.011      344.828       21.923      863.109
10/06/2013  18:28:00        7.454      159.262      -21.982       32.598       38.739       23.600     1062.651     1500.745      556.975        1.451        0.156      159.436       18.292        0.013      344.847       21.955      863.099
10/06/2013  18:29:00       -9.089      146.113      -10.163       27.946       44.416       24.591      780.994     1972.785      604.712        1.245        0.168      146.396       25.824        0.031      344.723       21.744      863.099
10/06/2013  18:30:00       -5.442      200.092      -19.966       28.785       55.930       27.780      828.576     3128.119      771.715        2.260        0.236      200.166       26.137        0.017      344.683       21.674      863.091
10/06/2013  18:31:00      -55.323      259.075      -32.290       45.140       64.056       25.473     2037.606     4103.221      648.863        3.901        0.339      264.916       16.931        0.004      344.717       21.731      863.095
10/06/2013  18:32:00      -93.617      181.343      -28.642       64.343       67.752       27.741     4139.980     4590.280      769.537        2.598        0.475      204.082       28.422        0.019      344.624       21.572      863.100
10/06/2013  18:33:00      -69.106      153.795      -13.684       67.111      105.082       48.231     4503.854    11042.213     2326.194        2.324        0.894      168.608       53.001        0.099      344.553       21.450      863.106
10/06/2013  18:34:00      -88.515      111.478      -26.843       32.794       45.059       30.285     1075.458     2030.322      917.177        1.250        0.201      142.346       21.295        0.022      344.536       21.424      863.114
10/06/2013  18:35:00      -71.750       53.944       -8.730       50.978       45.163       26.763     2598.722     2039.654      716.241        0.674        0.268       89.766       21.615        0.058      344.388       21.170      863.114
10/06/2013  18:36:00     -115.845      151.203      -23.377       68.690       89.962       43.815     4718.256     8093.191     1919.747        2.578        0.737      190.480       51.173        0.072      344.578       21.493      863.103
10/06/2013  18:37:00     -119.414       85.592      -15.660       52.192       40.841       26.646     2724.007     1667.973      709.993        1.347        0.255      146.921       27.571        0.035      344.547       21.442      863.098
10/06/2013  18:38:00     -108.953      147.619      -20.260       40.120       38.182       27.837     1609.619     1457.843      774.882        1.896        0.192      183.473       22.305        0.015      344.477       21.322      863.094
10/06/2013  18:39:00      -86.224      112.204      -11.974       38.379       35.677       23.944     1472.945     1272.875      573.336        1.174        0.166      141.508       23.412        0.027      344.392       21.179      863.090
10/06/2013  18:40:00      -79.844       89.274       -9.654       40.569       30.800       19.759     1645.836      948.632      390.423        0.871        0.149      119.770       18.652        0.024      344.268       20.968      863.095
10/06/2013  18:41:00      -63.673       89.956       -8.431       31.502       31.691       17.066      992.361     1004.312      291.242        0.725        0.114      110.210       19.973        0.033      344.292       21.007      863.089
10/06/2013  18:42:00      -60.425       83.992      -12.017       34.694       27.741       16.720     1203.692      769.573      279.561        0.655        0.113      103.469       18.597        0.032      344.251       20.937      863.094
10/06/2013  18:43:00      -43.043       43.499       -4.897       19.759       23.669       15.774      390.422      560.199      248.827        0.248        0.060       61.195       16.741        0.075      344.140       20.746      863.100
10/06/2013  18:44:00      -30.409       27.115       -4.172       20.475       36.080        9.662      419.216     1301.756       93.357        0.175        0.091       40.743        8.906        0.048      344.086       20.655      863.113
10/06/2013  18:45:00      -77.235      110.275      -18.802       21.384       29.108       12.615      457.294      847.260      159.142        0.997        0.073      134.632        6.300        0.002      344.312       21.041      863.114
10/06/2013  18:46:00      -95.183       64.052      -10.320       47.241       40.700       33.740     2231.720     1656.494     1138.404        0.915        0.251      114.728       31.261        0.074      344.223       20.889      863.129
10/06/2013  18:47:00      -42.129       55.376        7.774       41.788       39.234       26.948     1746.211     1539.331      726.213        0.446        0.201       69.580       29.267        0.177      343.991       20.494      863.131
10/06/2013  18:48:00      -74.511      116.357       -8.998       35.131       33.727       28.433     1234.182     1137.534      808.434        1.118        0.159      138.169       23.306        0.028      344.214       20.873      863.133
10/06/2013  18:49:00     -120.138       81.227      -17.369       31.630       47.743       22.797     1000.432     2279.439      519.687        1.257        0.190      145.020       20.230        0.019      344.137       20.741      863.134
10/06/2013  18:50:00      -75.788       66.325      -15.432       39.119       28.066       17.392     1530.260      787.694      302.478        0.650        0.131      100.712       13.280        0.017      344.151       20.767      863.150
10/06/2013  18:51:00      -62.411       69.293       -3.979       27.413       33.535       13.673      751.470     1124.581      186.957        0.539        0.103       93.256       11.053        0.014      344.143       20.752      863.152
10/06/2013  18:52:00     -101.422        1.904      -10.010       24.413       24.717       12.712      595.986      610.935      161.595        0.588        0.068      101.440        9.199        0.008      343.741       20.065      863.172
10/06/2013  18:53:00      -94.428       65.263      -14.499       42.841       23.423       15.947     1835.393      548.638      254.314        0.801        0.132      114.786        8.743        0.006      343.825       20.209      863.167
10/06/2013  18:54:00      -18.168      102.093       -4.300       29.610       23.237       13.852      876.761      539.939      191.890        0.619        0.080      103.697       10.295        0.010      343.990       20.493      863.168
10/06/2013  18:55:00      -41.025       33.227       -8.936       24.605       47.436       12.593      605.383     2250.170      158.579        0.294        0.151       52.793       14.420        0.075      343.933       20.393      863.154
10/06/2013  18:56:00        5.094       36.015        7.522       17.629       28.630       15.118      310.766      819.665      228.541        0.137        0.068       36.374       12.424        0.117      343.751       20.082      863.155
10/06/2013  18:57:00       47.045       79.580       -0.118       24.632       31.965       16.450      606.740     1021.753      270.606        0.522        0.095       92.445       12.941        0.020      343.971       20.460      863.135
10/06/2013  18:58:00       22.182       16.962       -0.899       37.888       33.841       14.071     1435.489     1145.208      197.982        0.178        0.139       27.924       16.974        0.370      343.476       19.614      863.131
10/06/2013  18:59:00       -7.957        6.782        1.449       24.113       18.415       10.448      581.445      339.121      109.160        0.057        0.051       10.455        6.341        0.368      343.068       18.920      863.128
10/06/2013  19:00:00     -112.520       32.356      -16.307       35.001       20.915       13.226     1225.100      437.420      174.921        0.791        0.092      117.079        9.735        0.007      343.246       19.224      863.140
10/06/2013  19:01:00      -33.218        0.286       -0.004       31.191       27.303       16.454      972.886      745.449      270.736        0.155        0.099       33.219       10.360        0.097      343.663       19.933      863.137
10/06/2013  19:02:00      -70.610        5.032       -5.810       32.460       26.455       13.806     1053.630      699.849      190.597        0.349        0.097       70.789       15.097        0.045      343.488       19.637      863.132
10/06/2013  19:03:00     -158.233        6.782      -18.872       49.003       25.042       16.794     2401.330      627.098      282.029        1.437        0.166      158.379       18.720        0.014      343.408       19.498      863.137
10/06/2013  19:04:00     -104.973       91.048      -21.747       36.110       48.926       22.883     1303.961     2393.799      523.625        1.200        0.211      138.957       16.008        0.013      344.240       20.918      863.119
10/06/2013  19:05:00     -130.082      -19.339        3.013       84.429       72.880       35.456     7128.205     5311.539     1257.136        1.550        0.685      131.512       43.281        0.108      344.468       21.308      863.113
10/06/2013  19:06:00      -25.185       17.852        6.001       32.011       30.272       24.015     1024.691      916.377      576.709        0.175        0.126       30.870       11.471        0.138      344.186       20.827      863.117
10/06/2013  19:07:00      -69.556        5.608       -7.112       34.172       27.792       18.329     1167.758      772.404      335.969        0.360        0.114       69.782       18.382        0.069      343.822       20.203      863.152
10/06/2013  19:08:00     -122.757      -20.090      -15.644       52.115       33.464       17.980     2715.966     1119.866      323.273        0.994        0.208      124.390        4.758        0.001      343.615       19.852      863.153
10/06/2013  19:09:00     -158.624      -16.926      -12.348       58.952       54.140       31.964     3475.366     2931.185     1021.719        1.651        0.371      159.525       24.653        0.024      343.622       19.863      863.177
10/06/2013  19:10:00     -184.412       49.674      -35.369       40.863       53.506       27.198     1669.775     2862.878      739.757        2.150        0.264      190.984       15.533        0.007      343.747       20.075      863.180
10/06/2013  19:11:00     -101.703       40.556      -15.550       51.905       70.435       28.338     2694.167     4961.114      803.015        1.034        0.423      109.491       26.110        0.057      343.580       19.792      863.177
10/06/2013  19:12:00      -97.258      237.363      -24.115       55.812       67.619       36.775     3115.008     4572.334     1352.427        3.771        0.452      256.515       35.981        0.020      343.903       20.339      863.163
10/06/2013  19:13:00     -134.620      201.994      -31.089       78.538       90.345       48.650     6168.269     8162.284     2366.861        3.829        0.835      242.743       51.218        0.045      343.929       20.383      863.177
10/06/2013  19:14:00      -78.240      128.635      -21.436       51.547       79.929       34.326     2657.089     6388.722     1178.265        1.667        0.511      150.560       34.048        0.051      343.995       20.497      863.162
10/06/2013  19:15:00      -75.877      101.477       -9.470       61.568       95.278       43.683     3790.678     9077.856     1908.213        1.546        0.739      126.708       54.562        0.185      344.029       20.557      863.161
10/06/2013  19:16:00      -91.466      101.249      -15.053       66.587       62.857       36.321     4433.846     3950.955     1319.235        1.427        0.485      136.445       39.734        0.085      344.009       20.523      863.165
10/06/2013  19:17:00      -59.145      276.723      -30.812       52.047       81.420       24.298     2708.887     6629.219      590.411        4.547        0.496      282.973       21.447        0.006      344.551       21.445      863.196
10/06/2013  19:18:00     -133.090      148.590      -29.154       87.157       82.889       42.469     7596.286     6870.664     1803.582        2.845        0.814      199.479       48.894        0.060      344.191       20.832      863.218
10/06/2013  19:19:00     -104.425      105.565      -22.963       50.832       75.705       30.759     2583.925     5731.238      946.146        1.592        0.463      148.487       26.789        0.033      343.947       20.416      863.211
10/06/2013  19:20:00     -107.832       47.043       -9.062       58.504       97.455       33.957     3422.766     9497.549     1153.076        1.400        0.704      117.647       24.451        0.043      343.859       20.267      863.202
10/06/2013  19:21:00     -134.435       19.625      -31.738       53.858      117.395       31.985     2900.661    13781.671     1023.047        1.858        0.885      135.860       36.709        0.073      343.735       20.054      863.211
10/06/2013  19:22:00       -5.445      -36.649       17.659       45.382       41.829       23.126     2059.485     1749.679      534.802        0.301        0.217       37.052       21.539        0.338      343.831       20.221      863.189
10/06/2013  19:23:00      -91.516       23.726        7.536       56.592       29.212       28.345     3202.619      853.356      803.433        0.693        0.243       94.541       33.761        0.128      343.870       20.287      863.196
10/06/2013  19:24:00     -121.480       80.800      -14.275       35.537       46.023       31.109     1262.886     2118.093      967.778        1.292        0.217      145.897       25.760        0.031      343.948       20.420      863.240
10/06/2013  19:25:00     -132.436      127.485      -31.376      100.128       54.048       44.311    10025.613     2921.200     1963.456        2.484        0.746      183.826       49.972        0.074      343.755       20.088      863.247
10/06/2013  19:26:00      -35.170      133.726      -10.993       42.629       75.500       27.763     1817.221     5700.304      770.812        1.376        0.414      138.273       30.098        0.047      343.606       19.834      863.231
10/06/2013  19:27:00      -47.321      212.043      -15.956       76.244       80.890       45.229     5813.095     6543.133     2045.701        3.093        0.720      217.259       38.570        0.032      343.660       19.924      863.218
10/06/2013  19:28:00      -44.792      177.446       -8.808       67.731      126.475       42.824     4587.444    15995.948     1833.883        2.799        1.121      183.012       55.925        0.093      343.567       19.767      863.238
10/06/2013  19:29:00      -79.027      174.600      -16.888       53.797      120.158       34.134     2894.086    14437.847     1165.137        2.775        0.925      191.652       39.746        0.043      343.557       19.750      863.232
10/06/2013  19:30:00     -102.856      -32.653       -5.236       30.680       28.694       19.234      941.266      823.345      369.934        0.690        0.107      107.915       14.884        0.019      343.516       19.683      863.224
10/06/2013  19:31:00     -155.053      -32.090      -20.573       36.305       37.293       27.645     1318.080     1390.756      764.243        1.448        0.174      158.339       26.477        0.028      343.402       19.489      863.251
10/06/2013  19:32:00     -216.405      -55.076      -20.167       61.604       59.432       34.792     3795.016     3532.150     1210.510        2.940        0.427      223.303       20.906        0.009      343.337       19.376      863.263
10/06/2013  19:33:00     -269.987      -41.021      -36.384       82.009       77.188       46.694     6725.443     5957.997     2180.340        4.538        0.743      273.086       34.031        0.016      343.350       19.396      863.268
10/06/2013  19:34:00     -196.685       36.556      -39.389      114.836      103.558       42.354    13187.298    10724.188     1793.864        3.363        1.285      200.053       43.900        0.048      343.401       19.484      863.278
10/06/2013  19:35:00      -95.719       57.993       -9.040       63.460       88.231       35.038     4027.218     7784.745     1227.651        1.282        0.652      111.916       34.839        0.097      343.386       19.460      863.270
10/06/2013  19:36:00      -48.650       45.364      -11.538       38.197       53.818       18.416     1459.002     2896.342      339.151        0.463        0.235       66.519       13.844        0.043      343.288       19.294      863.275
10/06/2013  19:37:00     -111.526      121.989      -31.027       51.637       92.212       44.157     2666.332     8503.113     1949.808        2.070        0.656      165.285       40.658        0.061      343.380       19.449      863.274
10/06/2013  19:38:00     -131.541      219.437      -34.400       72.441       98.122       38.975     5247.682     9627.919     1519.065        4.151        0.820      255.843       26.262        0.011      343.396       19.472      863.267
10/06/2013  19:39:00     -143.220      236.897      -35.359       81.774      117.568       49.835     6686.942    13822.174     2483.537        5.043        1.150      276.825       48.759        0.031      343.354       19.402      863.277
10/06/2013  19:40:00      -89.954      230.019      -29.683       77.404      130.862       48.804     5991.345    17124.904     2381.826        4.368        1.275      246.983       28.731        0.014      343.263       19.248      863.269
10/06/2013  19:41:00     -105.888      173.293      -22.243       62.946       99.843       44.914     3962.234     9968.543     2017.255        2.884        0.797      203.083       47.817        0.055      343.217       19.170      863.291
10/06/2013  19:42:00      -80.714      126.997      -12.780       80.183       76.073       39.107     6429.393     5787.085     1529.325        1.827        0.687      150.476       36.983        0.060      343.091       18.958      863.295
10/06/2013  19:43:00     -175.807      118.240      -42.282       61.545      134.822       41.378     3787.810    18176.887     1712.156        3.517        1.184      211.869       28.107        0.018      343.121       19.007      863.305
10/06/2013  19:44:00     -224.529      -57.572      -18.188       57.848       58.583       35.174     3346.340     3431.976     1237.243        3.104        0.401      231.793       31.963        0.019      342.979       18.763      863.322
10/06/2013  19:45:00     -203.411       19.092      -23.640       87.359       62.839       27.149     7631.570     3948.681      737.075        2.731        0.616      204.305       31.602        0.024      343.014       18.826      863.341
10/06/2013  19:46:00     -345.737       66.244      -59.508      112.120      106.046       46.219    12570.828    11245.712     2136.206        7.670        1.298      352.027       28.241        0.006      343.058       18.899      863.356
10/06/2013  19:47:00     -274.808       77.787      -49.985       81.749       82.388       49.061     6682.927     6787.709     2406.977        4.997        0.794      285.605       37.062        0.017      343.037       18.862      863.356
10/06/2013  19:48:00     -211.399       83.123      -30.729       80.596      111.097       55.481     6495.796    12342.439     3078.187        3.723        1.096      227.154       47.324        0.043      342.977       18.763      863.376
10/06/2013  19:49:00     -237.614      201.270      -46.772       92.293       95.928       55.837     8518.035     9202.098     3117.781        5.999        1.042      311.400       54.754        0.031      343.038       18.864      863.377
10/06/2013  19:50:00     -248.623      240.720      -51.744       99.454       76.900       56.119     9891.182     5913.632     3149.288        7.069        0.948      346.063       54.367        0.025      343.101       18.970      863.374
10/06/2013  19:51:00     -207.648      256.054      -41.377       83.120       98.148       49.415     6908.993     9633.068     2441.863        6.468        0.949      329.668       50.279        0.023      343.068       18.916      863.356
10/06/2013  19:52:00     -211.640      117.752      -37.926       91.139       88.877       38.656     8306.246     7899.153     1494.300        3.889        0.885      242.192       30.097        0.015      343.051       18.888      863.358
10/06/2013  19:53:00     -186.019       84.063      -21.026       79.701       71.539       39.755     6352.230     5117.847     1580.469        2.758        0.653      204.131       38.386        0.035      342.969       18.748      863.359
10/06/2013  19:54:00     -119.139      156.071      -25.232       74.456       81.812       48.760     5543.715     6693.160     2377.525        2.690        0.731      196.347       46.649        0.056      342.919       18.664      863.355
10/06/2013  19:55:00     -133.119      167.071      -17.642       72.722      114.852       37.774     5288.547    13191.029     1426.841        3.292        0.995      213.620       36.090        0.029      342.891       18.615      863.344
10/06/2013  19:56:00     -169.442      113.270      -24.484       90.785       52.447       43.387     8241.986     2750.737     1882.420        2.750        0.644      203.815       39.225        0.037      342.888       18.611      863.335
10/06/2013  19:57:00     -183.252      247.989      -42.621       82.639       87.827       55.436     6829.240     7713.550     3073.198        5.725        0.881      308.350       56.348        0.033      342.949       18.714      863.336
10/06/2013  19:58:00     -168.793      199.885      -32.906       65.169       80.402       42.919     4246.984     6464.486     1842.049        4.104        0.628      261.620       42.102        0.026      342.914       18.653      863.337
10/06/2013  19:59:00     -192.187      215.640      -41.255       88.529       82.206       48.884     7837.366     6757.874     2389.685        5.106        0.849      288.853       45.328        0.025      342.924       18.670      863.311
10/06/2013  20:00:00     -159.715      141.643      -23.530       74.838       73.014       36.968     5600.675     5331.067     1366.608        2.921        0.615      213.475       33.878        0.025      342.863       18.566      863.343
10/06/2013  20:01:00     -162.762      123.955      -14.791      109.469       67.483       55.394    11983.410     4554.017     3068.458        3.084        0.980      204.589       58.217        0.081      342.818       18.492      863.349
10/06/2013  20:02:00     -172.558      103.952      -37.603       75.320      111.634       51.427     5673.067    12462.105     2644.782        3.138        1.039      201.451       55.051        0.075      342.870       18.580      863.355
10/06/2013  20:03:00     -156.379      179.628      -36.162       79.273       90.740       52.894     6284.253     8233.758     2797.766        3.767        0.866      238.161       54.819        0.053      342.842       18.531      863.355
10/06/2013  20:04:00     -150.002      187.839      -34.011       73.606       86.041       48.176     5417.847     7403.083     2320.943        3.704        0.757      240.384       48.209        0.040      342.901       18.632      863.365
10/06/2013  20:05:00     -166.935      199.471      -48.895       69.149       83.991       45.351     4781.634     7054.572     2056.679        4.197        0.695      260.108       40.784        0.025      342.966       18.744      863.369
10/06/2013  20:06:00     -138.511      161.674      -24.461       68.255       86.842       43.008     4658.680     7541.532     1849.705        2.998        0.702      212.894       33.562        0.025      342.878       18.593      863.392
10/06/2013  20:07:00     -161.026      225.772      -36.850       91.331      106.883       54.470     8341.273    11424.014     2966.977        5.049        1.137      277.313       57.802        0.043      342.873       18.585      863.407
10/06/2013  20:08:00     -127.067      207.606      -30.251       71.756       92.024       48.352     5148.858     8468.343     2337.933        3.805        0.798      243.405       43.463        0.032      342.852       18.549      863.412
10/06/2013  20:09:00     -102.666      173.076      -19.587       89.075       66.173       48.944     7934.410     4378.831     2395.522        2.779        0.735      201.235       37.925        0.036      342.810       18.476      863.397
10/06/2013  20:10:00     -149.738      135.436      -23.122       59.787       80.508       38.542     3574.463     6481.459     1485.481        2.642        0.577      201.902       32.826        0.026      342.810       18.478      863.419
10/06/2013  20:11:00      -74.149       67.077        7.470       69.190       56.926       40.160     4787.269     3240.617     1612.865        0.984        0.482       99.987       38.884        0.151      342.760       18.394      863.423
10/06/2013  20:12:00     -139.179      216.981      -36.303       94.554       97.903       58.798     8940.490     9585.070     3457.220        4.487        1.099      257.782       71.317        0.077      343.251       19.227      863.443
10/06/2013  20:13:00     -123.966      148.413      -28.720       59.218       69.779       34.777     3506.819     4869.112     1209.414        2.390        0.479      193.375       32.962        0.029      343.087       18.948      863.468
10/06/2013  20:14:00      -90.364      219.189      -29.146       55.313       84.134       40.041     3059.496     7078.587     1603.285        3.440        0.587      237.085       37.664        0.025      343.087       18.949      863.477
10/06/2013  20:15:00      -81.034      144.724      -19.440       70.029       54.974       36.385     4904.099     3022.174     1323.849        1.857        0.463      165.866       34.717        0.044      343.000       18.802      863.472
10/06/2013  20:16:00     -145.197      228.389      -30.473       83.850       98.571       49.705     7030.753     9716.283     2470.612        4.669        0.961      270.636       51.783        0.037      343.118       19.003      863.474
10/06/2013  20:17:00     -131.504      181.712      -33.467       58.867       52.633       36.206     3465.317     2770.236     1310.902        2.949        0.377      224.304       32.407        0.021      343.198       19.137      863.475
10/06/2013  20:18:00      -72.762      174.226      -16.782       81.344       86.664       44.684     6616.772     7510.717     1996.628        2.602        0.806      188.810       51.554        0.075      343.104       18.979      863.482
10/06/2013  20:19:00      -60.405      215.414      -15.874       54.678       79.354       39.867     2989.639     6297.097     1589.384        3.059        0.544      223.723       35.768        0.026      343.036       18.862      863.486
10/06/2013  20:20:00     -102.687      124.872      -16.373       57.982       52.492       32.623     3361.881     2755.382     1064.253        1.679        0.359      161.672       26.843        0.028      342.982       18.772      863.487
10/06/2013  20:21:00      -51.237      158.122      -17.693       59.671       96.010       33.031     3560.588     9217.941     1091.015        2.090        0.693      166.216       32.402        0.038      343.086       18.949      863.489
10/06/2013  20:22:00      -34.057      123.215        0.645       46.199       63.525       38.129     2134.380     4035.455     1453.830        1.198        0.381      127.835       37.345        0.085      343.082       18.943      863.501
10/06/2013  20:23:00     -113.272       92.285      -26.264       47.622       59.452       28.410     2267.880     3534.554      807.122        1.432        0.330      146.107       23.214        0.025      343.092       18.960      863.529
10/06/2013  20:24:00      -66.375      118.171      -13.584       50.211       53.149       39.976     2521.137     2824.815     1598.111        1.275        0.347      135.536       30.942        0.052      343.122       19.012      863.515
10/06/2013  20:25:00      -65.838      168.873      -18.593       42.043       80.085       31.575     1767.619     6413.565      996.993        2.119        0.459      181.253       34.759        0.037      343.170       19.091      863.522
10/06/2013  20:26:00     -109.435      179.053      -22.346       62.880       78.683       38.905     3953.848     6191.013     1513.616        2.809        0.583      209.848       37.999        0.033      343.155       19.065      863.535
10/06/2013  20:27:00      -95.853      265.575      -34.311       54.353       54.015       32.920     2954.246     2917.611     1083.710        4.392        0.348      282.344       22.678        0.006      343.265       19.249      863.510
10/06/2013  20:28:00     -154.345      110.221      -26.588       53.507       53.648       34.393     2863.012     2878.142     1182.891        2.180        0.346      189.660       29.271        0.024      343.114       18.996      863.525
10/06/2013  20:29:00     -114.110      218.582      -26.229       55.488       58.464       39.690     3078.895     3418.045     1575.281        3.478        0.404      246.575       34.200        0.019      343.290       19.294      863.530
10/06/2013  20:30:00      -82.801      217.471      -10.038       74.228      101.682       56.825     5509.767    10339.271     3229.089        3.666        0.954      232.701       62.015        0.071      343.216       19.169      863.535
10/06/2013  20:31:00     -140.432      317.078      -28.713      102.261      118.210       73.407    10457.358    13973.689     5388.638        7.545        1.491      346.784       66.613        0.037      343.268       19.256      863.540
10/06/2013  20:32:00      -71.709      211.044      -26.108       61.862       59.701       33.517     3826.876     3564.181     1123.415        2.944        0.426      222.894       31.235        0.020      343.156       19.066      863.543
10/06/2013  20:33:00      -32.065      190.057      -18.765       45.091       70.754       30.441     2033.197     5006.167      926.664        2.273        0.398      192.743       21.048        0.012      342.871       18.580      863.530
10/06/2013  20:34:00     -100.346      187.141      -25.426       76.606       58.930       30.616     5868.442     3472.692      937.328        2.801        0.514      212.346       30.013        0.020      342.940       18.699      863.534
10/06/2013  20:35:00      -33.709      249.891      -29.926       42.086       47.742       22.344     1771.234     2279.334      499.253        3.451        0.227      252.155       18.896        0.006      342.824       18.501      863.524
10/06/2013  20:36:00      -42.309      149.374      -24.115       47.161       60.240       30.383     2224.162     3628.890      923.151        1.573        0.339      155.250       30.010        0.037      342.724       18.333      863.510
10/06/2013  20:37:00      -63.150      108.573       -8.581       39.631       44.879       27.122     1570.606     2014.100      735.621        1.008        0.216      125.603        9.444        0.006      342.818       18.493      863.512
10/06/2013  20:38:00      -71.729      110.253      -15.707       36.566       60.432       28.185     1337.042     3651.969      794.367        1.166        0.289      131.532       28.854        0.048      342.869       18.579      863.524
10/06/2013  20:39:00      -66.700      155.600      -16.964       74.983       87.206       36.016     5622.431     7604.872     1297.140        2.173        0.726      169.294       47.460        0.079      342.802       18.464      863.530
10/06/2013  20:40:00     -141.631      155.147      -30.411       69.147       44.294       33.460     4781.346     1961.996     1119.550        2.646        0.393      210.071       31.559        0.023      343.068       18.917      863.538
10/06/2013  20:41:00     -148.094      134.937      -33.313       48.327       52.419       32.415     2335.534     2747.715     1050.712        2.369        0.307      200.350       33.136        0.027      342.970       18.751      863.555
10/06/2013  20:42:00      -75.181      143.542      -22.030       76.390       42.609       34.074     5835.381     1815.525     1161.070        1.778        0.441      162.038       35.137        0.047      342.865       18.571      863.535
10/06/2013  20:43:00      -45.362      168.275      -15.010       39.333       48.164       26.233     1547.108     2319.725      688.176        1.758        0.228      174.282       19.670        0.013      342.824       18.504      863.505
10/06/2013  20:44:00     -106.973       89.960      -20.743       72.480       41.497       28.616     5253.417     1722.010      818.877        1.388        0.390      139.771       25.461        0.033      342.934       18.690      863.492
10/06/2013  20:45:00      -85.733       85.313      -13.538       38.022       53.439       32.941     1445.701     2855.688     1085.094        1.010        0.269      120.948       15.355        0.016      342.793       18.449      863.475
10/06/2013  20:46:00     -128.668       62.196      -22.102       45.551       59.421       29.012     2074.861     3530.878      841.686        1.368        0.322      142.912       31.504        0.049      342.766       18.402      863.477
10/06/2013  20:47:00      -80.094       87.662      -16.059       59.717       56.772       28.669     3566.109     3223.077      821.910        1.098        0.381      118.742       32.840        0.076      342.784       18.436      863.502
10/06/2013  20:48:00      -92.066       36.309      -11.131       55.594       61.191       25.915     3090.731     3744.299      671.578        0.871        0.375       98.967       28.472        0.083      342.694       18.284      863.515
10/06/2013  20:49:00      -92.265       60.453       -7.967       43.169       64.564       36.946     1863.551     4168.562     1365.011        0.981        0.370      110.305       29.237        0.070      342.656       18.218      863.533
10/06/2013  20:50:00     -126.948       56.962      -18.847       40.070       35.690       29.416     1605.608     1273.759      865.273        1.173        0.187      139.142       25.122        0.033      342.685       18.265      863.556
10/06/2013  20:51:00     -115.535       57.956      -15.305       29.528       46.138       24.364      871.900     2128.747      593.590        1.027        0.180      129.256       18.144        0.020      342.624       18.164      863.576
10/06/2013  20:52:00     -116.538      128.348      -16.832       57.429       68.070       36.571     3298.036     4633.556     1337.464        1.980        0.463      173.361       34.280        0.039      342.869       18.580      863.565
10/06/2013  20:53:00     -108.608      107.193      -19.393       43.498       67.954       30.219     1892.048     4617.687      913.204        1.554        0.371      152.597       21.135        0.019      342.692       18.279      863.563
10/06/2013  20:54:00     -140.411       90.575      -28.108       40.034       39.765       27.870     1602.707     1581.225      776.758        1.633        0.198      167.090       24.679        0.022      342.914       18.657      863.556
10/06/2013  20:55:00     -114.434       51.396       -2.865       47.209       44.737       28.092     2228.695     2001.427      789.160        1.038        0.251      125.446       16.643        0.018      342.746       18.373      863.549
10/06/2013  20:56:00     -117.862       58.392      -13.146       50.284       35.954       25.153     2528.470     1292.719      632.682        1.096        0.223      131.534       18.200        0.019      342.634       18.179      863.542
10/06/2013  20:57:00     -104.384       63.857      -25.177       34.891       43.634       22.022     1217.389     1903.924      484.962        0.961        0.180      122.367       19.795        0.026      342.626       18.167      863.538
10/06/2013  20:58:00     -111.045       59.417      -13.507       33.018       39.641       23.925     1090.182     1571.422      572.400        0.964        0.162      125.943       17.858        0.020      342.549       18.038      863.548
10/06/2013  20:59:00     -136.266      105.519      -26.680       77.060       48.800       35.817     5938.280     2381.439     1282.845        2.001        0.480      172.345       46.763        0.074      342.841       18.531      863.538
10/06/2013  21:00:00     -102.161       66.273       -8.538       82.761       71.578       31.596     6849.375     5123.418      998.323        1.393        0.649      121.774       27.386        0.051      342.870       18.583      863.520
10/06/2013  21:01:00     -166.958      -23.830      -19.240       33.037       35.494       21.654     1091.430     1259.806      468.880        1.582        0.141      168.650       16.547        0.010      342.656       18.219      863.542
10/06/2013  21:02:00     -121.499      -33.344       -8.286       63.853       29.949       24.856     4077.246      896.947      617.825        1.077        0.280      125.992       22.218        0.031      342.483       17.926      863.547
10/06/2013  21:03:00     -108.248       86.229      -17.816       53.578       70.269       28.270     2870.646     4937.720      799.193        1.404        0.430      138.394       38.711        0.078      342.635       18.182      863.520
10/06/2013  21:04:00      -94.541      148.925      -13.088       61.787       72.345       41.069     3817.606     5233.805     1686.668        2.101        0.537      176.399       38.745        0.048      342.706       18.303      863.516
10/06/2013  21:05:00     -129.248      153.428      -30.357       55.737       81.052       39.017     3106.658     6569.474     1522.311        2.618        0.560      200.612       35.564        0.031      342.929       18.681      863.519
10/06/2013  21:06:00      -68.393      201.499      -24.988       46.791       44.662       26.496     2189.368     1994.697      702.061        2.539        0.244      212.790       19.474        0.008      342.868       18.576      863.503
10/06/2013  21:07:00      -71.435      150.419      -14.476       43.335       50.373       32.857     1877.881     2537.448     1079.584        1.672        0.275      166.520       24.104        0.021      342.630       18.174      863.508
10/06/2013  21:08:00      -52.891      198.651      -12.711       58.019      108.300       35.752     3366.190    11728.858     1278.205        2.939        0.819      205.572       42.118        0.042      342.544       18.026      863.500
10/06/2013  21:09:00     -134.854       63.505       -7.243       68.920      141.991       44.746     4749.976    20161.364     2002.181        2.459        1.346      149.059       25.901        0.030      342.559       18.052      863.519
10/06/2013  21:10:00      -88.829       58.108      -13.348       44.376       94.743       30.989     1969.215     8976.160      960.323        1.167        0.595      106.147       41.677        0.154      342.465       17.893      863.545
10/06/2013  21:11:00     -124.264      -12.226      -12.560       51.069       73.181       22.951     2608.025     5355.491      526.746        1.212        0.425      124.864       21.699        0.030      342.468       17.899      863.545
10/06/2013  21:12:00      -48.268      -59.998       11.592       70.053       42.277       35.049     4907.378     1787.315     1228.408        0.699        0.396       77.003       33.045        0.184      342.292       17.598      863.580
10/06/2013  21:13:00      -52.758       16.015       -9.814       31.272       28.269       21.849      977.933      799.122      477.397        0.269        0.113       55.135       17.542        0.101      342.307       17.625      863.580
10/06/2013  21:14:00     -107.805      -42.476      -17.581       37.301       42.550       21.534     1391.391     1810.544      463.725        0.870        0.183      115.871       17.607        0.023      342.287       17.592      863.598
10/06/2013  21:15:00     -101.656      -31.068       -2.804       57.546       33.183       29.869     3311.528     1101.133      892.178        0.830        0.265      106.298       33.474        0.099      342.191       17.427      863.618
10/06/2013  21:16:00      -65.763      -12.532       -5.441       21.367       19.013       10.240      456.533      361.512      104.851        0.272        0.046       66.947        9.126        0.019      342.135       17.334      863.635
10/06/2013  21:17:00     -118.291       10.801      -12.175       31.035       33.300       20.243      963.199     1108.915      409.791        0.837        0.124      118.783        9.827        0.007      342.203       17.448      863.671
10/06/2013  21:18:00     -125.949       15.156       -4.423       49.422       44.703       32.272     2442.532     1998.363     1041.510        1.080        0.274      126.858       22.495        0.031      342.223       17.482      863.691
10/06/2013  21:19:00     -118.788      124.625      -21.553       65.019       47.910       41.425     4227.476     2295.357     1716.021        1.917        0.412      172.168       38.085        0.049      342.359       17.712      863.693
10/06/2013  21:20:00     -137.541      119.330      -31.982       46.555       65.442       32.608     2167.359     4282.712     1063.313        2.085        0.376      182.092       29.845        0.027      342.349       17.696      863.701
10/06/2013  21:21:00      -79.261       87.358       -7.525       71.968       74.518       38.199     5179.323     5552.877     1459.142        1.308        0.610      117.956       39.005        0.109      342.210       17.459      863.711
10/06/2013  21:22:00      -46.890       58.488      -12.029       41.332       51.741       29.447     1708.319     2677.152      867.103        0.551        0.263       74.963       17.099        0.052      342.181       17.412      863.694
10/06/2013  21:23:00      -58.784      -45.830       -0.512       52.250       31.693       24.490     2730.034     1004.463      599.774        0.494        0.217       74.538       21.854        0.086      342.062       17.210      863.710
10/06/2013  21:24:00     -105.503      -44.136        3.648       46.460       63.317       28.966     2158.502     4009.072      839.058        1.005        0.350      114.363       21.646        0.036      342.075       17.230      863.728
10/06/2013  21:25:00     -124.304      -35.913       -9.213       37.912       25.318       22.043     1437.288      641.010      485.876        0.969        0.128      129.388       21.449        0.027      342.064       17.213      863.745
10/06/2013  21:26:00     -115.031       15.530      -13.238       55.367       48.875       26.453     3065.471     2388.728      699.760        0.990        0.308      116.074       29.397        0.064      342.036       17.165      863.741
10/06/2013  21:27:00     -138.681       35.119      -20.279       54.146       52.809       29.661     2931.821     2788.816      879.782        1.374        0.330      143.059       37.978        0.070      342.150       17.359      863.746
10/06/2013  21:28:00      -85.542        1.089       -3.058       46.153       36.409       24.275     2130.058     1325.645      589.276        0.569        0.202       85.549       22.637        0.070      342.009       17.118      863.752
10/06/2013  21:29:00      -95.614       55.919      -22.032       46.123       89.097       35.099     2127.357     7938.265     1231.951        1.202        0.565      110.766       45.578        0.169      341.993       17.093      863.753
10/06/2013  21:30:00      -69.845       91.911      -14.316       40.796       44.459       33.134     1664.322     1976.623     1097.863        0.913        0.237      115.438       22.589        0.038      341.970       17.052      863.761
10/06/2013  21:31:00      -93.697       50.426      -16.979       35.376       35.740       20.878     1251.478     1277.338      435.895        0.729        0.148      106.404       14.722        0.019      341.964       17.042      863.771
10/06/2013  21:32:00     -103.513       88.172      -26.284       43.344       36.621       24.102     1878.727     1341.066      580.904        1.149        0.190      135.975       23.130        0.029      342.006       17.114      863.791
10/06/2013  21:33:00      -76.227       81.333      -12.180       35.916       66.038       23.730     1289.949     4360.960      563.124        0.939        0.311      111.470       18.328        0.027      342.066       17.217      863.804
10/06/2013  21:34:00     -114.434       81.436      -31.337       31.522       61.481       23.342      993.643     3779.941      544.872        1.301        0.266      140.453       28.193        0.040      342.025       17.147      863.823
10/06/2013  21:35:00      -99.436       68.644      -13.622       41.586       41.570       28.648     1729.400     1728.065      820.731        0.953        0.214      120.828       26.224        0.047      342.023       17.143      863.835
10/06/2013  21:36:00     -117.284       69.816      -22.295       55.834       40.307       29.956     3117.414     1624.684      897.372        1.238        0.282      136.491       31.855        0.054      342.077       17.233      863.853
10/06/2013  21:37:00     -123.392        9.446       -8.751       36.069       49.690       27.307     1300.956     2469.065      745.651        0.995        0.226      123.753       23.962        0.037      342.003       17.108      863.854
10/06/2013  21:38:00      -75.883       20.036       -8.010       34.481       27.097       25.437     1188.932      734.221      647.040        0.440        0.129       78.484       13.339        0.029      341.929       16.983      863.847
10/06/2013  21:39:00      -83.299      -17.149      -16.780       20.231       34.168       19.658      409.307     1167.437      386.426        0.474        0.098       85.046       16.529        0.038      341.871       16.884      863.856
10/06/2013  21:40:00     -101.155       88.566      -25.418       44.112       55.745       23.645     1945.877     3107.474      559.091        1.217        0.281      134.448       26.935        0.040      342.124       17.313      863.867
10/06/2013  21:41:00     -108.736      140.997      -28.614       47.579       70.056       32.187     2263.734     4907.825     1035.973        2.036        0.410      178.055       26.053        0.021      342.039       17.167      863.877
10/06/2013  21:42:00     -118.833       90.150      -23.303       39.055       38.146       25.083     1525.258     1455.135      629.147        1.320        0.180      149.159       25.738        0.030      342.031       17.155      863.864
10/06/2013  21:43:00      -99.206       90.826      -19.323       37.615       34.219       22.043     1414.872     1170.950      485.910        1.077        0.154      134.503       21.302        0.025      341.952       17.022      863.869
10/06/2013  21:44:00      -83.411       67.292      -15.303       35.401       37.525       22.443     1253.263     1408.148      503.699        0.744        0.158      107.171       17.800        0.028      341.954       17.026      863.888
10/06/2013  21:45:00      -94.966       77.667      -18.268       26.905       44.396       20.146      723.905     1970.965      405.868        0.924        0.155      122.682       19.842        0.026      341.866       16.877      863.896
10/06/2013  21:46:00     -117.141       48.139      -15.712       26.002       36.796       24.306      676.105     1353.930      590.771        0.945        0.131      126.646       14.025        0.012      341.830       16.815      863.900
10/06/2013  21:47:00     -154.049        3.962      -16.869       73.515       62.863       22.200     5404.484     3951.807      492.854        1.694        0.492      154.100       19.276        0.016      341.806       16.774      863.901
10/06/2013  21:48:00     -127.082       61.121      -14.174       60.438       38.722       23.811     3652.746     1499.421      566.955        1.290        0.286      141.016       16.781        0.014      341.639       16.493      863.904
10/06/2013  21:49:00     -102.247       -6.018       -6.785       44.593       50.093       25.452     1988.512     2509.334      647.789        0.784        0.257      102.424       29.952        0.086      341.687       16.574      863.900
10/06/2013  21:50:00     -108.851      -12.878       -8.711       42.444       32.628       19.743     1801.525     1064.612      389.797        0.767        0.163      109.610       18.656        0.029      341.541       16.324      863.905
10/06/2013  21:51:00     -129.498       71.589      -10.498       57.490       45.907       31.873     3305.062     2107.492     1015.872        1.422        0.321      147.968       22.754        0.024      341.692       16.581      863.912
10/06/2013  21:52:00     -124.191       86.145      -21.309       70.223       54.416       32.872     4931.292     2961.107     1080.557        1.613        0.449      151.143       35.921        0.056      341.667       16.537      863.889
10/06/2013  21:53:00      -82.692       79.122      -17.194       42.260       46.791       26.708     1785.914     2189.415      713.337        0.904        0.234      114.448       21.507        0.035      341.703       16.600      863.866
10/06/2013  21:54:00     -109.069       72.340      -22.336       40.440       59.655       27.686     1635.396     3558.754      766.497        1.179        0.298      130.878       27.689        0.045      341.643       16.496      863.858
10/06/2013  21:55:00     -129.604      124.541      -11.039       45.885       60.188       33.236     2105.403     3622.577     1104.640        1.963        0.342      179.744       26.694        0.022      341.692       16.578      863.850
10/06/2013  21:56:00     -131.932       38.365      -23.767       44.838       65.924       31.984     2010.453     4345.987     1022.991        1.341        0.369      137.397       33.526        0.060      341.647       16.504      863.849
10/06/2013  21:57:00     -137.258      -33.733      -28.163       45.506       46.206       30.054     2070.768     2134.981      903.219        1.294        0.255      141.343       27.386        0.038      341.607       16.437      863.868
10/06/2013  21:58:00     -141.565       -3.700       -0.264       58.223       98.946       53.555     3389.861     9790.392     2868.174        1.805        0.802      141.613       47.182        0.111      341.610       16.440      863.891
10/06/2013  21:59:00     -143.412      123.692      -29.718       60.334       74.888       36.119     3640.150     5608.193     1304.556        2.365        0.528      189.385       35.369        0.035      341.591       16.407      863.898
10/06/2013  22:00:00     -128.339      141.428      -16.753       89.445       75.347       52.814     8000.452     5677.148     2789.309        2.661        0.823      190.978       61.119        0.102      341.610       16.439      863.907
10/06/2013  22:01:00     -166.310       51.417      -20.332       54.639       78.938       36.740     2985.377     6231.189     1349.848        2.064        0.528      174.077       37.453        0.046      341.627       16.470      863.930
10/06/2013  22:02:00     -144.185      141.939      -28.689       60.545       79.084       35.460     3665.739     6254.302     1257.397        2.647        0.559      202.327       41.299        0.042      341.655       16.514      863.935
10/06/2013  22:03:00     -132.507      146.634      -30.364       57.411       58.189       32.869     3296.062     3385.909     1080.344        2.387        0.388      197.635       33.427        0.029      341.694       16.583      863.918
10/06/2013  22:04:00     -165.918       60.846      -20.895       50.577       70.774       30.099     2558.003     5008.940      905.922        2.007        0.424      176.723       23.832        0.018      341.680       16.559      863.937
10/06/2013  22:05:00     -109.691       29.368      -17.956       41.415       53.721       34.707     1715.183     2885.945     1204.578        0.951        0.290      113.554       28.910        0.065      341.592       16.411      863.944
10/06/2013  22:06:00     -110.305        8.105       -6.300       32.627       71.509       34.851     1064.510     5113.492     1214.558        0.983        0.370      110.602       27.086        0.060      341.615       16.451      863.951
10/06/2013  22:07:00      -96.830       82.463      -13.346       34.414       75.942       34.366     1184.313     5767.153     1181.010        1.224        0.407      127.186       30.560        0.058      341.579       16.388      863.947
10/06/2013  22:08:00     -119.439       45.451      -23.571       59.812       53.072       38.356     3577.453     2816.680     1471.220        1.237        0.393      127.795       38.563        0.091      341.605       16.433      863.954
10/06/2013  22:09:00     -162.708      136.937      -37.767       48.193       53.870       31.253     2322.611     2901.942      976.723        2.643        0.310      212.663       27.813        0.017      341.588       16.401      863.956
10/06/2013  22:10:00     -121.407      182.027      -28.611       62.469       69.335       43.671     3902.381     4807.278     1907.171        2.965        0.531      218.801       40.938        0.035      341.531       16.306      863.961
10/06/2013  22:11:00     -144.881       98.934      -22.848       62.596       60.936       38.222     3918.313     3713.211     1460.892        2.019        0.455      175.438       37.893        0.047      341.548       16.335      863.957
10/06/2013  22:12:00     -123.145       80.360       -7.833       62.021       36.835       35.034     3846.595     1356.810     1227.397        1.406        0.322      147.045       30.632        0.043      341.576       16.384      863.960
10/06/2013  22:13:00      -88.403      205.430      -21.579       46.686       79.422       37.225     2179.551     6307.845     1385.673        3.018        0.494      223.644       27.080        0.015      341.526       16.297      863.954
10/06/2013  22:14:00     -110.141      135.823      -20.620       59.042       74.359       36.373     3485.926     5529.193     1322.976        2.067        0.517      174.868       36.396        0.043      341.431       16.135      863.932
10/06/2013  22:15:00     -112.485      172.179      -27.350       73.870      100.954       49.016     5456.786    10191.731     2402.587        3.055        0.903      205.666       61.301        0.089      341.469       16.201      863.926
10/06/2013  22:16:00     -115.818      155.064      -28.706       54.501       90.866       34.540     2970.313     8256.574     1193.019        2.535        0.621      193.542       32.098        0.028      341.600       16.425      863.921
10/06/2013  22:17:00     -193.142      167.068      -32.865       93.865      118.343       44.430     8810.646    14005.041     1974.040        4.554        1.239      255.373       51.915        0.041      341.633       16.478      863.930
10/06/2013  22:18:00     -185.143      188.134      -36.864       73.604       80.313       46.447     5417.569     6450.236     2157.290        4.253        0.701      263.955       43.340        0.027      341.547       16.332      863.937
10/06/2013  22:19:00     -153.288      179.619      -26.108       62.514       62.401       50.833     3908.027     3893.838     2583.989        3.341        0.519      236.136       36.125        0.023      341.465       16.192      863.935
10/06/2013  22:20:00     -167.616      251.047      -39.278       92.726       99.994       50.130     8598.046     9998.836     2512.998        5.688        1.055      301.860       49.643        0.027      341.447       16.163      863.937
10/06/2013  22:21:00      -86.939      101.277      -15.455       53.555       63.310       33.675     2868.169     4008.169     1133.988        1.303        0.401      133.474       37.297        0.078      341.456       16.180      863.912
10/06/2013  22:22:00     -147.080      184.160      -29.963       80.900       90.855       52.423     6544.770     8254.558     2748.166        3.699        0.877      235.685       59.032        0.063      341.473       16.206      863.933
10/06/2013  22:23:00     -103.157      217.372      -30.919       67.039       64.349       41.796     4494.216     4140.785     1746.894        3.461        0.519      240.607       31.813        0.017      341.498       16.249      863.929
10/06/2013  22:24:00     -114.284      132.601      -20.505       44.954       62.023       35.161     2020.863     3846.807     1236.297        1.908        0.355      175.054       26.460        0.023      341.397       16.081      863.933
10/06/2013  22:25:00     -195.768       98.547      -31.215       66.888       52.472       33.785     4474.009     2753.326     1141.440        2.869        0.418      219.172       22.426        0.010      341.550       16.336      863.955
10/06/2013  22:26:00     -155.622      162.929      -30.974       61.922       84.676       42.946     3834.370     7170.059     1844.388        3.228        0.642      225.309       44.078        0.038      341.476       16.212      863.963
10/06/2013  22:27:00     -133.977      110.788      -18.478       64.852       66.977       33.208     4205.811     4485.885     1102.776        2.018        0.490      173.850       30.822        0.031      341.390       16.067      863.972
10/06/2013  22:28:00      -90.946      128.194      -14.435       71.898       71.763       38.074     5169.263     5149.951     1449.605        1.834        0.588      157.177       43.207        0.076      341.351       16.002      863.941
10/06/2013  22:29:00      -63.678      236.008      -35.701       49.054       62.581       30.162     2406.319     3916.373      909.734        3.413        0.362      244.448       14.361        0.003      341.433       16.139      863.915
10/06/2013  22:30:00     -106.993      210.124      -27.512       60.003       66.379       35.849     3600.392     4406.197     1285.141        3.282        0.465      235.796       27.159        0.013      341.353       16.002      863.901
10/06/2013  22:31:00     -100.918      147.109      -24.051       55.456       67.804       37.237     3075.343     4597.342     1386.569        2.073        0.453      178.397       37.552        0.044      341.420       16.118      863.887
10/06/2013  22:32:00      -38.158      184.829      -16.696       60.947       63.133       35.261     3714.519     3985.836     1243.358        2.242        0.447      188.727       26.764        0.020      341.315       15.940      863.850
10/06/2013  22:33:00      -51.409      120.688      -17.112       42.062       44.340       26.563     1769.185     1966.039      705.570        1.097        0.222      131.181       23.888        0.033      341.345       15.993      863.848
10/06/2013  22:34:00      -63.058      146.329      -24.016       53.763       67.524       28.185     2890.475     4559.440      794.418        1.710        0.412      159.338       22.887        0.021      341.331       15.968      863.839
10/06/2013  22:35:00      -76.309       90.685      -15.312       57.390       89.110       28.828     3293.666     7940.626      831.034        1.317        0.603      118.519       41.232        0.121      341.452       16.172      863.823
10/06/2013  22:36:00        9.074      -32.154        5.355       21.649       25.404       14.869      468.698      645.380      221.075        0.124        0.067       33.410       11.439        0.117      341.460       16.187      863.824
10/06/2013  22:37:00      -37.035      -26.912       -2.983       40.601       43.359       18.982     1648.447     1880.008      360.307        0.300        0.194       45.781       14.725        0.103      341.551       16.342      863.828
10/06/2013  22:38:00      -70.165        0.847      -13.563       29.951       36.375       21.858      897.061     1323.106      477.761        0.390        0.135       70.170       17.854        0.065      341.525       16.299      863.827
10/06/2013  22:39:00      -24.000       27.979        4.393       31.874       30.451       29.693     1015.976      927.264      881.666        0.210        0.141       36.862       19.494        0.280      341.432       16.139      863.823
10/06/2013  22:40:00      -46.350        4.986       -4.766       22.509       23.053       21.945      506.674      531.453      481.593        0.186        0.076       46.618        5.649        0.015      341.510       16.273      863.837
10/06/2013  22:41:00      -53.671       -0.489        4.315       24.006       26.293       13.490      576.284      691.303      181.973        0.217        0.072       53.673        7.793        0.021      341.371       16.037      863.840
10/06/2013  22:42:00     -106.920      -17.523      -13.292       35.066       24.274       18.011     1229.623      589.203      324.397        0.703        0.107      108.346       14.391        0.018      341.458       16.184      863.834
10/06/2013  22:43:00     -106.562      -23.234      -11.394       28.423       38.222       26.572      807.860     1460.902      706.089        0.750        0.149      109.065       20.321        0.035      341.418       16.116      863.829
10/06/2013  22:44:00      -87.811      -21.304        2.449       50.515       41.144       24.846     2551.725     1692.800      617.319        0.652        0.243       90.358       28.886        0.102      341.280       15.884      863.842
10/06/2013  22:45:00      -81.487       34.554       -2.512       50.421       32.997       33.822     2542.319     1088.794     1143.954        0.631        0.239       88.511       33.235        0.141      341.348       15.997      863.864
10/06/2013  22:46:00     -131.470       50.850      -20.770       55.545       39.704       30.896     3085.294     1576.437      954.590        1.296        0.281      140.961       25.697        0.033      341.487       16.233      863.879
10/06/2013  22:47:00      -80.547       46.513      -14.402       25.130       24.748       15.393      631.504      612.485      236.958        0.517        0.074       93.012       11.789        0.016      341.423       16.126      863.902
10/06/2013  22:48:00     -137.263      159.333      -37.747       53.082       79.141       33.609     2817.667     6263.362     1129.570        2.793        0.511      210.305       39.084        0.035      341.417       16.114      863.934
10/06/2013  22:49:00      -89.625      157.125      -29.460       83.998       44.025       35.368     7055.685     1938.233     1250.880        2.191        0.512      180.889       28.487        0.025      341.347       15.997      863.936
10/06/2013  22:50:00      -80.057      101.212       -5.474       48.611       62.497       33.218     2363.050     3905.881     1103.445        1.203        0.369      129.046       26.762        0.043      341.341       15.986      863.950
10/06/2013  22:51:00      -50.151      -34.117        8.743       54.277       39.037       23.107     2945.971     1523.861      533.925        0.438        0.250       60.655       15.648        0.067      341.223       15.787      863.975
10/06/2013  22:52:00      -45.946      -31.706       10.427       41.607       30.023       22.018     1731.120      901.385      484.794        0.317        0.156       55.824       24.182        0.188      341.181       15.716      863.979
10/06/2013  22:53:00       -8.380       -2.967        0.797       13.765       17.338       13.408      189.476      300.590      179.768        0.037        0.033        8.890        5.383        0.367      341.169       15.696      863.956
10/06/2013  22:54:00      -41.246      -39.626       -9.456       23.363       19.475       15.017      545.851      379.283      225.522        0.226        0.058       57.197        7.889        0.019      341.240       15.817      863.936
10/06/2013  22:55:00      -71.648      -45.162       -4.195       27.956       27.295       13.586      781.560      745.021      184.566        0.445        0.086       84.694        7.287        0.007      341.165       15.690      863.930
10/06/2013  22:56:00      -57.269      -30.098       -5.643       36.115       28.823       18.585     1304.307      830.757      345.388        0.335        0.124       64.696       20.932        0.105      341.110       15.596      863.918
10/06/2013  22:57:00      -71.434        7.978       -6.130       46.488       33.823       17.336     2161.136     1143.977      300.530        0.440        0.180       71.878       16.193        0.051      341.111       15.597      863.916
10/06/2013  22:58:00      -67.455      -22.580        6.949       61.954       42.700       23.605     3838.312     1823.310      557.213        0.566        0.311       71.134       34.527        0.236      341.026       15.452      863.908
10/06/2013  22:59:00       -4.956       29.513       10.560       39.215       25.117       19.315     1537.804      630.851      373.060        0.177        0.127       29.926       20.491        0.469      341.009       15.425      863.861
10/06/2013  23:00:00       50.866      127.355      -12.382       44.460       71.619       32.088     1976.680     5129.342     1029.618        1.355        0.407      137.137       32.016        0.055      341.139       15.642      863.834
10/06/2013  23:01:00      -63.883      167.302      -19.177       56.550       91.703       30.979     3197.920     8409.414      959.668        2.250        0.628      179.084       24.696        0.019      341.237       15.807      863.849
10/06/2013  23:02:00     -100.213       -9.143      -14.977       32.177       33.777       20.774     1035.373     1140.860      431.559        0.648        0.130      100.629       16.630        0.027      340.965       15.348      863.882
10/06/2013  23:03:00      -38.296      -10.638       -1.906       31.613       13.258       11.435      999.379      175.766      130.762        0.144        0.065       39.746       12.053        0.092      340.967       15.353      863.876
10/06/2013  23:04:00      -20.811       26.264       -4.590       34.397       28.880       16.237     1183.119      834.046      263.654        0.171        0.114       33.510       15.189        0.205      341.118       15.608      863.867
10/06/2013  23:05:00      -99.010       72.575      -20.751       53.167       33.337       27.980     2826.730     1111.370      782.878        1.011        0.236      122.760       25.569        0.043      341.206       15.757      863.850
10/06/2013  23:06:00     -107.458      122.093      -30.306       28.051       43.792       19.028      786.885     1917.768      362.073        1.522        0.153      162.647       12.055        0.005      341.231       15.798      863.849
10/06/2013  23:07:00      -23.977       26.417        3.771       58.480       77.688       35.625     3419.938     6035.426     1269.161        0.600        0.536       35.676       41.259        1.338      341.118       15.608      863.846
10/06/2013  23:08:00        3.829       -1.851       11.213       12.510       16.644       12.935      156.504      277.020      167.320        0.037        0.030        4.252       10.866        6.530      341.035       15.470      863.850
10/06/2013  23:09:00      -68.494      -22.530       -6.993       64.888       33.409       15.860     4210.464     1116.160      251.525        0.541        0.279       72.105       15.544        0.046      341.086       15.554      863.867
10/06/2013  23:10:00      -75.152      153.305      -15.262       69.720       75.034       44.527     4860.815     5630.104     1982.655        2.093        0.624      170.734       40.715        0.057      341.097       15.571      863.849
10/06/2013  23:11:00      -65.649       61.618      -12.987       42.864       46.913       25.347     1837.329     2200.808      642.470        0.648        0.234       90.036       25.493        0.080      341.143       15.651      863.846
10/06/2013  23:12:00      -62.372       25.319       -8.916       41.606       32.096       19.334     1731.072     1030.133      373.792        0.387        0.157       67.315       20.024        0.088      340.914       15.264      863.851
10/06/2013  23:13:00     -117.711       -4.108      -18.026       55.541       38.586       28.055     3084.753     1488.852      787.109        0.978        0.268      117.783       26.374        0.050      340.928       15.288      863.853
10/06/2013  23:14:00     -125.384      -27.189      -12.758       46.897       53.172       35.281     2199.303     2827.300     1244.772        1.145        0.314      128.298       29.046        0.051      340.991       15.393      863.850
10/06/2013  23:15:00     -112.574       -7.115       -9.453       54.332       58.460       33.572     2951.979     3417.515     1127.097        1.015        0.375      112.798       33.319        0.087      340.973       15.363      863.846
10/06/2013  23:16:00     -125.097       -5.292       -5.532       52.684       32.066       19.119     2775.648     1028.212      365.554        0.994        0.208      125.209       19.434        0.024      340.909       15.255      863.852
10/06/2013  23:17:00     -169.663       26.888      -37.008       43.830       62.208       32.557     1921.073     3869.872     1059.933        1.886        0.343      171.780       21.077        0.015      340.973       15.361      863.865
10/06/2013  23:18:00     -138.421      -30.373      -13.805       58.457       39.385       20.451     3417.179     1551.189      418.261        1.283        0.269      141.714       19.604        0.019      340.920       15.273      863.873
10/06/2013  23:19:00     -207.744       -3.886      -21.131       60.173       80.348       27.745     3620.840     6455.790      769.763        2.723        0.542      207.781       21.263        0.010      340.871       15.187      863.884
10/06/2013  23:20:00      -99.215       71.372      -11.540       58.931       71.152       35.858     3472.854     5062.667     1285.813        1.244        0.491      122.219       35.918        0.086      340.904       15.246      863.863
10/06/2013  23:21:00     -152.584      194.970      -32.035       73.189       96.372       40.343     5356.598     9287.582     1627.573        3.929        0.814      247.579       33.857        0.019      341.062       15.511      863.831
10/06/2013  23:22:00     -100.937       72.902      -20.328       42.854       74.231       28.717     1836.433     5510.286      824.661        1.204        0.409      124.511       35.837        0.083      341.009       15.422      863.815
10/06/2013  23:23:00     -102.142       73.710      -20.097       51.407       38.544       28.435     2642.709     1485.613      808.568        1.060        0.247      125.961       26.403        0.044      340.917       15.269      863.795
10/06/2013  23:24:00      -74.100       77.995      -12.780       49.770       43.657       21.905     2477.043     1905.912      479.840        0.830        0.243      107.582       22.352        0.043      340.887       15.216      863.780
10/06/2013  23:25:00      -62.033      106.711      -13.819       49.350       43.913       35.468     2435.385     1928.385     1257.992        1.052        0.281      123.431       27.168        0.048      340.962       15.344      863.737
10/06/2013  23:26:00      -24.927       79.889       -3.459       38.242       43.381       24.417     1462.445     1881.884      596.190        0.548        0.197       83.687       21.212        0.064      340.902       15.244      863.708
10/06/2013  23:27:00      -89.745       25.870      -14.680       27.207       30.155       17.578      740.203      909.324      308.997        0.545        0.098       93.399       12.905        0.019      340.964       15.348      863.690
10/06/2013  23:28:00      -80.706       45.829       -0.121       44.783       35.458       37.960     2005.473     1257.255     1440.963        0.666        0.235       92.810       22.634        0.059      340.912       15.260      863.687
10/06/2013  23:29:00      -88.848      -10.335       -9.715       27.812       20.426       16.653      773.482      417.234      277.313        0.478        0.073       89.447       13.598        0.023      340.802       15.076      863.668
10/06/2013  23:30:00      -59.109       -1.600       -9.774       42.702       30.231       19.674     1823.464      913.927      387.051        0.336        0.156       59.130       11.749        0.039      340.860       15.172      863.651
10/06/2013  23:31:00      -84.904       -9.013       -8.353       31.455       33.446       19.161      989.395     1118.647      367.158        0.492        0.124       85.381       17.167        0.040      340.897       15.234      863.656
10/06/2013  23:32:00      -80.712       44.115      -12.508       42.577       29.297       24.002     1812.768      858.297      576.087        0.593        0.162       91.981       13.363        0.021      340.883       15.210      863.675
10/06/2013  23:33:00      -44.620      100.784       -9.511       29.691       52.421       24.143      881.551     2748.010      582.877        0.822        0.211      110.220       21.003        0.036      340.879       15.204      863.670
10/06/2013  23:34:00      -99.460       57.498      -20.388       50.772       28.241       21.573     2577.804      797.542      465.388        0.873        0.192      114.884       27.015        0.055      340.951       15.326      863.665
10/06/2013  23:35:00      -64.783       41.838      -14.227       21.269       26.099       15.559      452.355      681.145      242.093        0.376        0.069       77.118        9.797        0.016      340.854       15.161      863.657
10/06/2013  23:36:00      -40.637       13.202      -11.107       16.658       14.330       12.295      277.485      205.352      151.179        0.129        0.032       42.727       10.457        0.060      340.789       15.051      863.650
10/06/2013  23:37:00      -42.019       36.139        8.283       24.465       34.961       23.738      598.557     1222.292      563.510        0.276        0.119       55.422       18.974        0.117      340.788       15.050      863.645
10/06/2013  23:38:00      -58.528       19.378       -5.242       19.695       44.900       20.993      387.902     2016.006      440.724        0.334        0.142       61.652       23.319        0.143      340.758       15.000      863.633
10/06/2013  23:39:00      -89.911      -34.503       -3.794       37.439       20.745       16.589     1401.673      430.351      275.182        0.570        0.105       96.304       12.552        0.017      340.618       14.762      863.628
10/06/2013  23:40:00       -8.477       23.692       -0.923       24.538       53.028       22.998      602.119     2811.996      528.906        0.229        0.197       25.163       19.915        0.626      340.552       14.650      863.641
10/06/2013  23:41:00       -4.873      -12.052       10.327       20.677       26.610       12.063      427.558      708.100      145.522        0.078        0.064       13.000       14.252        1.202      340.605       14.742      863.625
10/06/2013  23:42:00      -85.883       11.080      -20.163       59.267       55.847       30.389     3512.540     3118.916      923.461        0.773        0.378       86.594       28.939        0.112      340.752       14.990      863.625
10/06/2013  23:43:00      -75.847      -64.182       -5.851       36.879       23.102       20.675     1360.075      533.699      427.461        0.611        0.116       99.359       16.458        0.027      340.647       14.813      863.648
10/06/2013  23:44:00      -73.629      -63.570       -0.910       44.950       27.985       24.387     2020.535      783.161      594.704        0.643        0.170       97.275       22.734        0.055      340.506       14.574      863.664
10/06/2013  23:45:00     -103.502      -75.594       -5.401       37.605       30.430       24.733     1414.173      925.987      611.727        0.970        0.148      128.168       20.753        0.026      340.483       14.534      863.695
10/06/2013  23:46:00     -143.933      -50.055       -8.724       51.335       34.247       21.974     2635.266     1172.833      482.852        1.379        0.215      152.388       17.923        0.014      340.384       14.367      863.721
10/06/2013  23:47:00     -151.098      -19.544      -11.066       39.079       52.075       26.038     1527.207     2711.755      677.982        1.412        0.246      152.357       18.601        0.015      340.321       14.261      863.727
10/06/2013  23:48:00     -129.353       -0.988      -15.426       36.830       44.094       19.181     1356.430     1944.282      367.898        1.032        0.183      129.357       17.682        0.019      340.254       14.148      863.729
10/06/2013  23:49:00     -106.923      -14.248       -8.421       42.842       34.106       21.279     1835.472     1163.190      452.790        0.758        0.173      107.868       22.356        0.043      340.216       14.084      863.737
10/06/2013  23:50:00     -132.091        2.748      -20.271       30.618       36.102       18.716      937.484     1303.332      350.272        1.023        0.130      132.120       10.723        0.007      340.387       14.372      863.735
10/06/2013  23:51:00     -136.067       34.454      -16.479       42.559       29.815       19.091     1811.257      888.911      364.472        1.152        0.153      140.362        9.745        0.005      340.435       14.453      863.725
10/06/2013  23:52:00     -121.995       72.108      -22.992       41.369       42.675       22.644     1711.432     1821.195      512.756        1.233        0.202      141.712       16.455        0.013      340.552       14.653      863.724
10/06/2013  23:53:00     -105.919       61.396      -12.166       42.981       35.200       27.302     1847.364     1239.035      745.381        0.948        0.192      122.426       21.409        0.031      340.578       14.696      863.747
10/06/2013  23:54:00     -149.341      131.082      -40.455       42.169       49.572       27.411     1778.249     2457.424      751.338        2.305        0.249      198.709       28.461        0.021      340.810       15.085      863.771
10/06/2013  23:55:00     -113.533       96.331      -23.742       39.560       39.590       24.560     1564.992     1567.361      603.186        1.323        0.187      148.894       17.118        0.013      340.700       14.901      863.783
10/06/2013  23:56:00     -170.673        7.324      -17.675       54.590       51.954       23.176     2980.096     2699.166      537.136        1.785        0.311      170.830       22.399        0.017      340.421       14.428      863.816
10/06/2013  23:57:00     -269.199      -19.015      -29.053       65.829       46.089       32.051     4333.512     2124.231     1027.277        4.058        0.374      269.870       32.173        0.014      340.107       13.895      863.862
10/06/2013  23:58:00     -215.424       35.524      -19.192      121.671       75.964       44.440    14803.808     5770.491     1974.953        3.529        1.127      218.333       50.280        0.053      340.180       14.019      863.875
10/06/2013  23:59:00     -184.626      153.102      -40.692       53.125       80.178       33.627     2822.279     6428.497     1130.763        3.478        0.519      239.848       41.307        0.030      340.450       14.476      863.859
